     2.11           OBSERVATION DATA    G (GPS)             RINEX VERSION / TYPE
teqc 2010Oct21 20110906 13:41:34UTC                         PGM / RUN BY / DATE
MSXP|IAx86-PII|bcc32 5.0|MSWin95->XP|486/DX+                COMMENT
BIT 2 OF LLI FLAGS DATA COLLECTED UNDER A/S CONDITION       COMMENT
THU4                                                        MARKER NAME
43001M003                                                   MARKER NUMBER
-Unknown- -Unknown-                                         OBSERVER / AGENCY
496095 LEICA GRX1200+ 8.20/4.007                            REC # / TYPE / VERS
LEIAR25.R3 LEIT                                             ANT # / TYPE
   538093.6937 -1389081.1586  6180979.4789                  APPROX POSITION XYZ
        0.1514        0.0000        0.0000                  ANTENNA: DELTA H/E/N
     1     1                                                WAVELENGTH FACT L1/2
     6    L1    L2    C1    P2    S1    S2                  # / TYPES OF OBSERV
    15.0000                                                 INTERVAL
Standard                                                    COMMENT
Project creator:                                            COMMENT
Finn Bo Madsen                                              COMMENT
SNR is mapped to RINEX snr flag value [0-9]                 COMMENT
L1 & L2: min(max(int(snr_dBHz/6), 0), 9)                    COMMENT
  2011     9     5     0     0    0.0000000     GPS         TIME OF FIRST OBS
                                                            END OF HEADER
 11  9  5  0  0  0.0000000  0 12G12G13G25G29G04G20G31G05G30G02G23G10
 122006973.443 8  95070357.29647  23217153.620    23217149.520          49.150
        42.550
 118454790.872 8  92302422.73846  22541193.280    22541188.380          49.850
        41.650
 116420303.929 8  90717109.33947  22154042.140    22154040.500          51.200
        46.350
 124278396.708 8  96840308.84246  23649388.900    23649385.700          48.500
        39.600
 111571060.468 8  86938495.03047  21231257.800    21231253.720          50.950
        46.800
 128901082.581 7 100442392.92146  24529057.360    24529052.740          44.200
        37.350
 120906318.230 8  94212690.67347  23007705.040    23007700.400          49.600
        43.800
 132077614.008 7 102917615.37646  25133534.120    25133531.760          44.350
        37.550
 115379451.235 8  89906062.44147  21955975.560    21955971.480          50.300
        44.600
 111580667.225 8  86945960.91147  21233084.740    21233078.020          51.100
        47.600
 116295312.044 8  90619715.22347  22130257.980    22130250.800          50.800
        43.650
 112585632.486 8  87729066.23047  21424327.500    21424323.360          50.450
        45.600
 11  9  5  0  0 15.0000000  0 12G12G13G25G29G04G20G31G05G30G02G23G10
 122052213.697 8  95105609.40446  23225762.640    23225758.640          49.250
        41.900
 118417936.654 8  92273705.17846  22534180.200    22534175.360          49.850
        41.700
 116436244.175 8  90729530.30847  22157075.460    22157073.840          51.150
        46.450
 124228219.585 8  96801209.80246  23639840.520    23639837.420          48.050
        40.350
 111601868.771 8  86962501.50147  21237120.400    21237116.360          50.900
        46.700
 128956697.191 7 100485728.95245  24539640.460    24539635.760          44.550
        34.350
 120922135.295 8  94225015.65547  23010714.960    23010710.200          49.350
        43.600
 132017986.298 7 102871152.28845  25122187.120    25122184.540          44.200
        35.300
 115387091.161 8  89912015.63247  21957429.420    21957425.360          50.350
        44.550
 111555302.104 8  86926195.90047  21228257.900    21228251.220          51.100
        47.550
 116286649.533 8  90612965.19847  22128609.560    22128602.260          50.850
        43.900
 112555080.826 8  87705259.76047  21418513.700    21418509.480          50.350
        45.550
 11  9  5  0  0 30.0000000  0 12G12G13G25G29G04G20G31G05G30G02G23G10
 122097550.519 8  95140936.75847  23234390.020    23234386.000          49.350
        42.600
 118381213.507 8  92245089.74747  22527192.020    22527187.220          49.700
        42.250
 116452340.904 8  90742073.21347  22160138.560    22160137.000          51.100
        46.450
 124178112.606 7  96762165.42646  23630305.540    23630302.280          47.600
        40.950
 111632806.515 8  86986608.80447  21243007.640    21243003.680          50.950
        46.650
 129012359.066 7 100529101.84346  24550232.520    24550227.980          44.200
        36.750
 120938101.433 8  94237456.78947  23013753.080    23013748.580          49.050
        44.100
 131958378.047 7 102824704.33146  25110843.860    25110841.180          45.400
        37.850
 115394905.724 8  89918104.89947  21958916.480    21958912.460          50.100
        44.500
 111530063.222 8  86906529.24547  21223455.080    21223448.440          51.000
        47.550
 116278145.104 8  90606338.34647  22126991.240    22126983.860          50.750
        43.750
 112524671.933 8  87681564.52747  21412727.060    21412722.860          50.350
        45.700
 11  9  5  0  0 45.0000000  0 12G12G13G25G29G04G20G31G05G30G02G23G10
 122142982.022 8  95176337.89847  23243035.460    23243031.200          49.300
        42.100
 118344620.191 8  92216575.56146  22520228.500    22520223.760          49.700
        41.850
 116468592.629 8  90754736.91247  22163231.180    22163229.700          51.300
        46.350
 124128074.584 7  96723174.78846  23620783.600    23620780.280          47.950
        41.050
 111663872.198 8  87010815.85647  21248919.240    21248915.320          50.950
        46.900
 129068066.488 7 100572510.19846  24560833.300    24560828.840          44.900
        36.000
 120954215.119 8  94250012.92647  23016819.220    23016815.160          49.050
        44.100
 131898788.404 7 102778270.93746  25099504.320    25099502.040          43.800
        37.550
 115402893.520 8  89924329.14947  21960436.480    21960432.540          50.300
        44.550
 111504949.416 8  86886960.06247  21218676.020    21218669.460          51.050
        47.600
 116269797.551 8  90599833.76147  22125402.720    22125395.420          50.750
        44.400
 112494404.542 8  87657979.55947  21406967.360    21406963.120          50.550
        45.900
 11  9  5  0  1  0.0000000  0 12G12G13G25G29G04G20G31G05G30G02G23G10
 122188508.867 8  95211813.32447  23251699.020    23251694.660          49.450
        42.450
 118308158.198 8  92188163.68446  22513289.980    22513285.200          49.700
        41.700
 116485000.069 8  90767521.92647  22166353.460    22166351.900          51.400
        46.550
 124078106.764 7  96684238.82446  23611274.980    23611271.580          47.900
        40.950
 111695066.599 8  87035123.19847  21254855.380    21254851.440          51.050
        46.900
 129123819.947 7 100615954.44346  24571442.860    24571438.500          44.900
        36.100
 120970477.221 8  94262684.70047  23019913.700    23019909.840          49.300
        43.900
 131839218.480 7 102731852.96745  25088168.280    25088165.960          45.300
        35.650
 115411055.342 8  89930688.99547  21961989.600    21961985.780          50.300
        44.350
 111479961.788 8  86867489.18347  21213920.980    21213914.500          51.050
        47.600
 116261607.752 8  90593452.07747  22123844.140    22123837.100          50.550
        44.400
 112464279.885 8  87634505.79947  21401234.860    21401230.520          50.550
        45.750
 11  9  5  0  1 15.0000000  0 12G12G13G25G29G04G20G31G05G30G02G23G10
 122234128.337 8  95247360.93947  23260380.200    23260375.860          49.200
        43.300
 118271824.817 8  92159852.01246  22506375.880    22506371.200          49.450
        41.350
 116501560.596 8  90780426.23747  22169504.860    22169503.240          51.100
        46.600
 124028207.031 7  96645355.95247  23601779.300    23601776.100          47.800
        42.600
 111726386.794 8  87059528.56547  21260815.420    21260811.460          50.900
        46.850
 129179616.773 7 100659432.44346  24582060.660    24582056.200          44.400
        37.100
 120986885.089 8  94275470.04147  23023036.100    23023031.960          49.350
        44.000
 131779665.851 7 102685448.33946  25076835.780    25076833.100          46.150
        39.000
 115419388.716 8  89937182.55347  21963575.360    21963571.640          50.150
        44.400
 111455098.089 8  86848114.87047  21209189.540    21209183.100          50.800
        47.850
 116253573.288 8  90587191.44647  22122315.100    22122308.420          50.300
        44.800
 112434295.675 8  87611141.51647  21395529.080    21395524.640          50.400
        45.900
 11  9  5  0  1 30.0000000  0 12G12G13G25G29G04G20G31G05G30G02G23G10
 122279842.742 8  95282982.56547  23269079.440    23269075.040          49.550
        42.300
 118235622.552 8  92131642.45747  22499486.760    22499482.020          49.850
        42.050
 116518276.664 8  90793451.73647  22172685.840    22172684.240          51.300
        46.800
 123978378.438 8  96606528.50346  23592297.160    23592294.240          48.350
        41.650
 111757835.312 8  87084033.93047  21266799.860    21266795.860          51.100
        46.600
 129235459.392 7 100702946.11046  24592687.200    24592682.760          44.350
        36.650
 121003441.202 8  94288370.91047  23026186.740    23026182.280          49.650
        44.000
 131720133.536 7 102639059.63446  25065507.160    25065504.860          45.900
        38.650
 115427896.070 8  89943811.66747  21965194.240    21965190.560          50.100
        44.500
 111430361.034 8  86828839.24147  21204482.140    21204475.840          50.950
        47.450
 116245697.041 8  90581054.11247  22120816.200    22120809.820          50.700
        44.500
 112404454.685 8  87587888.81947  21389850.520    21389846.080          50.650
        45.650
 11  9  5  0  1 45.0000000  0 12G12G13G25G29G04G20G31G05G30G02G23G10
 122325652.449 8  95318678.43347  23277796.780    23277792.300          49.850
        42.200
 118199553.688 8  92103536.85146  22492623.040    22492618.260          50.150
        41.250
 116535148.985 8  90806599.01047  22175896.520    22175894.960          51.400
        46.350
 123928621.983 8  96567757.24646  23582828.880    23582825.960          48.750
        41.850
 111789412.594 8  87108639.61947  21272808.740    21272804.800          51.150
        46.450
 129291348.284 7 100746495.89046  24603322.560    24603318.100          43.750
        37.050
 121020146.142 8  94301387.73347  23029365.700    23029361.060          49.900
        43.800
 131660622.624 7 102592687.48146  25054182.520    25054180.260          44.650
        37.400
 115436578.166 8  89950576.93947  21966846.380    21966842.680          50.600
        44.550
 111405751.711 8  86809663.12147  21199799.060    21199792.800          51.100
        47.400
 116237979.817 8  90575040.70347  22119347.600    22119341.420          50.900
        44.650
 112374758.123 8  87564748.68047  21384199.480    21384195.020          50.950
        45.900
 11  9  5  0  2  0.0000000  0 12G12G13G25G29G04G20G31G05G30G02G23G10
 122371553.445 8  95354445.45147  23286531.520    23286526.960          49.500
        42.250
 118163614.172 8  92075532.05846  22485783.960    22485779.140          49.900
        40.900
 116552173.595 8  90819864.93947  22179136.180    22179134.620          51.250
        46.400
 123878934.025 8  96529039.39246  23573373.660    23573370.720          48.750
        41.450
 111821114.486 8  87133342.40247  21278841.320    21278837.420          50.800
        46.700
 129347279.211 7 100790078.40145  24613965.880    24613961.400          44.850
        34.850
 121036995.977 8  94314517.47547  23032572.200    23032567.500          49.650
        44.150
 131601129.758 7 102546329.41246  25042861.400    25042858.940          45.300
        36.600
 115445431.122 8  89957475.34447  21968531.040    21968527.320          50.250
        44.600
 111381266.557 8  86790583.78647  21195139.660    21195133.420          50.850
        47.550
 116230417.850 8  90569148.25547  22117908.600    22117902.420          50.700
        44.700
 112345202.432 8  87541718.28547  21378575.220    21378570.760          50.650
        45.950
 11  9  5  0  2 15.0000000  0 12G12G13G25G29G04G20G31G05G30G02G23G10
 122417548.413 8  95390285.67447  23295284.120    23295279.520          49.450
        42.000
 118127807.428 8  92047630.71046  22478970.180    22478965.240          49.850
        41.350
 116569353.672 8  90833252.01247  22182405.460    22182403.860          51.100
        46.550
 123829318.358 8  96490377.86446  23563932.120    23563929.000          48.000
        41.200
 111852944.381 8  87158144.91847  21284898.260    21284894.460          50.800
        46.550
 129403255.242 7 100833696.05346  24624617.760    24624613.040          43.100
        36.100
 121053994.002 8  94327762.67847  23035806.920    23035802.180          49.650
        43.750
 131541658.466 7 102499988.20946  25031544.360    25031541.900          44.700
        38.500
 115454458.185 8  89964509.41847  21970248.800    21970245.120          50.200
        44.250
 111356909.141 8  86771603.99447  21190504.580    21190498.320          50.950
        47.300
 116223014.516 8  90563379.40747  22116499.820    22116493.640          50.800
        44.850
 112315791.136 8  87518800.41347  21372978.460    21372974.000          50.700
        45.950
 11  9  5  0  2 30.0000000  0 12G12G13G25G29G04G20G31G05G30G02G23G10
 122463637.381 8  95426199.13547  23304054.560    23304050.020          49.700
        42.050
 118092134.113 8  92019833.31646  22472181.740    22472176.720          50.200
        40.850
 116586689.254 8  90846760.24847  22185704.320    22185702.660          51.500
        46.250
 123779775.568 7  96451773.12546  23554504.300    23554500.960          47.700
        40.650
 111884902.114 8  87183047.07047  21290979.600    21290975.820          51.100
        46.650
 129459276.334 7 100877348.82846  24635278.260    24635273.520          45.650
        36.250
 121071140.260 8  94341123.41147  23039069.800    23039065.020          49.800
        43.950
 131482209.275 7 102453664.26046  25020231.600    25020229.440          45.650
        38.750
 115463659.524 8  89971679.29247  21971999.760    21971996.080          50.250
        44.250
 111332679.723 8  86752723.94647  21185893.880    21185887.580          51.250
        47.300
 116215770.192 8  90557734.46347  22115121.400    22115115.000          51.150
        44.600
 112286524.598 8  87495995.32947  21367409.260    21367404.800          50.900
        45.800
 11  9  5  0  2 45.0000000  0 12G12G13G25G29G04G20G31G05G30G02G23G10
 122509816.980 8  95462183.23847  23312842.240    23312837.760          49.350
        42.450
 118056592.009 8  91992138.18946  22465418.320    22465413.220          49.950
        41.250
 116604177.245 8  90860387.26247  22189032.220    22189030.560          51.150
        46.600
 123730303.056 7  96413223.12446  23545089.840    23545086.480          47.400
        40.950
 111916984.466 8  87208046.30747  21297084.700    21297080.860          51.050
        46.700
 129515339.331 7 100921034.34146  24645946.780    24645942.160          43.300
        37.350
 121088431.437 8  94354597.01047  23042360.200    23042355.400          49.600
        44.000
 131422779.351 7 102407355.26545  25008922.460    25008920.140          45.250
        34.900
 115473032.011 8  89978982.52447  21973783.280    21973779.580          50.250
        44.900
 111308575.493 8  86733941.44147  21181307.040    21181300.720          51.050
        47.600
 116208682.111 8  90552211.28747  22113772.760    22113766.160          51.300
        45.150
 112257400.093 8  87473300.92447  21361867.060    21361862.620          50.950
        46.450
 11  9  5  0  3  0.0000000  0 12G12G13G25G29G04G20G31G05G30G02G23G10
 122556092.956 8  95498242.41247  23321648.220    23321643.740          49.050
        42.100
 118021187.219 8  91964550.06146  22458681.020    22458675.880          49.800
        41.550
 116621823.546 8  90874137.63547  22192390.160    22192388.540          51.150
        46.400
 123680907.139 7  96374732.80746  23535689.980    23535686.560          47.050
        41.550
 111949197.174 8  87233147.10247  21303214.640    21303210.740          51.000
        47.000
 129571450.132 7 100964757.19946  24656624.260    24656619.640          44.750
        36.600
 121105873.541 8  94368188.22347  23045679.320    23045674.380          49.450
        44.000
 131363375.105 7 102361066.26946  24997618.140    24997615.700          45.000
        37.850
 115482581.690 8  89986423.84747  21975600.540    21975596.780          50.250
        44.400
 111284602.891 8  86715261.51847  21176745.220    21176738.840          50.900
        47.300
 116201756.148 8  90546814.44147  22112454.940    22112448.180          51.050
        44.900
 112228423.935 8  87450722.10747  21356353.160    21356348.740          50.800
        46.450
 11  9  5  0  3 15.0000000  0 12G12G13G25G29G04G20G31G05G30G02G23G10
 122602455.720 8  95534369.23046  23330470.720    23330466.240          48.800
        41.950
 117985910.931 8  91937062.05946  22451968.100    22451963.060          49.700
        41.100
 116639618.581 8  90888003.90147  22195776.420    22195774.780          51.100
        46.300
 123631578.541 7  96336294.98646  23526302.920    23526299.880          47.500
        40.850
 111981530.813 8  87258342.17247  21309367.520    21309363.600          50.850
        46.600
 129627598.463 7 101008509.14545  24667308.900    24667304.420          45.350
        35.850
 121123457.157 8  94381889.74747  23049025.400    23049020.220          49.450
        43.550
 131303987.366 7 102314790.12146  24986317.000    24986314.640          45.100
        37.100
 115492298.934 8  89993995.73647  21977449.640    21977445.880          50.050
        44.700
 111260752.534 8  86696676.83947  21172206.640    21172200.220          50.750
        47.800
 116194983.017 8  90541536.68047  22111166.160    22111159.300          50.950
        44.800
 112199586.946 8  87428251.72947  21350865.720    21350861.320          50.800
        46.450
 11  9  5  0  3 30.0000000  0 12G12G13G25G29G04G20G31G05G30G02G23G10
 122648913.081 8  95570569.74546  23339311.220    23339306.900          48.900
        41.850
 117950771.105 8  91909680.39946  22445281.140    22445276.160          49.450
        41.150
 116657570.281 8  90901992.24147  22199192.440    22199190.900          51.050
        46.550
 123582325.756 7  96297916.24946  23516930.360    23516927.580          47.950
        41.400
 112013993.209 8  87283637.53347  21315544.900    21315540.960          50.950
        46.550
 129683792.438 7 101052296.68746  24678002.280    24677997.540          44.600
        37.350
 121141190.162 8  94395707.66247  23052399.960    23052394.480          49.650
        43.300
 131244624.870 7 102268533.71846  24975020.640    24975018.140          45.300
        36.400
 115502191.861 8  90001704.50847  21979332.200    21979328.380          50.100
        44.250
 111237032.781 8  86678193.91647  21167692.840    21167686.520          50.800
        47.600
 116188370.960 8  90536384.41247  22109908.000    22109901.040          51.100
        44.900
 112170897.495 8  87405896.32747  21345406.320    21345401.900          50.850
        46.450
 11  9  5  0  3 45.0000000  0 12G12G13G25G29G04G20G31G05G30G02G23G10
 122695460.599 8  95606840.51147  23348168.840    23348164.680          48.850
        42.350
 117915764.529 8  91882402.57446  22438619.480    22438614.640          49.250
        41.150
 116675674.669 8  90916099.54547  22202637.560    22202636.120          51.050
        46.300
 123533145.274 7  96259593.84746  23507571.580    23507568.840          47.800
        41.850
 112046580.075 8  87309029.85247  21321746.000    21321741.980          50.900
        46.400
 129740028.065 7 101096116.70145  24688703.500    24688698.840          43.200
        34.600
 121159068.347 8  94409638.68347  23055802.140    23055796.560          49.450
        43.900
 131185283.682 7 102222293.85346  24963728.240    24963725.400          46.000
        37.650
 115512256.541 8  90009547.10447  21981247.440    21981243.580          49.900
        44.250
 111213440.002 8  86659809.93547  21163203.260    21163196.960          50.750
        47.600
 116181916.266 8  90531354.75047  22108679.780    22108672.660          50.950
        44.600
 112142352.051 8  87383653.15047  21339974.320    21339969.800          50.750
        46.400
 11  9  5  0  4  0.0000000  0 12G12G13G25G29G04G20G31G05G30G02G23G10
 122742099.341 8  95643182.37947  23357043.860    23357039.700          49.100
        42.300
 117880892.647 8  91855229.69746  22431983.460    22431978.680          49.350
        41.100
 116693932.880 8  90930326.72647  22206111.980    22206110.520          51.250
        46.300
 123484038.691 8  96221329.03946  23498226.860    23498224.220          48.050
        41.200
 112079292.574 8  87334520.11547  21327971.060    21327966.960          51.150
        46.850
 129796306.085 7 101139969.71646  24699412.720    24699407.920          44.300
        37.000
 121177092.866 8  94423683.70347  23059232.100    23059226.760          49.450
        43.850
 131125965.593 7 102176072.00046  24952440.380    24952437.820          43.950
        39.000
 115522494.073 8  90017524.41247  21983195.520    21983191.680          50.000
        44.100
 111189975.641 8  86641526.02747  21158738.160    21158731.820          50.950
        47.550
 116175620.216 8  90526448.73947  22107481.760    22107474.600          51.100
        44.900
 112113952.068 8  87361523.33447  21334569.980    21334565.380          50.800
        46.250
 11  9  5  0  4 15.0000000  0 12G12G13G25G29G04G20G31G05G30G02G23G10
 122788828.390 8  95679594.61446  23365936.140    23365931.900          49.100
        41.950
 117846155.764 8  91828162.01946  22425373.120    22425368.500          49.250
        41.150
 116712344.309 8  90944673.29847  22209615.580    22209614.080          51.150
        46.450
 123435005.742 8  96183121.56247  23488896.300    23488893.380          48.250
        42.300
 112112130.145 8  87360107.88147  21334219.920    21334215.740          51.100
        46.800
 129852625.750 7 101183855.12245  24710129.940    24710125.480          45.250
        35.750
 121195263.404 8  94437842.54047  23062689.800    23062684.880          49.350
        44.350
 131066670.724 7 102129868.30046  24941156.940    24941154.400          46.200
        37.600
 115532904.025 8  90025636.06047  21985176.440    21985172.560          50.100
        44.100
 111166639.502 8  86623342.01747  21154297.480    21154291.140          50.900
        47.800
 116169482.605 8  90521666.17447  22106313.880    22106306.640          51.000
        44.950
 112085697.238 8  87339506.61247  21329193.200    21329188.660          50.550
        46.600
 11  9  5  0  4 30.0000000  0 12G12G13G25G29G04G20G31G05G30G02G23G10
 122835646.642 8  95716076.36046  23374845.420    23374841.080          49.250
        41.800
 117811552.522 8  91801198.45046  22418788.240    22418783.720          49.400
        41.500
 116730907.866 8  90959138.40647  22213148.100    22213146.560          51.150
        46.400
 123386046.019 8  96144971.15746  23479579.680    23479576.560          48.550
        41.850
 112145091.451 8  87385792.01847  21340492.280    21340488.060          51.100
        46.850
 129908985.932 7 101227772.11045  24720854.880    24720850.060          45.750
        35.350
 121213578.745 8  94452114.25547  23066174.980    23066170.500          49.200
        44.150
 131007397.986 7 102083681.83946  24929877.740    24929874.900          46.650
        37.850
 115543485.352 8  90033881.24047  21987189.940    21987186.120          49.950
        44.250
 111143430.903 8  86605257.41147  21149881.040    21149874.640          50.750
        47.600
 116163502.359 8  90517006.24947  22105175.940    22105168.580          50.900
        44.800
 112057586.915 8  87317602.49347  21323843.900    21323839.440          50.600
        46.150
 11  9  5  0  4 45.0000000  0 12G12G13G25G29G04G20G31G05G30G02G23G10
 122882555.219 8  95752628.49046  23383771.800    23383767.540          48.800
        41.850
 117777084.729 8  91774340.43747  22412229.180    22412224.840          49.400
        42.050
 116749624.845 8  90973723.06647  22216709.840    22216708.180          51.050
        46.300
 123337161.280 8  96106879.19046  23470277.320    23470274.220          48.750
        41.750
 112178177.706 8  87411573.51647  21346788.380    21346784.220          51.000
        46.800
 129965387.794 7 101271721.59745  24731587.820    24731583.080          45.950
        35.100
 121232040.087 8  94466499.74247  23069687.840    23069683.720          49.100
        43.850
 130948149.169 7 102037514.05846  24918603.020    24918600.440          44.300
        38.100
 115554239.369 8  90042261.00647  21989236.320    21989232.480          50.000
        44.000
 111120351.334 8  86587273.33347  21145489.080    21145482.700          50.700
        47.650
 116157680.994 8  90512470.11847  22104068.100    22104060.800          50.750
        44.250
 112029622.840 8  87295812.36247  21318522.400    21318517.940          50.400
        46.250
 11  9  5  0  5  0.0000000  0 12G12G13G25G29G04G20G31G05G30G02G23G10
 122929554.065 8  95789250.93746  23392715.300    23392711.140          49.250
        41.100
 117742753.451 8  91747588.79846  22405696.120    22405691.900          50.150
        41.200
 116768495.327 8  90988427.33847  22220300.780    22220299.040          51.500
        45.850
 123288352.143 8  96068846.12446  23460989.360    23460986.220          49.600
        41.500
 112211388.910 8  87437452.37647  21353108.180    21353104.060          51.400
        46.050
 130021831.276 7 101315703.45545  24742328.660    24742324.020          46.900
        33.600
 121250647.524 8  94480999.05647  23073228.560    23073224.640          49.700
        43.000
 130888924.788 7 101991365.29046  24907332.960    24907330.400          46.150
        38.100
 115565166.312 8  90050775.51947  21991315.600    21991311.820          50.350
        44.000
 111097401.294 8  86569390.20147  21141121.780    21141115.440          51.100
        47.300
 116152018.948 8  90508058.14447  22102990.520    22102983.380          51.100
        44.050
 112001805.536 8  87274136.59647  21313228.780    21313224.400          51.000
        45.800
 11  9  5  0  5 15.0000000  0 12G12G13G25G29G04G20G31G05G30G02G23G10
 122976640.893 8  95825941.97047  23401675.620    23401671.420          48.800
        42.250
 117708556.743 8  91720942.01347  22399188.720    22399184.440          49.600
        42.700
 116787517.192 8  91003249.56747  22223920.520    22223918.740          50.950
        46.300
 123239616.791 7  96030870.55946  23451715.360    23451712.220          47.950
        41.650
 112244723.087 8  87463427.06147  21359451.420    21359447.300          50.700
        46.700
 130078314.234 7 101359716.15845  24753077.020    24753072.360          45.650
        35.550
 121269398.917 8  94495610.50747  23076796.820    23076792.780          49.150
        44.050
 130829723.298 7 101945234.29846  24896067.240    24896064.340          46.100
        37.650
 115576263.998 8  90059423.07547  21993427.400    21993423.640          49.900
        44.600
 111074578.940 8  86551606.55948  21136778.820    21136772.500          50.600
        48.050
 116146514.240 8  90503768.77047  22101942.880    22101935.860          50.450
        44.150
 111974133.139 8  87252573.71847  21307962.780    21307958.480          50.250
        46.550
 11  9  5  0  5 30.0000000  0 12G12G13G25G29G04G20G31G05G30G02G23G10
 123023817.777 8  95862703.16147  23410653.160    23410648.880          48.950
        42.000
 117674497.474 8  91694402.34547  22392707.560    22392703.240          49.900
        42.700
 116806692.730 8  91018191.52647  22227569.520    22227567.720          51.050
        46.150
 123190958.043 7  95992954.68147  23442455.800    23442452.820          47.700
        42.050
 112278182.255 8  87489499.15347  21365818.500    21365814.360          50.850
        46.550
 130134838.467 7 101403761.00145  24763833.280    24763828.640          45.050
        35.750
 121288296.718 8  94510336.04647  23080393.120    23080388.640          49.600
        43.250
 130770547.502 7 101899123.36246  24884806.360    24884803.640          45.700
        38.800
 115587534.777 8  90068205.48447  21995572.220    21995568.460          50.050
        44.600
 111051886.890 8  86533924.43647  21132460.720    21132454.360          50.800
        47.600
 116141169.359 8  90499603.92147  22100925.700    22100918.700          50.650
        44.350
 111946608.336 8  87231125.84647  21302724.920    21302720.700          50.300
        46.300
 11  9  5  0  5 45.0000000  0 12G12G13G25G29G04G20G31G05G30G02G23G10
 123071081.508 8  95899532.02646  23419647.160    23419643.000          48.850
        41.900
 117640573.164 8  91667967.84947  22386252.080    22386247.640          50.050
        42.350
 116826019.024 8  91033250.97447  22231247.220    22231245.440          51.100
        46.100
 123142373.577 8  95955096.68946  23433210.360    23433207.260          48.000
        41.100
 112311763.364 8  87515666.27347  21372208.800    21372204.580          50.950
        46.600
 130191401.362 7 101447836.01645  24774596.860    24774592.480          44.900
        33.450
 121307337.903 8  94525173.32847  23084016.760    23084011.760          49.700
        42.800
 130711394.760 7 101853030.38846  24873549.940    24873547.400          45.800
        37.900
 115598975.841 8  90077120.60047  21997749.440    21997745.740          50.050
        44.450
 111029322.595 8  86516341.85947  21128166.960    21128160.540          50.900
        47.450
 116135981.604 8  90495561.51547  22099938.420    22099931.560          50.600
        44.250
 111919228.563 8  87209790.98847  21297514.640    21297510.560          50.550
        46.050
 11  9  5  0  6  0.0000000  0 12G12G13G25G29G04G20G31G05G30G02G23G10
 123118434.047 8  95936430.09447  23428658.100    23428653.860          48.800
        42.050
 117606786.344 8  91641640.43447  22379822.760    22379818.160          49.950
        42.400
 116845498.095 8  91048429.45247  22234953.980    22234952.260          50.950
        46.200
 123093865.910 8  95917298.53246  23423979.720    23423976.300          48.450
        41.250
 112345468.589 8  87541930.12347  21378622.740    21378618.500          50.900
        46.550
 130248004.277 7 101491942.09745  24785368.100    24785363.480          45.100
        31.550
 121326524.689 8  94540124.08347  23087667.980    23087662.700          49.300
        43.050
 130652267.713 7 101806957.41746  24862298.400    24862295.680          45.900
        36.650
 115610589.351 8  90086170.08547  21999959.500    21999955.800          50.000
        44.400
 111006888.754 8  86498860.95847  21123897.980    21123891.540          50.750
        47.750
 116130953.331 8  90491643.37847  22098981.500    22098974.740          50.600
        44.550
 111891996.402 8  87188571.15147  21292332.500    21292328.440          50.600
        46.350
 11  9  5  0  6 15.0000000  0 12G12G13G25G29G04G20G31G05G30G02G23G10
 123165874.631 8  95973396.76947  23437685.780    23437681.460          48.900
        42.000
 117573137.278 8  91615420.39647  22373419.640    22373414.960          50.050
        42.600
 116865129.465 8  91063726.60547  22238689.740    22238688.080          51.000
        46.300
 123045434.846 8  95879560.03447  23414763.660    23414760.140          48.700
        42.000
 112379297.191 8  87568290.08847  21385060.120    21385055.900          50.750
        46.600
 130304647.174 7 101536079.41845  24796146.880    24796142.180          45.500
        34.050
 121345856.312 8  94555187.69747  23091346.620    23091341.240          49.150
        43.250
 130593166.247 7 101760904.33946  24851051.760    24851048.660          45.000
        37.700
 115622374.777 8  90095353.53647  22002202.240    22002198.560          49.950
        44.700
 110984584.952 8  86481481.37447  21119653.720    21119647.260          50.700
        47.750
 116126084.241 8  90487849.25747  22098054.900    22098048.200          50.700
        44.800
 111864911.681 8  87167466.18647  21287178.440    21287174.360          50.600
        46.650
 11  9  5  0  6 30.0000000  0 12G12G13G25G29G04G20G31G05G30G02G23G10
 123213400.891 8  96010430.21247  23446729.800    23446725.280          49.100
        42.000
 117539623.809 8  91589306.03847  22367042.320    22367037.600          50.050
        42.050
 116884910.835 8  91079140.64947  22242454.040    22242452.360          51.250
        46.300
 122997078.670 8  95841879.90047  23405561.900    23405558.340          49.000
        42.250
 112413246.757 8  87594744.31147  21391520.500    21391516.260          50.850
        46.600
 130361327.572 7 101580245.97245  24806932.820    24806928.000          44.750
        32.850
 121365330.551 8  94570362.43547  23095052.300    23095047.180          49.100
        43.750
 130534088.429 7 101714869.67246  24839809.640    24839806.780          44.900
        39.000
 115634329.891 8  90104669.20547  22004477.300    22004473.540          50.300
        44.600
 110962409.312 8  86464201.67047  21115433.820    21115427.380          50.750
        47.900
 116121372.259 8  90484177.56247  22097158.220    22097151.480          50.750
        44.900
 111837972.369 8  87146474.51947  21282052.120    21282047.980          50.700
        46.700
 11  9  5  0  6 45.0000000  0 12G12G13G25G29G04G20G31G05G30G02G23G10
 123261015.832 8  96047532.75947  23455790.620    23455786.160          48.850
        42.150
 117506249.497 8  91563300.05046  22360691.460    22360686.660          50.100
        41.650
 116904845.405 8  91094674.07647  22246247.460    22246245.780          51.050
        46.150
 122948800.961 8  95804260.92346  23396375.020    23396371.560          48.850
        41.350
 112447320.391 8  87621295.18647  21398004.480    21398000.280          50.900
        46.000
 130418048.254 7 101624443.91645  24817726.460    24817721.100          44.200
        32.550
 121384950.429 8  94585650.64747  23098785.680    23098780.940          49.150
        43.650
 130475037.942 7 101668856.32246  24828572.620    24828569.760          46.150
        37.400
 115646457.827 8  90114119.53247  22006785.240    22006781.380          50.300
        44.350
 110940365.137 8  86447024.39147  21111238.940    21111232.500          50.950
        47.750
 116116820.668 8  90480630.85347  22096292.060    22096285.300          50.750
        44.400
 111811182.078 8  87125599.01247  21276954.120    21276949.980          50.750
        46.750
 11  9  5  0  7  0.0000000  0 12G12G13G25G29G04G20G31G05G30G02G23G10
 123308717.993 8  96084703.25447  23464868.020    23464863.700          48.750
        42.200
 117473013.733 8  91537402.04647  22354366.940    22354362.060          49.750
        42.200
 116924931.674 8  91110325.70047  22250069.760    22250068.160          51.050
        46.300
 122900600.951 8  95766702.50647  23387202.780    23387199.580          48.400
        42.450
 112481516.712 8  87647941.67647  21404511.800    21404507.560          50.850
        46.450
 130474807.871 7 101668672.21645  24828527.480    24828522.240          44.950
        32.800
 121404714.817 8  94601051.47547  23102546.620    23102542.060          49.100
        43.800
 130416013.893 7 101622863.41546  24817340.720    24817337.800          45.800
        38.650
 115658757.424 8  90123703.61947  22009125.800    22009121.900          50.150
        44.550
 110918451.655 8  86429948.94047  21107068.960    21107062.460          50.950
        47.950
 116112428.564 8  90477208.45247  22095456.220    22095449.460          50.650
        44.650
 111784539.947 8  87104838.93447  21271884.280    21271880.120          50.650
        46.750
 11  9  5  0  7 15.0000000  0 12G12G13G25G29G04G20G31G05G30G02G23G10
 123356505.412 8  96121940.17946  23473961.700    23473957.480          48.700
        41.900
 117439915.294 8  91511611.02246  22348068.460    22348063.540          49.300
        41.950
 116945168.141 8  91126094.37147  22253920.660    22253919.100          51.000
        46.350
 122852477.461 8  95729203.70047  23378045.140    23378041.960          48.350
        42.650
 112515833.896 8  87674682.29847  21411042.140    21411037.900          50.850
        46.350
 130531604.757 7 101712929.57545  24839335.500    24839330.920          44.300
        31.500
 121424621.882 8  94616563.46647  23106334.820    23106330.340          49.200
        43.750
 130357015.392 7 101576890.46546  24806113.680    24806110.780          46.400
        38.650
 115671227.084 8  90133420.23647  22011498.680    22011494.800          50.000
        44.800
 110896667.575 8  86412974.33747  21102923.620    21102917.100          50.900
        47.950
 116108194.519 8  90473909.20247  22094650.500    22094643.740          50.700
        44.550
 111758044.730 8  87084193.35047  21266842.400    21266838.140          50.600
        46.750
 11  9  5  0  7 30.0000000  0 12G12G13G25G29G04G20G31G05G30G02G23G10
 123404378.539 8  96159243.91446  23483071.680    23483067.480          48.750
        41.850
 117406955.281 8  91485927.92946  22341796.260    22341791.400          49.250
        41.650
 116965555.295 8  91141980.46247  22257800.240    22257798.700          50.950
        46.050
 122804431.555 8  95691765.34347  23368902.320    23368899.060          48.250
        42.400
 112550272.618 8  87701517.64647  21417595.640    21417591.340          50.900
        46.400
 130588439.075 7 101757216.03745  24850150.740    24850146.260          43.700
        32.100
 121444672.257 8  94632187.12947  23110150.300    23110145.880          49.050
        43.100
 130298043.229 7 101530938.04046  24794891.700    24794888.880          45.650
        38.300
 115683867.379 8  90143269.81847  22013903.980    22013900.200          49.950
        44.350
 110875013.839 8  86396101.29248  21098803.040    21098796.600          50.850
        48.050
 116104119.186 8  90470733.63047  22093875.020    22093868.280          50.800
        44.500
 111731697.270 8  87063662.90147  21261828.660    21261824.280          50.650
        46.550
 11  9  5  0  7 45.0000000  0 12G12G13G25G29G04G20G31G05G30G02G23G10
 123452338.580 8  96196615.36746  23492198.140    23492193.920          48.750
        41.600
 117374135.215 8  91460353.91146  22335550.640    22335545.840          49.000
        41.100
 116986094.522 8  91157985.04247  22261708.740    22261707.140          50.900
        46.000
 122756465.110 8  95654388.89546  23359774.640    23359771.200          48.250
        41.550
 112584834.230 8  87728448.77047  21424172.540    21424168.260          50.800
        46.250
 130645312.355 7 101801532.95345  24860973.300    24860969.000          43.050
        30.100
 121464867.340 8  94647923.53647  23113993.280    23113988.880          49.050
        43.450
 130239099.525 7 101485007.86046  24783675.200    24783672.080          45.750
        38.050
 115696679.704 8  90153253.43847  22016342.000    22016338.240          50.100
        43.800
 110853492.172 8  86379331.17047  21094707.600    21094701.180          50.850
        47.900
 116100204.235 8  90467683.03347  22093130.060    22093123.400          50.700
        44.550
 111705499.305 8  87043248.93347  21256843.320    21256838.900          50.450
        46.350
 11  9  5  0  8  0.0000000  0 12G12G13G25G29G04G20G31G05G30G02G23G10
 123500380.469 8  96234050.56646  23501340.240    23501336.080          48.950
        41.550
 117341450.922 8  91434885.75046  22329330.880    22329326.180          49.350
        41.300
 117006780.948 8  91174104.33147  22265645.220    22265643.560          51.000
        45.950
 122708573.778 7  95617070.98247  23350661.160    23350657.640          47.950
        42.200
 112619513.575 8  87755471.63847  21430771.820    21430767.680          50.850
        46.300
 130702219.555 7 101845876.30445  24871802.400    24871798.060          43.600
        33.050
 121485202.238 8  94663768.89947  23117862.880    23117858.380          49.100
        43.400
 130180179.505 7 101439096.14246  24772463.180    24772460.080          45.850
        38.800
 115709659.303 8  90163367.40547  22018811.900    22018808.080          49.950
        44.450
 110832097.995 8  86362660.40947  21090636.400    21090630.020          50.950
        47.800
 116096445.003 8  90464753.75947  22092414.760    22092408.160          50.900
        45.100
 111679446.439 8  87022948.03947  21251885.620    21251881.180          50.700
        46.300
 11  9  5  0  8 15.0000000  0 12G12G13G25G29G04G20G31G05G30G02G23G10
 123548510.787 8  96271554.72346  23510499.200    23510495.060          49.150
        41.150
 117308909.383 8  91409528.72746  22323138.380    22323133.600          49.950
        41.800
 117027621.255 8  91190343.52147  22269610.940    22269609.260          51.250
        45.700
 122660764.687 8  95579817.18246  23341563.240    23341559.880          48.450
        41.200
 112654317.265 8  87782591.40147  21437394.740    21437390.660          51.000
        46.100
 130759166.882 7 101890250.80745  24882639.120    24882634.500          42.950
        33.400
 121505683.657 8  94679728.42247  23121760.340    23121755.800          49.550
        43.150
 130121290.466 7 101393208.56946  24761257.040    24761254.060          46.450
        36.650
 115722812.885 8  90173616.95447  22021314.900    22021311.140          50.150
        44.350
 110810838.250 8  86346094.38647  21086590.780    21086584.420          51.150
        47.850
 116092848.318 8  90461951.14147  22091730.380    22091723.840          51.150
        45.050
 111653545.817 8  87002765.79647  21246956.860    21246952.460          50.850
        46.250
 11  9  5  0  8 30.0000000  0 12G12G13G25G29G04G20G31G05G30G02G23G10
 123596724.245 8  96309123.64946  23519673.960    23519669.660          48.800
        41.300
 117276506.398 8  91384279.68347  22316972.300    22316967.560          50.000
        42.000
 117048610.440 8  91206698.72347  22273605.000    22273603.300          50.950
        45.750
 122613033.231 8  95542623.86447  23332480.140    23332476.960          48.700
        42.750
 112689240.418 8  87809804.23547  21444040.380    21444036.320          50.950
        46.200
 130816149.633 7 101934652.92245  24893482.620    24893478.240          43.050
        33.050
 121526306.655 8  94695798.30147  23125684.800    23125680.160          49.450
        42.950
 130062427.904 7 101347341.56046  24750055.980    24750052.840          45.950
        38.050
 115736135.548 8  90183998.23347  22023850.080    22023846.320          50.100
        44.200
 110789708.444 8  86329629.62348  21082569.940    21082563.500          51.150
        48.050
 116089409.538 8  90459271.57947  22091076.060    22091069.580          50.950
        45.350
 111627792.615 8  86982698.41047  21242056.180    21242051.740          50.700
        46.450
 11  9  5  0  8 45.0000000  0 12G12G13G25G29G04G20G31G05G30G02G23G10
 123645022.026 8  96346758.27946  23528864.700    23528860.180          48.900
        41.400
 117244243.355 8  91359139.66347  22310832.920    22310828.120          50.250
        42.650
 117069749.763 8  91223170.91347  22277627.640    22277625.960          51.050
        45.700
 122565381.226 8  95505492.44247  23323412.260    23323409.120          48.850
        42.000
 112724284.077 8  87837110.95947  21450708.960    21450704.900          51.050
        46.200
 130873168.652 7 101979083.31645  24904332.920    24904328.500          42.650
        31.650
 121547072.387 8  94711979.39747  23129636.440    23129631.740          49.400
        43.150
 130003593.505 7 101301496.57846  24738860.200    24738856.980          45.900
        39.300
 115749628.556 8  90194512.26147  22026417.700    22026414.000          50.050
        44.550
 110768710.100 8  86313267.29348  21078574.120    21078567.580          51.150
        48.050
 116086129.902 8  90456716.01847  22090452.000    22090445.560          51.000
        45.450
 111602188.421 8  86962747.09747  21237183.820    21237179.320          50.650
        46.700
 11  9  5  0  9  0.0000000  0 12G12G13G25G29G04G20G31G05G30G02G23G10
 123693403.918 8  96384458.41446  23538071.460    23538066.840          48.200
        41.400
 117212120.842 8  91334109.10347  22304720.300    22304715.460          49.800
        42.950
 117091039.191 8  91239760.06847  22281678.820    22281677.260          50.350
        46.250
 122517809.235 8  95468423.37047  23314359.600    23314356.340          48.000
        42.600
 112759448.252 8  87864511.61747  21457400.500    21457396.300          50.600
        46.400
 130930224.114 6 102023542.15745  24915190.300    24915185.740          41.650
        35.850
 121567980.996 8  94728271.82247  23133615.320    23133610.440          48.850
        43.550
 129944787.635 7 101255673.76946  24727669.880    24727666.800          43.700
        40.100
 115763291.943 8  90205159.05247  22029017.780    22029014.060          49.550
        44.800
 110747843.552 8  86297007.66248  21074603.380    21074596.780          50.600
        48.350
 116083009.654 8  90454284.65847  22089858.320    22089851.880          50.400
        45.450
 111576733.744 8  86942912.29247  21232339.880    21232335.400          50.000
        46.550
 11  9  5  0  9 15.0000000  0 12G12G13G25G29G04G20G31G05G30G02G23G10
 123741867.503 8  96422222.21546  23547293.760    23547289.160          48.350
        41.950
 117180137.007 8  91309186.59547  22298634.080    22298629.220          49.900
        43.250
 117112476.415 8  91256464.39247  22285758.140    22285756.680          50.550
        46.250
 122470315.357 7  95431415.18247  23305321.780    23305318.620          47.650
        42.700
 112794730.405 8  87892004.21047  21464114.500    21464110.220          50.700
        46.550
 130987313.456 6 102068027.37145  24926054.040    24926049.360          41.000
        33.700
 121589029.912 8  94744673.56047  23137620.980    23137615.900          49.100
        43.750
 129886008.815 7 101209872.17346  24716484.700    24716481.580          45.400
        38.050
 115777123.501 8  90215936.88347  22031649.860    22031646.160          49.650
        44.800
 110727106.840 8  86280849.20048  21070657.360    21070650.680          50.800
        48.250
 116080046.833 8  90451975.96547  22089294.560    22089288.040          50.600
        45.550
 111551426.628 8  86923192.46147  21227524.000    21227519.660          50.050
        47.100
 11  9  5  0  9 30.0000000  0 12G12G13G25G29G04G20G31G05G30G02G23G10
 123790415.583 8  96460051.85346  23556532.140    23556527.700          48.400
        41.550
 117148295.459 8  91284375.00647  22292574.920    22292570.020          50.150
        42.950
 117134064.355 8  91273286.14747  22289866.160    22289864.720          50.700
        46.150
 122422902.926 7  95394470.46247  23296299.360    23296296.360          47.700
        42.250
 112830133.400 8  87919590.93947  21470851.480    21470847.140          50.750
        46.000
 131044439.727 6 102112541.44545  24936924.780    24936920.220          40.000
        34.000
 121610222.175 8  94761186.99747  23141653.900    23141648.660          49.350
        43.350
 129827260.282 7 101164094.18446  24705305.160    24705301.920          45.950
        38.350
 115791126.150 8  90226848.03647  22034314.480    22034310.860          50.050
        44.300
 110706503.355 8  86264794.54848  21066736.700    21066729.920          50.900
        48.050
 116077244.649 8  90449792.44247  22088761.360    22088754.720          50.600
        45.350
 111526270.406 8  86903590.23047  21222736.840    21222732.620          50.200
        46.700
 11  9  5  0  9 45.0000000  0 12G12G13G25G29G04G20G31G05G30G02G23G10
 123839047.089 8  96497946.52746  23565786.460    23565782.080          48.800
        41.250
 117116595.517 8  91259673.76247  22286542.720    22286537.780          50.200
        42.650
 117155802.049 8  91290224.59747  22294002.740    22294001.280          50.950
        46.000
 122375571.550 8  95357588.89647  23287292.420    23287289.480          48.250
        42.500
 112865656.449 8  87947271.23147  21477611.260    21477607.000          50.850
        46.150
 131101601.397 6 102157082.89546  24947802.220    24947797.420          40.400
        37.400
 121631556.776 8  94777811.36147  23145713.840    23145708.600          49.600
        43.000
 129768541.496 7 101118339.34146  24694131.240    24694128.140          45.400
        38.900
 115805298.962 8  90237891.76947  22037011.500    22037007.920          50.150
        44.100
 110686032.377 8  86248843.14547  21062841.220    21062834.440          50.950
        47.750
 116074602.257 8  90447733.40947  22088258.460    22088251.820          50.650
        44.950
 111501264.695 8  86884105.31647  21217978.320    21217974.180          50.400
        46.200
 11  9  5  0 10  0.0000000  0 12G12G13G25G29G04G20G31G05G30G02G23G10
 123887761.213 8  96535905.58946  23575056.480    23575052.140          48.650
        41.400
 117085037.047 8  91235082.66147  22280537.380    22280532.380          49.900
        42.550
 117177689.019 8  91307279.38847  22298167.740    22298166.240          50.850
        46.300
 122328321.298 8  95320770.53447  23278301.020    23278297.920          48.350
        42.900
 112901298.793 8  87975044.48647  21484393.720    21484389.680          50.600
        46.400
 131158798.112 6 102201651.70446  24958686.380    24958681.820          40.800
        38.200
 121653033.204 8  94794546.23747  23149800.800    23149795.500          49.350
        43.750
 129709852.548 7 101072607.76046  24682963.000    24682959.800          45.250
        39.100
 115819641.583 8  90249067.83247  22039740.840    22039737.240          49.950
        44.300
 110665693.808 8  86232994.93247  21058970.920    21058964.100          50.800
        47.950
 116072119.491 8  90445798.79147  22087785.900    22087779.320          50.350
        44.700
 111476409.350 8  86864737.56247  21213248.400    21213244.280          50.150
        46.600
 11  9  5  0 10 15.0000000  0 12G12G13G25G29G04G20G31G05G30G02G23G10
 123936556.932 8  96573928.19246  23584342.040    23584337.720          48.650
        41.300
 117053620.031 8  91210601.88547  22274558.920    22274553.960          49.850
        42.100
 117199724.458 8  91324449.86147  22302361.040    22302359.480          51.150
        45.950
 122281151.858 8  95284015.14347  23269325.000    23269321.900          48.600
        42.650
 112937059.611 8  88002910.06147  21491198.720    21491194.780          50.750
        46.150
 131216028.940 6 102246247.14445  24969577.020    24969572.440          41.150
        35.850
 121674650.754 8  94811391.08747  23153914.560    23153909.400          49.400
        43.600
 129651192.907 7 101026898.96846  24671800.340    24671797.120          45.900
        38.900
 115834153.135 8  90260375.52847  22042502.360    22042498.720          50.150
        44.300
 110645487.185 8  86217249.51747  21055125.700    21055118.920          50.850
        47.850
 116069795.604 8  90443987.96747  22087343.600    22087337.060          50.450
        44.250
 111451703.667 8  86845486.38947  21208546.980    21208543.000          50.250
        46.600
 11  9  5  0 10 30.0000000  0 12G12G13G25G29G04G20G31G05G30G02G23G10
 123985434.991 7  96612014.97347  23593643.220    23593638.960          47.850
        42.100
 117022345.641 8  91186232.26647  22268607.580    22268602.640          49.300
        42.800
 117221909.071 8  91341736.56547  22306582.760    22306581.180          50.750
        46.600
 122234064.441 8  95247323.66647  23260364.580    23260361.600          48.100
        42.800
 112972939.606 8  88030868.50147  21498026.440    21498022.500          50.450
        46.700
 131273294.599 6 102290869.69045  24980474.320    24980470.040          41.500
        35.900
 121696410.148 8  94828346.46547  23158055.280    23158050.140          48.950
        43.750
 129592563.890 7 100981214.02346  24660643.620    24660640.560          44.950
        40.650
 115848834.521 8  90271815.54947  22045296.220    22045292.560          49.700
        44.900
 110625413.625 8  86201607.80548  21051305.760    21051299.060          50.350
        48.350
 116067631.709 8  90442301.81447  22086931.720    22086925.220          49.950
        44.900
 111427148.876 8  86826352.76747  21203874.300    21203870.420          49.850
        47.150
 11  9  5  0 10 45.0000000  0 12G12G13G25G29G04G20G31G05G30G02G23G10
 124034393.364 8  96650164.33046  23602959.660    23602955.480          48.400
        41.600
 116991212.412 8  91161972.61947  22262683.080    22262678.120          49.700
        42.350
 117244241.080 8  91359138.13047  22310832.520    22310830.860          51.050
        46.200
 122187057.725 8  95210695.06947  23251419.480    23251416.420          48.300
        43.000
 113008936.833 8  88058918.28647  21504876.540    21504872.460          50.850
        46.200
 131330593.248 7 102335517.95245  24991377.880    24991373.420          43.050
        35.100
 121718309.573 8  94845410.95047  23162222.560    23162217.380          49.250
        43.350
 129533964.230 7 100935551.97546  24649492.540    24649489.460          45.850
        38.850
 115863683.933 8  90283386.51547  22048122.040    22048118.320          49.850
        44.600
 110605471.711 8  86186068.65347  21047510.840    21047504.240          50.700
        47.800
 116065626.167 8  90440739.05147  22086550.020    22086543.520          50.300
        44.600
 111402743.758 8  86807335.79847  21199230.180    21199226.280          50.300
        46.850
 11  9  5  0 11  0.0000000  0 12G12G13G25G29G04G20G31G05G30G02G23G10
 124083431.744 8  96688376.03246  23612291.380    23612287.240          48.600
        40.900
 116960220.725 8  91137823.25647  22256785.500    22256780.500          49.600
        42.200
 117266720.295 8  91376654.39847  22315110.300    22315108.520          50.950
        46.200
 122140132.158 8  95174129.70847  23242489.740    23242486.620          48.200
        42.200
 113045051.129 8  88087059.29347  21511748.920    21511744.680          50.750
        46.000
 131387924.666 7 102380191.83546  25002287.760    25002283.320          44.050
        37.150
 121740348.911 8  94862584.45647  23166416.500    23166411.220          49.300
        43.350
 129475394.164 7 100889912.99546  24638347.060    24638343.800          44.600
        39.300
 115878701.287 8  90295088.34147  22050979.800    22050975.960          50.000
        44.300
 110585661.602 8  86170632.21247  21043741.040    21043734.480          50.700
        47.900
 116063779.161 8  90439299.83447  22086198.500    22086192.000          50.600
        44.200
 111378488.280 8  86788435.38247  21194614.580    21194610.560          50.350
        46.550
 11  9  5  0 11 15.0000000  0 12G12G13G25G29G04G20G31G05G30G02G23G10
 124132552.986 7  96726652.30047  23621638.860    23621634.800          46.850
        43.000
 116929374.011 8  91113786.85647  22250915.540    22250910.500          48.250
        43.300
 117289349.660 8  91394287.64947  22319416.600    22319414.680          49.800
        47.100
 122093291.134 7  95137630.20147  23233576.160    23233572.820          46.900
        43.300
 113081285.271 8  88115293.68047  21518644.080    21518639.740          49.650
        47.250
 131445291.400 6 102424893.17646  25013204.320    25013199.840          41.600
        38.200
 121762531.033 8  94879869.22447  23170637.640    23170632.180          48.000
        44.600
 129416857.107 7 100844299.72746  24627207.820    24627204.600          44.500
        39.750
 115893889.556 8  90306923.34847  22053870.040    22053866.160          48.600
        45.850
 110565986.830 8  86155301.23248  21039996.980    21039990.440          49.550
        49.050
 116062093.780 8  90437986.55047  22085877.800    22085871.200          49.400
        46.000
 111354386.039 8  86769654.45448  21190028.140    21190024.020          49.200
        48.100
 11  9  5  0 11 30.0000000  0 12G12G13G25G29G04G20G31G05G30G02G23G10
 124181756.737 7  96764992.86747  23631002.040    23630998.100          47.250
        42.300
 116898672.577 8  91089863.69847  22245073.180    22245068.240          49.000
        42.900
 117312129.062 8  91412037.82447  22323751.380    22323749.380          50.150
        46.750
 122046534.900 7  95101196.76547  23224678.700    23224675.260          47.350
        43.150
 113117639.291 8  88143621.47747  21525561.940    21525557.620          50.000
        46.800
 131502693.198 6 102469621.80946  25024127.480    25024123.180          41.850
        37.950
 121784855.793 8  94897265.12947  23174885.880    23174880.400          48.700
        43.950
 129358353.497 7 100798712.51246  24616074.940    24616071.740          44.250
        40.900
 115909248.690 8  90318891.50447  22056792.740    22056788.920          49.350
        44.800
 110546447.465 8  86140075.76148  21036278.700    21036272.160          50.100
        48.600
 116060569.940 8  90436799.15147  22085587.860    22085581.160          50.250
        45.450
 111330437.147 8  86750992.99747  21185470.880    21185466.640          49.850
        47.700
 11  9  5  0 11 45.0000000  0 12G12G13G25G29G04G20G31G05G30G02G23G10
 124231036.105 8  96803392.35646  23640379.560    23640375.660          48.000
        41.850
 116868110.092 8  91066048.80547  22239257.300    22239252.420          49.700
        42.300
 117335051.721 8  91429899.63447  22328113.360    22328111.460          50.700
        45.950
 121999857.156 7  95064824.49347  23215796.240    23215792.960          47.900
        42.850
 113154106.071 8  88172037.14647  21532501.300    21532497.100          50.550
        46.000
 131560123.260 7 102514372.45846  25035056.060    25035051.660          44.200
        37.300
 121807316.482 8  94914766.95847  23179159.960    23179154.680          49.000
        43.750
 129299877.080 7 100753146.48246  24604947.300    24604943.960          46.550
        39.350
 115924771.891 8  90330987.50947  22059746.680    22059742.880          49.700
        44.500
 110527036.844 8  86124950.61348  21032584.960    21032578.420          50.600
        48.000
 116059201.111 8  90435732.53347  22085327.480    22085320.660          50.700
        45.200
 111306635.155 8  86732445.97147  21180941.580    21180937.220          50.300
        46.850
 11  9  5  0 12  0.0000000  0 12G12G13G25G29G04G20G31G05G30G02G23G10
 124280395.820 8  96841854.43946  23649772.360    23649768.460          48.100
        41.700
 116837691.850 8  91042346.26947  22233468.900    22233464.060          49.800
        43.050
 117358122.383 8  91447876.77347  22332503.480    22332501.720          50.750
        46.000
 121953263.462 8  95028517.74747  23206929.680    23206926.720          48.100
        43.300
 113190690.609 8  88200544.60847  21539463.100    21539459.020          50.700
        46.200
 131617586.482 7 102559148.92246  25045990.980    25045986.620          44.250
        37.250
 121829917.816 8  94932378.37847  23183460.680    23183455.740          48.800
        43.300
 129241433.256 7 100707605.88846  24593825.840    24593822.520          46.100
        39.850
 115940464.039 8  90343215.17447  22062732.760    22062728.920          50.000
        44.500
 110507760.380 8  86109930.00348  21028916.740    21028910.200          50.650
        48.100
 116057992.306 8  90434790.59847  22085097.540    22085090.520          50.750
        44.800
 111282985.294 8  86714017.46547  21176441.220    21176436.720          50.450
        46.800
 11  9  5  0 12 15.0000000  0 12G12G13G25G29G04G20G31G05G30G02G23G10
 124329836.198 8  96880379.40246  23659180.560    23659176.700          48.450
        41.500
 116807418.976 8  91018757.03447  22227708.180    22227703.400          50.250
        42.800
 117381341.710 8  91465969.74147  22336921.880    22336920.220          50.950
        45.750
 121906754.877 8  94992277.29747  23198079.340    23198076.460          48.650
        42.750
 113227393.350 8  88229144.17647  21546447.460    21546443.320          51.050
        46.100
 131675083.354 7 102603951.67045  25056932.300    25056927.960          45.400
        34.850
 121852660.485 8  94950099.92847  23187788.260    23187783.580          49.000
        43.400
 129183023.085 7 100662091.53746  24582710.720    24582707.320          46.900
        38.350
 115956325.833 8  90355575.02347  22065751.140    22065747.200          50.300
        44.100
 110488619.053 8  86095014.68348  21025274.240    21025267.740          50.900
        48.000
 116056944.468 8  90433974.09947  22084898.140    22084891.120          50.900
        44.600
 111259488.772 8  86695708.46447  21171970.040    21171965.460          50.800
        46.500
 11  9  5  0 12 30.0000000  0 12G12G13G25G29G04G20G31G05G30G02G23G10
 124379354.097 7  96918964.77346  23668603.420    23668599.660          47.850
        41.750
 116777288.891 8  90995279.04247  22221974.640    22221969.900          50.100
        43.200
 117404706.591 8  91484176.13147  22341367.980    22341366.340          50.850
        45.700
 121860328.885 8  94956101.21047  23189244.840    23189241.840          48.750
        43.000
 113264211.072 8  88257833.32447  21553453.660    21553449.500          50.900
        46.050
 131732610.769 7 102648778.24546  25067879.480    25067875.080          44.800
        36.350
 121875541.372 8  94967929.17847  23192142.180    23192137.800          49.050
        43.400
 129124643.884 7 100616601.30446  24571601.460    24571598.120          45.150
        39.600
 115972354.162 8  90368064.63447  22068801.220    22068797.260          50.150
        44.150
 110469610.068 8  86080202.50148  21021656.960    21021650.460          50.800
        48.100
 116056054.680 8  90433280.76447  22084728.760    22084721.840          50.700
        44.400
 111236142.696 8  86677516.69447  21167527.460    21167522.860          50.500
        46.800
 11  9  5  0 12 45.0000000  0 12G12G13G25G29G04G20G31G05G30G02G23G10
 124428951.264 8  96957611.87246  23678041.360    23678037.700          48.100
        41.300
 116747303.874 8  90971914.08847  22216268.700    22216263.980          50.100
        43.100
 117428218.999 8  91502497.47247  22345842.140    22345840.500          50.800
        45.850
 121813987.949 8  94919991.40847  23180426.560    23180423.320          48.800
        42.600
 113301145.789 8  88286613.66047  21560482.080    21560477.820          50.800
        46.000
 131790170.507 7 102693630.02846  25078832.780    25078828.540          44.900
        37.250
 121898562.490 8  94985867.70747  23196522.880    23196518.560          49.200
        43.150
 129066298.295 7 100571137.32146  24560498.560    24560495.320          45.100
        40.050
 115988551.090 8  90380685.61547  22071883.420    22071879.360          50.250
        43.950
 110450735.731 8  86065495.23848  21018065.280    21018058.760          50.750
        48.050
 116055325.194 8  90432712.33547  22084589.940    22084583.080          50.700
        44.600
 111212949.507 8  86659444.09647  21163113.980    21163109.320          50.450
        46.550
 11  9  5  0 13  0.0000000  0 12G12G13G25G29G04G20G31G05G30G02G23G10
 124478627.185 8  96996320.36446  23687494.380    23687490.640          48.000
        40.950
 116717464.088 8  90948662.28247  22210590.360    22210585.680          49.750
        43.550
 117451878.517 8  91520933.45447  22350344.320    22350342.740          50.550
        46.150
 121767732.034 8  94883947.82747  23171624.420    23171620.880          48.600
        43.400
 113338196.885 8  88315484.66047  21567532.580    21567528.260          50.650
        46.000
 131847762.057 7 102738506.56846  25089792.040    25089787.800          44.800
        38.000
 121921723.215 8  95003915.01147  23200930.200    23200925.820          49.050
        43.850
 129007986.159 7 100525699.40246  24549402.040    24549398.740          46.800
        38.300
 116004916.245 8  90393437.68247  22074997.620    22074993.560          50.100
        44.400
 110431996.040 8  86050892.89248  21014499.260    21014492.660          50.750
        48.050
 116054755.709 8  90432268.59347  22084481.600    22084474.740          50.750
        44.800
 111189908.975 8  86641490.43547  21158729.500    21158724.860          50.350
        46.850
 11  9  5  0 13 15.0000000  0 12G12G13G25G29G04G20G31G05G30G02G23G10
 124528381.367 7  97035089.84046  23696962.240    23696958.460          47.800
        40.750
 116687769.963 8  90925524.02347  22204939.740    22204935.060          49.650
        43.350
 117475684.823 8  91539483.82647  22354874.440    22354872.960          50.600
        46.000
 121721561.436 8  94847970.74947  23162838.440    23162834.920          48.100
        43.100
 113375364.050 8  88344446.08447  21574605.180    21574600.860          50.700
        45.850
 131905384.897 7 102783407.38546  25100757.340    25100753.140          45.550
        37.900
 121945023.354 8  95022070.95747  23205364.020    23205359.720          48.950
        43.400
 128949707.742 7 100480287.69946  24538311.980    24538308.680          46.300
        38.350
 116021449.365 8  90406320.63647  22078143.840    22078139.740          50.050
        44.350
 110413391.068 8  86036395.52948  21010958.860    21010952.200          50.700
        48.000
 116054346.294 8  90431949.58547  22084403.760    22084396.840          50.700
        44.150
 111167021.304 8  86623655.85747  21154374.100    21154369.500          50.350
        46.950
 11  9  5  0 13 30.0000000  0 12G12G13G25G29G04G20G31G05G30G02G23G10
 124578211.934 8  97073918.81446  23706444.620    23706440.820          48.000
        40.600
 116658219.822 8  90902497.90647  22199316.500    22199311.880          49.800
        43.100
 117499636.027 8  91558147.08847  22359432.160    22359430.780          50.600
        46.000
 121675474.660 8  94812058.98347  23154068.300    23154065.120          48.350
        43.300
 113412645.361 8  88373496.46247  21581699.560    21581695.240          51.000
        45.900
 131963037.198 7 102828331.24546  25111728.220    25111723.780          45.250
        37.250
 121968460.936 8  95040334.00647  23209824.000    23209819.800          49.000
        43.400
 128891461.644 7 100434901.25046  24527228.060    24527224.580          46.800
        36.750
 116038148.564 8  90419332.99747  22081321.620    22081317.500          50.200
        44.250
 110394919.364 8  86022002.00447  21007443.800    21007437.140          50.850
        47.850
 116054095.250 8  90431753.94647  22084356.020    22084349.040          50.850
        44.000
 111144284.957 8  86605939.21147  21150047.480    21150042.940          50.600
        46.650
 11  9  5  0 13 45.0000000  0 12G12G13G25G29G04G20G31G05G30G02G23G10
 124628119.484 8  97112807.80646  23715941.760    23715937.800          48.150
        40.700
 116628815.229 8  90879585.26747  22193720.960    22193716.300          50.000
        43.600
 117523732.971 8  91576923.93147  22364017.600    22364016.360          50.400
        46.100
 121629473.096 8  94776213.61947  23145314.560    23145311.520          49.050
        43.000
 113450041.652 8  88402636.42647  21588815.900    21588811.580          50.900
        46.300
 132020719.804 7 102873278.74746  25122704.860    25122700.340          45.250
        36.950
 121992037.032 8  95058705.00047  23214310.360    23214306.160          48.900
        43.300
 128833249.059 7 100389540.88046  24516150.480    24516147.020          46.900
        38.650
 116055014.750 8  90432475.48247  22084531.140    22084527.100          50.100
        44.250
 110376582.125 8  86007713.25447  21003954.320    21003947.700          50.800
        47.900
 116054003.613 8  90431682.56147  22084338.620    22084331.560          50.750
        44.400
 111121701.290 8  86588341.52347  21145749.920    21145745.500          50.250
        46.800
 11  9  5  0 14  0.0000000  0 12G12G13G25G29G04G20G31G05G30G02G23G10
 124678106.106 8  97151758.40446  23725454.020    23725449.920          48.300
        40.950
 116599558.770 8  90856788.09847  22188153.620    22188148.840          49.900
        42.900
 117547977.955 8  91595816.11647  22368631.260    22368629.980          50.650
        45.650
 121583559.783 8  94740437.05447  23136577.660    23136574.480          49.350
        43.150
 113487555.003 8  88431867.58747  21595954.520    21595950.280          50.800
        46.250
 132078434.926 7 102918251.56146  25133687.640    25133683.040          45.400
        37.350
 122015753.869 8  95077185.64847  23218823.500    23218819.180          49.000
        43.550
 128775072.900 7 100344208.82346  24505079.820    24505076.420          46.400
        39.550
 116072050.264 8  90445749.91747  22087772.900    22087768.860          50.150
        44.400
 110358381.914 8  85993531.28248  21000490.940    21000484.400          50.850
        48.050
 116054073.815 8  90431737.26447  22084352.000    22084344.820          50.800
        44.350
 111099273.179 8  86570865.08847  21141481.940    21141477.640          50.550
        46.900
 11  9  5  0 14 15.0000000  0 12G12G13G25G29G04G20G31G05G30G02G23G10
 124728167.164 8  97190767.00046  23734980.400    23734976.280          48.300
        41.250
 116570446.383 8  90834103.13247  22182613.680    22182608.840          49.950
        42.900
 117572366.487 8  91614820.15947  22373272.260    22373270.920          50.850
        45.950
 121537730.553 8  94704725.96847  23127856.820    23127853.240          49.350
        42.750
 113525181.081 8  88461186.61147  21603114.520    21603110.420          50.800
        45.850
 132136177.928 7 102963246.11945  25144675.760    25144671.060          45.800
        35.800
 122039606.895 8  95095772.38347  23223362.560    23223358.240          48.950
        42.800
 128716929.480 7 100298902.33746  24494015.380    24494012.100          45.400
        39.250
 116089250.657 8  90459152.80847  22091046.000    22091042.000          50.250
        44.300
 110340314.616 8  85979452.87247  20997052.860    20997046.320          50.900
        47.950
 116054301.576 8  90431914.72847  22084395.360    22084388.020          50.900
        44.250
 111076996.078 8  86553506.27747  21137242.740    21137238.500          50.600
        46.800
 11  9  5  0 14 30.0000000  0 12G12G13G25G29G04G20G31G05G30G02G23G10
 124778302.806 8  97229833.71846  23744520.920    23744516.940          48.100
        41.800
 116541478.689 8  90811530.89047  22177101.260    22177096.380          50.000
        42.500
 117596898.698 8  91633936.14747  22377940.640    22377939.260          50.850
        45.950
 121491986.126 8  94669080.96647  23119152.020    23119148.060          49.200
        43.100
 113562919.913 8  88490593.49347  21610295.880    21610291.900          50.550
        46.050
 132193948.735 7 103008262.39346  25155669.160    25155664.660          45.850
        37.100
 122063596.303 8  95114465.39347  23227927.600    23227923.260          49.050
        43.200
 128658819.271 7 100253621.73746  24482957.260    24482953.900          46.450
        38.350
 116106616.117 8  90472684.33547  22094350.520    22094346.580          50.150
        44.150
 110322380.875 8  85965478.53248  20993640.220    20993633.640          50.900
        48.000
 116054687.309 8  90432215.31547  22084468.740    22084461.320          50.650
        44.300
 111054870.781 8  86536265.78047  21133032.460    21133028.200          50.600
        46.850
 11  9  5  0 14 45.0000000  0 12G12G13G25G29G04G20G31G05G30G02G23G10
 124828516.501 8  97268961.24646  23754076.260    23754072.300          48.200
        41.200
 116512659.930 8  90789074.67547  22171617.240    22171612.400          50.100
        42.300
 117621578.321 8  91653167.00847  22382637.100    22382635.580          50.900
        45.750
 121446330.827 8  94633505.43747  23110464.080    23110460.160          49.250
        42.750
 113600775.189 8  88520091.08247  21617499.380    21617495.440          50.550
        45.550
 132251750.991 7 103053303.08146  25166668.560    25166664.000          45.600
        36.700
 122087725.726 8  95133267.53147  23232519.440    23232514.700          49.400
        43.100
 128600746.316 7 100208370.09246  24471906.280    24471903.000          46.150
        39.300
 116124150.428 8  90486347.42447  22097687.140    22097683.300          50.100
        44.250
 110304584.455 8  85951611.20947  20990253.720    20990247.060          50.950
        47.900
 116055234.952 8  90432642.03347  22084572.900    22084565.500          50.750
        43.950
 111032901.377 8  86519146.76847  21128851.860    21128847.560          50.750
        47.200
 11  9  5  0 15  0.0000000  0 12G12G13G25G29G04G20G31G05G30G02G23G10
 124878805.830 8  97308147.70346  23763646.020    23763642.080          48.350
        40.100
 116483988.280 8  90766733.11847  22166161.200    22166156.380          50.100
        42.350
 117646402.943 8  91672510.85947  22387361.200    22387359.580          50.950
        46.000
 121400762.568 8  94597997.71547  23101792.780    23101788.920          49.350
        43.600
 113638744.408 8  88549677.45747  21624724.580    21624720.600          50.700
        45.550
 132309582.359 7 103098366.44245  25177673.520    25177668.780          45.450
        35.900
 122111992.823 8  95152176.93547  23237137.560    23237132.380          49.650
        43.150
 128542708.881 7 100163146.17046  24460862.020    24460858.920          46.650
        38.950
 116141851.248 8  90500140.27547  22101055.480    22101051.680          50.050
        44.550
 110286923.353 8  85937849.31548  20986892.980    20986886.240          51.050
        48.250
 116055942.367 8  90433193.25147  22084707.480    22084700.180          50.750
        44.200
 111011085.859 8  86502147.63247  21124700.580    21124696.220          50.800
        46.750
 11  9  5  0 15 15.0000000  0 12G12G13G25G29G04G20G31G05G30G02G23G10
 124929169.099 8  97347391.80946  23773229.860    23773225.820          48.250
        41.100
 116455462.668 8  90744505.42547  22160732.980    22160728.200          50.050
        42.800
 117671371.085 8  91691966.54447  22392112.580    22392110.920          50.950
        46.050
 121355280.559 8  94562557.21547  23093137.900    23093134.140          49.250
        43.750
 113676826.010 8  88579351.42947  21631971.280    21631967.220          50.700
        45.550
 132367441.408 7 103143451.34845  25188683.800    25188678.920          45.400
        35.600
 122136396.167 8  95171192.53047  23241781.600    23241776.280          49.250
        43.550
 128484705.981 7 100117949.17846  24449824.400    24449821.280          46.800
        39.300
 116159717.112 8  90514061.72647  22104455.220    22104451.460          49.950
        44.400
 110269396.772 8  85924192.24748  20983557.820    20983551.000          50.950
        48.200
 116056808.370 8  90433868.06347  22084872.220    22084865.060          50.450
        44.550
 110989423.226 8  86485267.68347  21120578.400    21120574.020          50.800
        47.400
 11  9  5  0 15 30.0000000  0 12G12G13G25G29G04G20G31G05G30G02G23G10
 124979607.155 8  97386694.17446  23782827.900    23782823.880          48.100
        40.850
 116427084.620 8  90722392.69747  22155332.840    22155328.060          50.200
        43.050
 117696483.804 8  91711534.87647  22396891.460    22396889.760          50.900
        45.900
 121309886.262 8  94527185.05447  23084499.700    23084495.920          49.200
        43.400
 113715021.013 8  88609113.77247  21639239.620    21639235.480          50.800
        45.750
 132425329.116 7 103188558.71245  25199699.480    25199694.800          45.050
        34.950
 122160936.762 8  95190315.03247  23246451.560    23246446.480          49.050
        43.150
 128426739.182 7 100072780.24546  24438793.680    24438790.400          47.200
        39.750
 116177749.125 8  90528112.62347  22107886.600    22107882.840          50.000
        44.550
 110252006.076 8  85910641.04948  20980248.500    20980241.620          50.950
        48.100
 116057834.053 8  90434667.29147  22085067.320    22085060.340          50.550
        45.000
 110967914.734 8  86468507.81747  21116485.540    21116481.120          50.750
        47.100
 11  9  5  0 15 45.0000000  0 12G12G13G25G29G04G20G31G05G30G02G23G10
 125030119.944 7  97426054.75646  23792440.160    23792436.160          47.750
        40.850
 116398854.580 8  90700395.27047  22149960.860    22149956.020          50.100
        43.100
 117721741.091 8  91731215.87147  22401697.840    22401696.100          50.900
        45.900
 121264580.312 8  94491881.72547  23075878.180    23075874.420          48.400
        42.950
 113753329.465 8  88638964.50947  21646529.520    21646525.400          50.800
        45.750
 132483245.450 7 103233688.43845  25210720.640    25210715.920          44.800
        35.600
 122185614.556 8  95209544.45147  23251147.440    23251142.780          48.600
        43.350
 128368809.059 7 100027639.89246  24427769.980    24427766.560          46.800
        40.400
 116195947.329 8  90542293.04347  22111349.620    22111345.940          50.000
        44.250
 110234751.576 8  85897195.98748  20976965.100    20976958.220          50.850
        48.050
 116059019.650 8  90435591.12647  22085292.840    22085286.160          50.350
        44.650
 110946560.803 8  86451868.40647  21112422.060    21112417.600          50.650
        47.250
 11  9  5  0 16  0.0000000  0 12G12G13G25G29G04G20G31G05G30G02G23G10
 125080705.170 7  97465471.79746  23802066.180    23802062.260          47.950
        41.050
 116370770.979 8  90678511.97747  22144616.740    22144611.940          50.200
        43.200
 117747140.754 8  91751007.81747  22406531.260    22406529.540          50.850
        45.850
 121219361.040 8  94456645.95747  23067273.060    23067269.320          48.250
        43.200
 113791748.948 8  88668901.76047  21653840.540    21653836.540          50.700
        46.000
 132541187.826 7 103278838.36845  25221746.740    25221741.920          45.300
        33.000
 122210427.286 8  95228879.01747  23255869.000    23255864.680          48.700
        43.250
 128310913.860 7  99982526.74946  24416752.980    24416749.500          47.500
        38.650
 116214309.605 8  90556601.31447  22114843.840    22114840.140          49.950
        44.300
 110217631.457 8  85883855.64247  20973707.260    20973700.460          50.900
        47.950
 116060363.275 8  90436638.09947  22085548.360    22085541.940          50.300
        44.600
 110925359.635 8  86435348.02947  21108387.620    21108383.100          50.650
        47.100
 11  9  5  0 16 15.0000000  0 12G12G13G25G29G04G20G31G05G30G02G23G10
 125131366.261 7  97504947.95146  23811706.680    23811702.900          47.850
        40.750
 116342837.851 8  90656745.92847  22139301.300    22139296.420          50.150
        43.300
 117772686.440 8  91770913.53347  22411392.460    22411390.700          50.850
        45.850
 121174232.640 8  94421480.99247  23058685.320    23058681.600          48.700
        43.200
 113830283.225 8  88698928.43947  21661173.360    21661169.460          50.600
        45.800
 132599160.066 7 103324011.55045  25232778.480    25232773.740          45.450
        35.200
 122235378.772 8  95248321.68547  23260617.060    23260612.840          48.800
        43.350
 128253057.685 7  99937443.96446  24405743.360    24405739.820          47.250
        39.050
 116232839.554 8  90571040.22747  22118369.960    22118366.240          50.250
        43.850
 110200649.673 8  85870623.07748  20970475.760    20970468.940          50.850
        48.150
 116061868.688 8  90437811.13947  22085834.700    22085828.540          50.200
        44.800
 110904315.268 8  86418949.81447  21104382.960    21104378.540          50.600
        47.200
 11  9  5  0 16 30.0000000  0 12G12G13G25G29G04G20G31G05G30G02G23G10
 125182098.775 8  97544479.80546  23821360.820    23821357.040          48.350
        40.050
 116315051.123 8  90635093.94547  22134013.660    22134008.740          50.550
        42.950
 117798373.676 8  91790929.56747  22416280.560    22416278.840          51.000
        45.600
 121129191.061 8  94386383.65447  23050114.160    23050110.600          49.400
        43.100
 113868927.689 8  88729040.98547  21668527.140    21668523.300          50.850
        45.350
 132657157.799 7 103369204.72145  25243815.080    25243810.160          45.250
        34.600
 122260464.451 8  95267868.90047  23265390.800    23265386.460          49.400
        42.900
 128195236.551 7  99892388.42646  24394740.420    24394736.780          46.800
        40.200
 116251532.850 8  90585606.42847  22121927.180    22121923.460          50.450
        43.550
 110183802.158 8  85857495.14347  20967269.780    20967262.940          51.100
        47.750
 116063531.657 8  90439106.96647  22086151.040    22086145.040          50.550
        44.800
 110883423.575 8  86402670.57947  21100407.360    21100403.020          50.850
        46.850
 11  9  5  0 16 45.0000000  0 12G12G13G25G29G04G20G31G05G30G02G23G10
 125232905.089 7  97584069.14646  23831028.960    23831025.140          47.750
        40.550
 116287414.101 8  90613558.62347  22128754.480    22128749.540          50.200
        43.400
 117824205.108 8  91811057.95747  22421196.060    22421194.400          50.750
        45.700
 121084239.500 8  94351356.47647  23041560.220    23041556.760          48.850
        43.300
 113907684.907 8  88759241.39547  21675902.400    21675898.540          50.600
        45.500
 132715183.312 7 103414419.40945  25254856.940    25254852.020          44.400
        34.650
 122285687.016 8  95287522.78947  23270190.680    23270186.100          49.250
        43.050
 128137453.910 7  99847362.95246  24383744.760    24383741.240          46.400
        39.250
 116270392.082 8  90600301.94447  22125515.980    22125512.260          50.100
        44.400
 110167091.928 8  85844474.20148  20964089.880    20964083.040          50.850
        48.100
 116065355.126 8  90440527.83847  22086497.960    22086492.100          50.200
        45.000
 110862687.651 8  86386512.70847  21096461.400    21096457.100          50.450
        46.900
 11  9  5  0 17  0.0000000  0 12G12G13G25G29G04G20G31G05G30G02G23G10
 125283783.128 8  97623714.36646  23840710.700    23840706.820          48.600
        40.350
 116259925.218 8  90592138.72547  22123523.480    22123518.620          50.550
        43.000
 117850178.764 8  91831297.19147  22426138.660    22426137.000          51.250
        45.100
 121039376.466 8  94316398.27847  23033022.980    23033019.640          49.200
        42.450
 113946552.879 8  88789528.12047  21683298.800    21683294.780          51.250
        45.100
 132773234.603 7 103459654.24945  25265903.680    25265898.540          46.150
        33.750
 122311044.544 8  95307281.88947  23275016.220    23275011.360          49.900
        42.300
 128079708.298 7  99802366.39946  24372756.080    24372752.680          47.650
        38.800
 116289415.379 8  90615125.29047  22129135.980    22129132.260          50.600
        43.500
 110150517.452 8  85831559.02747  20960935.800    20960928.960          51.300
        47.600
 116067337.406 8  90442072.47047  22086875.100    22086869.400          50.650
        44.400
 110842106.000 8  86370475.07047  21092544.760    21092540.480          50.950
        46.600
 11  9  5  0 17 15.0000000  0 12G12G13G25G29G04G20G31G05G30G02G23G10
 125334735.545 8  97663417.54546  23850406.640    23850402.740          48.300
        40.300
 116232587.746 8  90570836.81947  22118321.260    22118316.480          50.250
        43.150
 117876297.389 8  91851649.38247  22431108.820    22431107.220          50.850
        45.650
 120994605.356 8  94281511.70947  23024503.180    23024499.740          48.900
        42.600
 113985534.474 8  88819903.40347  21690716.840    21690712.600          50.850
        45.750
 132831314.212 7 103504910.98245  25276955.860    25276950.960          43.000
        35.850
 122336539.729 8  95327148.25747  23279867.900    23279862.860          49.100
        43.100
 128022002.777 7  99757401.02946  24361775.020    24361771.740          47.150
        38.750
 116308605.491 8  90630078.63447  22132787.760    22132783.980          50.250
        43.700
 110134081.695 8  85818751.94847  20957808.120    20957801.340          50.900
        47.900
 116069481.272 8  90443743.00847  22087283.020    22087277.440          50.300
        45.000
 110821681.777 8  86354560.10947  21088658.080    21088653.840          50.600
        46.850
 11  9  5  0 17 30.0000000  0 12G12G13G25G29G04G20G31G05G30G02G23G10
 125385757.522 8  97703174.91446  23860115.820    23860111.820          48.000
        40.500
 116205397.422 8  90549649.59547  22113147.120    22113142.260          50.450
        43.300
 117902556.249 8  91872110.84247  22436105.660    22436104.080          50.950
        45.300
 120949922.018 8  94246693.53047  23016000.220    23015996.660          49.400
        42.800
 114024624.786 8  88850363.39147  21698155.560    21698151.200          50.900
        45.050
 132889417.631 7 103550186.42345  25288012.480    25288007.500          45.300
        32.900
 122362167.896 8  95347118.26547  23284744.740    23284739.860          48.850
        43.400
 127964333.217 7  99712463.71546  24350800.800    24350797.560          47.550
        39.100
 116327957.822 8  90645158.37847  22136470.420    22136466.540          50.150
        44.050
 110117780.407 8  85806049.65647  20954706.060    20954699.340          50.950
        47.900
 116071782.302 8  90445536.00147  22087720.900    22087715.440          50.400
        44.550
 110801410.506 8  86338764.35147  21084800.520    21084796.300          50.700
        47.000
 11  9  5  0 17 45.0000000  0 12G12G13G25G29G04G20G31G05G30G02G23G10
 125436852.873 7  97742989.44046  23869838.920    23869834.900          47.900
        40.350
 116178358.762 8  90528580.52347  22108001.860    22107996.940          50.450
        43.150
 117928959.421 8  91892684.74047  22441130.020    22441128.380          50.850
        44.900
 120905331.066 8  94211947.34247  23007514.940    23007511.180          49.450
        42.250
 114063828.055 8  88880911.42947  21705615.720    21705611.380          50.800
        45.650
 132947549.096 7 103595483.73846  25299074.480    25299069.600          42.300
        37.050
 122387933.059 8  95367195.00347  23289647.640    23289642.940          49.000
        42.700
 127906704.170 7  99667557.93046  24339834.280    24339831.220          47.250
        38.600
 116347476.411 8  90660367.65247  22140184.700    22140180.680          50.250
        43.700
 110101618.025 8  85793455.59647  20951630.420    20951623.760          50.950
        47.900
 116074244.759 8  90447454.78647  22088189.500    22088184.120          50.300
        45.050
 110781296.566 8  86323091.13147  21080972.900    21080968.740          50.650
        47.100
 11  9  5  0 18  0.0000000  0 12G12G13G25G29G04G20G31G05G30G02G23G10
 125488016.671 8  97782857.30846  23879575.060    23879571.120          48.000
        40.050
 116151467.295 8  90507626.12347  22102884.640    22102879.640          50.600
        43.250
 117955502.053 8  91913367.32147  22446180.920    22446179.200          50.850
        45.350
 120860828.097 8  94177269.71447  22999046.380    22999042.640          49.100
        43.250
 114103139.152 8  88911543.48347  21713096.340    21713092.140          50.850
        45.600
 133005703.339 7 103640798.75545  25310140.820    25310136.440          44.800
        34.900
 122413830.447 8  95387374.79047  23294575.760    23294571.160          48.950
        42.950
 127849111.377 7  99622680.45446  24328874.720    24328871.820          47.000
        39.900
 116367156.445 8  90675702.74247  22143929.680    22143925.720          50.200
        43.850
 110085590.059 8  85780966.27848  20948580.380    20948573.740          51.050
        48.000
 116076863.984 8  90449495.73147  22088687.920    22088682.560          50.400
        44.950
 110761335.527 8  86307537.08047  21077174.440    21077170.260          50.750
        46.950
 11  9  5  0 18 15.0000000  0 12G12G13G25G29G04G20G31G05G30G02G23G10
 125539253.466 8  97822782.06146  23889325.140    23889321.140          48.100
        39.250
 116124728.014 8  90486790.33247  22097796.320    22097791.340          50.400
        43.250
 117982188.579 8  91934162.01847  22451259.220    22451257.480          50.850
        45.200
 120816418.044 8  94142664.49047  22990595.380    22990591.740          49.000
        43.600
 114142562.275 8  88942262.78047  21720598.280    21720594.180          50.700
        45.500
 133063884.940 7 103686135.26245  25321212.380    25321207.800          42.350
        30.850
 122439864.397 8  95407660.98147  23299529.760    23299525.280          48.750
        42.900
 127791559.895 7  99577835.16546  24317923.120    24317920.240          47.300
        39.050
 116387002.473 8  90691167.17347  22147706.260    22147702.300          50.200
        44.250
 110069701.386 8  85768585.48747  20945556.880    20945550.260          50.900
        47.950
 116079644.665 8  90451662.48347  22089217.140    22089211.660          50.650
        44.900
 110741532.380 8  86292106.05947  21073406.060    21073401.800          50.700
        46.750
 11  9  5  0 18 30.0000000  0 12G12G13G25G29G04G20G31G05G30G02G23G10
 125590560.411 8  97862761.48146  23899088.640    23899084.580          48.050
        40.600
 116098138.953 8  90466071.59747  22092736.600    22092731.640          50.350
        43.050
 118009016.513 8  91955066.90847  22456364.420    22456362.660          50.750
        45.650
 120772099.146 8  94108130.29047  22982161.720    22982158.140          48.900
        43.050
 114182095.177 8  88973067.62247  21728121.120    21728117.080          50.750
        45.750
 133122091.342 7 103731490.86945  25332288.540    25332283.900          42.100
        32.100
 122466032.482 8  95428051.67247  23304509.200    23304504.840          48.550
        43.250
 127734047.678 7  99533020.48146  24306978.980    24306976.060          47.300
        39.450
 116407011.953 8  90706758.97247  22151514.000    22151510.000          50.200
        44.100
 110053949.774 8  85756311.50448  20942559.480    20942552.880          50.850
        48.300
 116082584.445 8  90453953.22847  22089776.680    22089771.000          50.650
        45.250
 110721884.988 8  86276796.42547  21069667.360    21069662.980          50.800
        46.950
 11  9  5  0 18 45.0000000  0 12G12G13G25G29G04G20G31G05G30G02G23G10
 125641937.075 7  97902795.23646  23908865.360    23908861.300          47.950
        40.050
 116071700.192 8  90445469.98247  22087705.460    22087700.420          50.250
        42.500
 118035985.512 8  91976081.71347  22461496.480    22461494.820          50.950
        45.050
 120727871.453 8  94073667.15747  22973745.420    22973741.820          48.900
        43.450
 114221737.525 8  89003957.74547  21735664.820    21735660.820          50.800
        45.400
 133180321.948 7 103776865.39645  25343369.320    25343364.760          44.350
        35.350
 122492334.518 8  95448546.76547  23309514.180    23309509.600          48.650
        42.100
 127676574.950 7  99488236.59146  24296042.220    24296039.240          46.550
        40.300
 116427184.631 8  90722477.94447  22155352.780    22155348.780          50.300
        43.800
 110038335.256 8  85744144.34747  20939588.120    20939581.540          50.850
        47.700
 116085683.342 8  90456367.94547  22090366.540    22090360.620          50.700
        44.750
 110702393.462 8  86261608.23147  21065958.340    21065953.860          50.800
        46.650
 11  9  5  0 19  0.0000000  0 12G12G13G25G29G04G20G31G05G30G02G23G10
 125693383.452 7  97942883.30246  23918655.300    23918651.200          47.750
        39.950
 116045412.237 8  90424985.89047  22082703.040    22082697.960          50.250
        42.900
 118063095.646 8  91997206.47447  22466655.420    22466653.800          50.850
        45.450
 120683735.790 8  94039275.74747  22965346.680    22965343.060          49.000
        43.450
 114261489.230 8  89034933.08547  21743229.340    21743225.240          50.750
        45.300
 133238576.938 7 103822258.93445  25354454.840    25354450.420          44.050
        34.050
 122518770.397 8  95469146.14146  23314544.780    23314539.840          48.800
        41.950
 127619142.218 7  99443483.81946  24285113.080    24285109.920          45.450
        40.050
 116447520.659 8  90738324.19547  22159222.620    22159218.700          50.000
        43.850
 110022858.323 8  85732084.40547  20936642.940    20936636.340          50.850
        47.950
 116088941.588 8  90458906.85247  22090986.740    22090980.460          51.000
        44.900
 110683058.198 8  86246541.77147  21062279.040    21062274.480          50.800
        46.650
 11  9  5  0 19 15.0000000  0 12G12G13G25G29G04G20G31G05G30G02G23G10
 125744899.284 7  97983025.47846  23928458.400    23928454.280          47.400
        40.100
 116019275.380 8  90404619.51247  22077729.320    22077724.240          50.100
        43.150
 118090346.437 8  92018440.85647  22471841.080    22471839.520          50.750
        45.650
 120639692.027 8  94004955.95447  22956965.340    22956961.800          48.450
        43.850
 114301349.912 8  89065993.36747  21750814.540    21750810.380          50.400
        45.000
 133296855.744 6 103867670.97245  25365544.880    25365540.560          41.800
        31.600
 122545339.614 8  95489849.42747  23319600.780    23319595.500          48.700
        42.850
 127561749.532 7  99398762.28646  24274191.580    24274188.280          46.700
        38.950
 116468019.481 8  90754297.30147  22163123.440    22163119.540          50.050
        44.050
 110007518.979 8  85720131.67448  20933723.960    20933717.360          50.850
        48.150
 116092358.827 8  90461569.62247  22091637.240    22091630.640          51.000
        45.450
 110663879.073 8  86231596.96647  21058629.440    21058624.820          50.650
        47.000
 11  9  5  0 19 30.0000000  0 12G12G13G25G29G04G20G31G05G30G02G23G10
 125796482.812 7  98023220.39846  23938274.420    23938270.300          47.800
        39.750
 115993288.904 8  90384370.31147  22072784.180    22072779.160          50.050
        43.050
 118117736.785 8  92039783.98347  22477053.340    22477051.760          50.950
        45.750
 120595739.433 8  93970707.19047  22948601.280    22948597.980          48.700
        43.800
 114341318.287 8  89097137.57047  21758420.200    21758416.040          50.400
        45.000
 133355157.278 6 103913100.79844  25376639.300    25376635.640          39.000
        26.350
 122572041.020 8  95510655.70747  23324681.980    23324676.640          49.200
        42.900
 127504396.456 7  99354071.64146  24263277.700    24263274.300          47.600
        39.000
 116488680.144 8  90770396.51147  22167055.060    22167051.100          50.150
        44.150
 109992316.385 8  85708285.50948  20930831.020    20930824.380          50.950
        48.000
 116095934.295 8  90464355.69547  22092317.840    22092311.040          51.050
        44.950
 110644855.464 8  86216773.38747  21055009.440    21055004.760          50.850
        46.850
 11  9  5  0 19 45.0000000  0 12G12G13G25G29G04G20G31G05G30G02G23G10
 125848136.779 7  98063470.22446  23948103.880    23948099.660          47.700
        40.150
 115967455.872 8  90364240.68447  22067868.200    22067863.240          49.900
        43.300
 118145269.330 8  92061237.91247  22482292.620    22482291.060          50.850
        45.850
 120551881.427 8  93936532.14747  22940255.320    22940252.220          48.850
        43.950
 114381396.964 8  89128367.68347  21766046.860    21766042.720          50.300
        44.950
 133413483.847 5                  25387738.420                          35.150

 122598877.332 8  95531567.10147  23329788.920    23329783.680          49.200
        42.700
 127447086.127 7  99309414.23746  24252371.980    24252368.520          47.000
        39.700
 116509505.269 8  90786623.86247  22171017.920    22171013.900          49.900
        44.000
 109977253.517 8  85696548.21648  20927964.700    20927957.960          50.850
        48.250
 116099670.888 8  90467267.30147  22093029.080    22093022.180          51.100
        45.550
 110625990.396 8  86202073.35647  21051419.600    21051414.820          50.750
        47.100
 11  9  5  0 20  0.0000000  0 11G12G13G25G29G04G31G05G30G02G23G10
 125899860.945 7  98103774.76046  23957946.660    23957942.460          47.550
        40.550
 115941776.605 8  90344230.88747  22062981.480    22062976.580          49.750
        42.950
 118172944.002 8  92082802.59947  22487559.000    22487557.320          50.850
        45.650
 120508118.440 8  93902431.17047  22931927.560    22931924.500          49.250
        43.650
 114421585.932 8  89159683.72447  21773694.560    21773690.520          50.550
        45.450
 122625848.578 8  95552583.64447  23334921.520    23334916.540          49.150
        43.650
 127389819.254 7  99264790.73946  24241474.540    24241471.220          47.050
        40.450
 116530494.789 8  90802979.32547  22175012.100    22175008.020          49.950
        43.850
 109962330.682 8  85684920.03948  20925125.000    20925118.220          50.800
        48.300
 116103568.611 8  90470304.46747  22093771.000    22093764.040          51.250
        45.600
 110607284.070 8  86187497.03347  21047859.940    21047855.060          50.800
        47.250
 11  9  5  0 20 15.0000000  0 11G12G13G25G29G04G31G05G30G02G23G10
 125951649.354 7  98144129.32846  23967801.620    23967797.600          47.600
        40.250
 115916245.869 8  90324336.80347  22058123.080    22058118.200          49.800
        42.950
 118200754.898 8  92104473.41547  22492851.300    22492849.480          50.850
        45.650
 120464445.178 8  93868400.07447  22923616.920    22923613.640          49.100
        43.800
 114461879.414 8  89191081.24147  21781362.260    21781358.240          50.600
        45.800
 122652948.817 8  95573700.69147  23340078.620    23340073.860          48.700
        44.100
 127332590.362 7  99220196.84146  24230584.300    24230581.080          47.000
        40.750
 116551642.962 8  90819458.40047  22179036.460    22179032.320          49.800
        43.800
 109947542.500 8  85673396.78448  20922310.880    20922304.140          50.650
        48.600
 116107622.064 8  90473462.96747  22094542.520    22094535.480          51.050
        45.850
 110588731.044 8  86173040.13247  21044329.400    21044324.560          50.600
        47.550
 11  9  5  0 20 30.0000000  0 11G12G13G25G29G04G31G05G30G02G23G10
 126003504.906 7  98184536.23746  23977669.460    23977665.700          47.750
        40.750
 115890866.917 8  90304561.01447  22053293.600    22053288.660          50.000
        43.300
 118228704.931 8  92126252.64947  22498170.040    22498168.060          50.700
        45.550
 120420865.043 8  93834441.56847  22915323.900    22915320.260          48.800
        43.800
 114502279.937 8  89222562.15647  21789050.320    21789046.280          50.850
        45.750
 122680181.018 8  95594920.59247  23345260.640    23345256.120          48.550
        43.600
 127275402.765 7  99175635.13246  24219701.880    24219698.600          46.950
        40.750
 116572952.670 8  90836063.36547  22183091.540    22183087.380          49.950
        44.250
 109932892.263 8  85661981.02148  20919522.980    20919516.300          50.650
        48.350
 116111834.057 8  90476745.01947  22095344.140    22095337.040          51.000
        45.050
 110570334.584 8  86158705.23247  21040828.640    21040823.940          50.600
        47.400
 11  9  5  0 20 45.0000000  0 11G12G13G25G29G04G31G05G30G02G23G10
 126055428.571 7  98224996.21046  23987550.240    23987546.500          47.750
        40.150
 115865641.594 8  90284904.94047  22048493.420    22048488.480          50.250
        43.600
 118256795.313 8  92148141.25547  22503515.480    22503513.460          50.800
        45.350
 120377379.837 8  93800557.03647  22907048.920    22907045.060          48.750
        44.050
 114542788.764 8  89254127.48247  21796759.020    21796754.920          50.950
        45.800
 122707546.313 8  95616244.20247  23350467.940    23350463.540          48.700
        43.400
 127218257.993 7  99131106.79146  24208827.540    24208824.220          47.200
        39.900
 116594425.126 8  90852795.13247  22187177.620    22187173.400          49.850
        44.200
 109918381.360 8  85650673.83248  20916761.580    20916754.940          50.700
        48.100
 116116206.046 8  90480151.74847  22096176.160    22096169.000          51.050
        45.100
 110552096.452 8  86144493.71747  21037357.980    21037353.440          50.700
        47.550
 11  9  5  0 21  0.0000000  0 11G12G13G25G29G04G31G05G30G02G23G10
 126107418.826 7  98265508.07046  23997443.680    23997439.620          47.600
        39.950
 115840568.905 8  90265367.79947  22043722.280    22043717.340          50.400
        43.550
 118285024.715 8  92170138.19347  22508887.360    22508885.420          50.750
        45.300
 120333988.717 8  93766745.82747  22898791.860    22898787.940          49.300
        43.600
 114583404.597 8  89285776.14847  21804488.020    21804483.920          50.750
        45.250
 122735043.368 8  95637670.46447  23355700.360    23355696.020          48.750
        43.300
 127161155.367 7  99086611.26746  24197961.200    24197957.820          47.100
        39.750
 116616059.066 8  90869652.74047  22191294.380    22191290.220          49.700
        43.750
 109904008.890 8  85639474.51848  20914026.540    20914019.920          50.800
        48.150
 116120736.836 8  90483682.22347  22097038.340    22097031.000          50.950
        44.800
 110534015.504 8  86130404.66147  21033917.240    21033912.880          50.750
        47.550
 11  9  5  0 21 15.0000000  0 11G12G13G25G29G04G31G05G30G02G23G10
 126159477.288 7  98306073.10546  24007350.080    24007345.980          47.900
        40.850
 115815650.691 8  90245951.02547  22038980.580    22038975.600          50.550
        43.650
 118313394.691 8  92192244.66847  22514285.960    22514283.940          50.800
        45.150
 120290693.768 8  93733009.53547  22890553.220    22890549.340          49.700
        44.050
 114624128.920 8  89317509.37347  21812237.560    21812233.400          50.650
        45.100
 122762673.735 8  95659200.59647  23360958.240    23360953.800          48.850
        43.150
 127104097.085 7  99042150.28446  24187103.280    24187099.900          47.500
        40.600
 116637856.052 8  90886637.39047  22195442.200    22195438.160          50.100
        43.850
 109889776.849 8  85628384.62948  20911318.220    20911311.640          50.900
        48.100
 116125428.208 8  90487337.81547  22097931.060    22097923.560          51.050
        44.500
 110516093.753 8  86116439.69647  21030506.840    21030502.520          50.850
        47.750
 11  9  5  0 21 30.0000000  0 11G12G13G25G29G04G31G05G30G02G23G10
 126211599.071 7  98346687.49846  24017268.580    24017264.440          47.800
        40.150
 115790882.734 8  90226651.32047  22034267.440    22034262.400          50.300
        43.750
 118341900.510 8  92214456.99947  22519710.400    22519708.400          50.700
        45.100
 120247490.831 8  93699344.94047  22882332.040    22882328.240          49.300
        44.000
 114664957.048 8  89349323.47647  21820006.800    21820002.720          50.400
        45.100
 122790432.787 8  95680831.03047  23366240.640    23366236.000          48.650
        43.200
 127047079.059 7  98997720.70546  24176253.080    24176249.660          47.300
        39.850
 116659811.493 8  90903745.50647  22199620.160    22199616.200          49.900
        44.350
 109875680.860 8  85617400.75048  20908635.820    20908629.180          50.750
        48.250
 116130275.881 8  90491115.22247  22098853.480    22098845.900          51.000
        44.400
 110498326.809 8  86102595.37347  21027125.900    21027121.580          50.750
        47.450
 11  9  5  0 21 45.0000000  0 11G12G13G25G29G04G31G05G30G02G23G10
 126263788.880 8  98387354.88846  24027200.040    24027196.140          48.000
        39.350
 115766270.565 8  90207473.01547  22029583.860    22029578.880          50.350
        43.250
 118370547.020 8  92236778.94847  22525161.560    22525159.740          50.700
        44.850
 120204385.375 8  93665756.32247  22874129.300    22874125.500          49.600
        42.950
 114705893.727 8  89381222.18147  21827796.740    21827792.680          50.750
        45.000
 122818325.246 8  95702565.41647  23371548.300    23371543.800          48.750
        42.800
 126990106.647 7  98953326.64746  24165411.560    24165408.120          47.700
        40.100
 116681930.119 8  90920980.78647  22203829.180    22203825.280          49.950
        43.800
 109861726.097 8  85606526.92347  20905980.280    20905973.680          50.850
        47.900
 116135284.776 8  90495018.28647  22099806.600    22099798.980          51.100
        44.300
 110480719.773 8  86088875.59347  21023775.360    21023770.980          50.850
        47.150
 11  9  5  0 22  0.0000000  0 11G12G13G25G29G04G31G05G30G02G23G10
 126316043.758 7  98428072.97246  24037143.840    24037140.060          47.900
        39.750
 115741811.904 8  90188414.31647  22024929.500    22024924.580          50.300
        43.000
 118399331.266 8  92259208.22947  22530638.940    22530637.120          50.850
        44.600
 120161374.993 8  93632241.79047  22865944.660    22865940.760          49.800
        42.800
 114746936.072 8  89413203.22947  21835606.860    21835602.720          50.800
        44.600
 122846348.332 8  95724401.57747  23376880.740    23376876.680          48.400
        43.450
 126933177.377 8  98908966.20546  24154578.320    24154574.820          48.100
        39.350
 116704209.091 8  90938341.01247  22208068.720    22208064.920          50.000
        43.600
 109847909.999 8  85595761.13747  20903351.160    20903344.580          50.900
        47.900
 116140452.129 8  90499044.79547  22100789.800    22100782.200          51.050
        43.800
 110463270.244 8  86075278.53247  21020454.800    21020450.360          50.800
        47.000
 11  9  5  0 22 15.0000000  0 11G12G13G25G29G04G31G05G30G02G23G10
 126368364.441 7  98468842.31546  24047100.160    24047096.300          47.050
        39.750
 115717508.019 8  90169476.22447  22020304.560    22020299.740          49.800
        43.500
 118428254.143 8  92281745.53447  22536142.740    22536140.920          50.200
        45.450
 120118461.052 8  93598802.37647  22857778.460    22857774.460          49.600
        43.650
 114788084.941 8  89445267.29547  21843437.240    21843433.120          50.450
        45.750
 122874502.784 8  95746340.08447  23382238.220    23382234.520          48.300
        43.100
 126876292.777 7  98864640.60646  24143753.560    24143749.820          47.250
        39.400
 116726649.349 8  90955826.92147  22212338.980    22212335.180          49.650
        44.250
 109834233.890 8  85585104.44148  20900748.680    20900742.160          50.600
        48.150
 116145779.153 8  90503195.74347  22101803.440    22101795.880          50.700
        44.550
 110445979.608 8  86061805.36547  21017164.460    21017160.000          50.400
        47.400
 11  9  5  0 22 30.0000000  0 11G12G13G25G29G04G31G05G30G02G23G10
 126420747.922 7  98509660.58246  24057068.300    24057064.260          46.950
        40.000
 115693356.525 8  90150656.87247  22015708.620    22015703.820          50.100
        43.350
 118457312.776 8  92304388.61847  22541672.340    22541670.680          50.700
        44.700
 120075641.278 8  93565436.34347  22849630.180    22849626.180          49.700
        43.400
 114829337.298 8  89477412.00947  21851287.340    21851283.280          50.550
        45.300
 122902785.750 8  95768378.75147  23387620.380    23387616.700          48.950
        43.150
 126819450.474 7  98820347.91746  24132936.860    24132933.140          47.750
        40.100
 116749248.014 8  90973436.25847  22216639.400    22216635.580          49.950
        43.600
 109820695.253 8  85574554.87448  20898172.420    20898165.860          50.850
        48.250
 116151262.985 8  90507468.87747  22102846.940    22102839.500          50.950
        44.350
 110428845.250 8  86048453.91747  21013903.860    21013899.360          50.750
        47.250
 11  9  5  0 22 45.0000000  0 11G12G13G25G29G04G31G05G30G02G23G10
 126473196.831 7  98550529.83946  24067048.900    24067045.000          46.650
        39.850
 115669360.462 8  90131958.62047  22011142.320    22011137.580          49.850
        43.900
 118486509.858 8  92327139.58747  22547228.320    22547226.700          50.100
        45.650
 120032918.917 8  93532146.22847  22841500.360    22841496.440          49.050
        44.150
 114870695.841 8  89509639.41547  21859157.580    21859153.540          50.100
        45.450
 122931199.929 8  95790519.65747  23393027.580    23393023.860          48.600
        44.050
 126762653.707 7  98776090.72246  24122128.800    24122125.040          47.200
        41.000
 116772007.859 8  90991171.18047  22220970.500    22220966.600          49.750
        43.900
 109807297.096 8  85564114.76648  20895622.880    20895616.260          50.400
        48.650
 116156906.601 8  90511866.50647  22103920.860    22103913.600          50.550
        45.200
 110411870.377 8  86035226.75147  21010673.600    21010669.080          50.250
        47.400
 11  9  5  0 23  0.0000000  0 11G12G13G25G29G04G31G05G30G02G23G10
 126525709.339 7  98591448.64546  24077041.740    24077037.980          47.150
        40.150
 115645518.345 8  90113380.34547  22006605.320    22006600.640          50.000
        43.350
 118515843.430 8  92349996.91147  22552810.280    22552808.760          50.300
        45.350
 119990292.666 8  93498931.00847  22833388.760    22833384.900          49.350
        43.750
 114912158.767 8  89541948.14347  21867047.660    21867043.680          50.150
        45.600
 122959743.471 8  95812761.35247  23398459.400    23398455.500          48.850
        43.250
 126705901.039 7  98731867.91246  24111329.100    24111325.320          46.900
        41.300
 116794926.921 8  91009030.17547  22225331.940    22225328.000          49.750
        43.850
 109794037.759 8  85553782.83148  20893099.720    20893093.060          50.600
        48.350
 116162708.336 8  90516387.34347  22105024.820    22105017.680          50.600
        44.350
 110395053.304 8  86022122.56647  21007473.360    21007468.800          50.450
        47.250
 11  9  5  0 23 15.0000000  0 11G12G13G25G29G04G31G05G30G02G23G10
 126578284.458 7  98632416.24846  24087046.500    24087043.040          47.250
        40.000
 115621830.095 8  90094921.96547  22002097.620    22002092.920          50.150
        43.000
 118545312.959 8  92372960.18347  22558418.100    22558416.680          50.350
        45.050
 119947762.463 8  93465790.63847  22825295.460    22825291.600          49.450
        43.250
 114953725.444 8  89574337.77347  21874957.460    21874953.600          50.250
        44.750
 122988415.807 8  95835103.41347  23403915.680    23403911.740          49.100
        43.350
 126649192.627 7  98687679.58446  24100537.800    24100534.200          47.250
        41.100
 116818004.735 8  91027012.88747  22229723.540    22229719.540          49.850
        43.650
 109780917.304 8  85543559.12748  20890603.000    20890596.320          50.700
        48.000
 116168667.762 8  90521031.05847  22106158.740    22106151.760          50.600
        44.200
 110378393.888 8  86009141.19647  21004303.120    21004298.560          50.650
        47.050
 11  9  5  0 23 30.0000000  0 11G12G13G25G29G04G31G05G30G02G23G10
 126630925.396 7  98673435.16546  24097063.740    24097060.280          47.200
        40.250
 115598299.552 8  90076586.46647  21997619.940    21997615.200          50.200
        43.250
 118574921.686 8  92396031.90347  22564052.420    22564050.940          50.350
        45.100
 119905332.008 8  93432727.97747  22817221.180    22817217.200          49.600
        44.100
 114995398.865 8  89606810.57047  21882887.600    21882883.740          50.450
        45.000
 123017220.246 8  95857548.42847  23409397.060    23409393.020          48.950
        43.400
 126592532.217 7  98643528.68246  24089755.560    24089751.920          47.800
        40.550
 116841244.551 8  91045121.81847  22234145.920    22234141.900          49.850
        43.700
 109767939.350 8  85533446.45448  20888133.360    20888126.680          50.750
        48.150
 116174788.480 8  90525800.45547  22107323.380    22107316.520          50.700
        44.750
 110361895.749 8  85996285.51447  21001163.640    21001159.040          50.650
        47.300
 11  9  5  0 23 45.0000000  0 11G12G13G25G29G04G31G05G30G02G23G10
 126683627.677 7  98714501.86546  24107092.700    24107089.080          47.250
        39.100
 115574922.763 8  90058370.79147  21993171.500    21993166.720          50.100
        43.550
 118604665.258 8  92419208.70847  22569712.420    22569710.820          50.450
        44.800
 119862997.635 8  93399740.18347  22809165.180    22809161.280          49.350
        43.950
 115037174.913 8  89639363.33247  21890837.340    21890833.480          50.700
        45.100
 123046152.214 8  95880092.78247  23414902.660    23414898.540          48.900
        43.450
 126535915.924 7  98599412.10046  24078981.800    24078977.940          47.700
        40.050
 116864642.032 8  91063353.61947  22238598.280    22238594.280          49.750
        43.700
 109755099.869 8  85523441.67847  20885690.080    20885683.380          50.750
        47.900
 116181066.185 8  90530692.17747  22108517.920    22108511.200          50.650
        44.650
 110345554.840 8  85983552.34447  20998054.120    20998049.500          50.650
        47.300
 11  9  5  0 24  0.0000000  0 11G12G13G25G29G04G31G05G30G02G23G10
 126736391.898 7  98755616.83646  24117133.380    24117129.560          47.150
        38.850
 115551700.651 8  90040275.65147  21988752.460    21988747.700          50.050
        43.550
 118634544.365 8  92442491.12947  22575398.220    22575396.660          50.300
        44.700
 119820760.539 8  93366828.19647  22801127.660    22801123.940          49.200
        44.000
 115079054.156 8  89671996.48847  21898806.760    21898802.860          50.750
        45.250
 123075212.555 8  95902737.22047  23420432.760    23420428.320          49.200
        43.150
 126479345.046 7  98555330.91546  24068216.680    24068212.740          47.150
        40.450
 116888197.894 8  91081708.82847  22243080.780    22243076.800          49.750
        43.600
 109742399.896 8  85513545.60548  20883273.340    20883266.620          50.650
        48.400
 116187501.785 8  90535706.94347  22109742.540    22109735.800          50.550
        44.650
 110329372.395 8  85970942.65347  20994974.720    20994970.120          50.600
        47.200
 11  9  5  0 24 15.0000000  0 11G12G13G25G29G04G31G05G30G02G23G10
 126789219.950 7  98796781.53046  24127186.320    24127182.120          47.400
        38.650
 115528636.059 8  90022303.24947  21984363.400    21984358.720          50.250
        43.800
 118664560.936 8  92465880.66047  22581110.140    22581108.580          50.550
        44.400
 119778623.203 8  93333993.96547  22793109.120    22793105.500          49.350
        44.200
 115121038.529 8  89704711.59047  21906796.220    21906792.180          50.800
        44.800
 123104403.105 8  95925483.06447  23425987.700    23425983.100          49.450
        43.000
 126422822.155 7  98511287.13946  24057460.620    24057456.680          47.250
        40.750
 116911914.153 8  91100189.01647  22247593.720    22247589.840          49.700
        43.750
 109729841.844 8  85503760.12848  20880883.580    20880876.880          50.750
        48.250
 116194097.401 8  90540846.38047  22110997.560    22110990.700          50.550
        44.150
 110313350.624 8  85958458.14247  20991925.920    20991921.340          50.600
        47.150
 11  9  5  0 24 30.0000000  0 11G12G13G25G29G04G31G05G30G02G23G10
 126842108.135 7  98837993.10746  24137250.660    24137246.480          47.350
        38.850
 115505725.628 8  90004450.97447  21980003.680    21979999.120          50.150
        43.900
 118694711.297 8  92489374.44647  22586847.600    22586845.940          50.700
        44.650
 119736582.441 8  93301234.96347  22785108.940    22785105.320          49.300
        44.400
 115163124.316 8  89737505.69747  21914804.920    21914800.920          50.700
        45.000
 123133720.425 8  95948327.73147  23431566.800    23431562.040          49.400
        42.400
 126366344.206 7  98467278.45846  24046713.060    24046709.480          47.650
        41.350
 116935787.122 8  91118791.32347  22252136.540    22252132.680          49.700
        43.450
 109717422.216 8  85494082.51748  20878520.200    20878513.480          50.750
        48.150
 116200849.610 8  90546107.83447  22112282.380    22112275.500          50.550
        44.250
 110297486.166 8  85946096.22047  20988906.980    20988902.460          50.650
        47.150
 11  9  5  0 24 45.0000000  0 11G12G13G25G29G04G31G05G30G02G23G10
 126895059.302 7  98879253.76646  24147327.000    24147322.700          47.400
        39.350
 115482972.720 8  89986721.44947  21975673.940    21975669.400          50.350
        43.600
 118724998.397 8  92512974.77447  22592611.080    22592609.460          50.600
        44.400
 119694641.882 8  93268554.02847  22777127.880    22777124.160          49.350
        43.650
 115205314.505 8  89770381.16547  21922833.460    21922829.520          50.700
        44.800
 123163167.368 8  95971273.40146  23437170.480    23437165.440          49.350
        41.900
 126309914.413 7  98423307.20746  24035974.740    24035971.260          47.850
        40.250
 116959819.878 8  91137518.13447  22256709.840    22256706.100          50.000
        43.000
 109705144.338 8  85484515.34547  20876183.780    20876177.020          51.000
        47.850
 116207761.560 8  90551493.75247  22113597.640    22113590.900          50.700
        44.250
 110281782.462 8  85933859.57247  20985918.640    20985914.160          50.750
        46.950
 11  9  5  0 25  0.0000000  0 11G12G13G25G29G04G31G05G30G02G23G10
 126948071.177 7  98920561.68446  24157414.820    24157410.760          47.150
        39.650
 115460375.473 8  89969113.21647  21971373.880    21971369.260          50.350
        43.550
 118755420.108 8  92536679.98847  22598400.180    22598398.560          50.550
        44.700
 119652799.960 8  93235949.96647  22769165.520    22769161.860          49.100
        44.750
 115247606.852 8  89803336.22847  21930881.420    21930877.500          50.550
        45.250
 123192741.817 8  95994318.42247  23442798.300    23442792.780          49.050
        42.050
 126253531.564 8  98379372.61346  24025245.380    24025241.900          48.000
        40.300
 116984010.210 8  91156367.73547  22261313.120    22261309.380          49.750
        43.400
 109693006.462 8  85475057.26448  20873874.020    20873867.260          50.900
        48.250
 116214831.430 8  90557002.72147  22114942.980    22114936.400          50.600
        44.300
 110266237.721 8  85921746.80747  20982960.540    20982956.140          50.600
        47.450
 11  9  5  0 25 15.0000000  0 11G12G13G25G29G04G31G05G30G02G23G10
 127001143.173 7  98961916.46446  24167514.040    24167510.180          47.600
        39.850
 115437934.141 8  89951626.47647  21967103.500    21967098.680          50.450
        43.750
 118785975.674 8  92560489.51447  22604214.760    22604213.060          50.550
        44.800
 119611056.541 8  93203422.66747  22761221.960    22761218.380          49.100
        44.400
 115290000.634 8  89836370.34047  21938948.720    21938944.800          50.750
        44.800
 123222442.973 8  96017462.18047  23448450.240    23448444.740          49.150
        42.050
 126197195.287 8  98335474.32546  24014524.920    24014521.320          48.050
        40.700
 117008357.449 8  91175339.61747  22265946.280    22265942.480          49.800
        43.500
 109681008.397 8  85465708.13048  20871590.880    20871584.120          50.850
        48.150
 116222058.602 8  90562634.26647  22116318.240    22116311.600          50.650
        44.350
 110250851.710 8  85909757.72047  20980032.620    20980028.300          50.600
        47.300
 11  9  5  0 25 30.0000000  0 11G12G13G25G29G04G31G05G30G02G23G10
 127054275.205 7  99003318.02046  24177624.760    24177620.840          47.450
        40.000
 115415649.383 8  89934261.73747  21962862.900    21962857.940          50.350
        44.000
 118816665.478 8  92584403.63747  22610054.840    22610053.200          50.150
        44.900
 119569412.427 8  93170972.74147  22753297.260    22753293.760          49.000
        44.200
 115332496.208 8  89869483.79147  21947035.440    21947031.380          50.650
        44.950
 123252271.229 8  96040704.97547  23454126.380    23454121.240          48.950
        43.000
 126140906.269 7  98291612.76846  24003813.440    24003809.800          46.900
        40.800
 117032861.894 8  91194433.98747  22270609.360    22270605.520          49.850
        43.200
 109669150.753 8  85456468.41448  20869334.460    20869327.720          50.800
        48.100
 116229443.598 8  90568388.79447  22117723.580    22117716.840          50.650
        44.350
 110235624.924 8  85897892.70047  20977135.040    20977130.740          50.450
        47.250
 11  9  5  0 25 45.0000000  0 11G12G13G25G29G04G31G05G30G02G23G10
 127107469.036 7  99044767.73246  24187747.240    24187743.180          47.100
        38.700
 115393523.474 8  89917020.76947  21958652.520    21958647.480          50.450
        43.700
 118847491.332 8  92608423.77347  22615920.860    22615919.140          50.650
        44.750
 119527870.013 8  93138602.06847  22745392.040    22745388.460          49.450
        44.200
 115375095.370 8  89902677.96847  21955141.840    21955137.660          50.700
        44.800
 123282228.421 8  96064048.22547  23459827.000    23459821.940          49.000
        42.250
 126084667.281 7  98247790.25846  23993111.400    23993107.980          47.600
        40.800
 117057525.497 8  91213652.36047  22275302.740    22275298.860          49.950
        43.650
 109657435.745 8  85447339.83648  20867105.180    20867098.440          50.800
        48.250
 116236988.446 8  90574267.88147  22119159.420    22119152.560          50.850
        44.250
 110220559.788 8  85886153.65047  20974268.260    20974263.960          50.600
        47.350
 11  9  5  0 26  0.0000000  0 11G12G13G25G29G04G31G05G30G02G23G10
 127160721.645 7  99086263.24146  24197880.800    24197876.760          47.100
        39.100
 115371553.587 8  89899901.37047  21954471.840    21954466.740          50.300
        43.700
 118878450.034 8  92632547.43047  22621812.200    22621810.380          50.400
        44.750
 119486426.693 8  93106308.59647  22737505.680    22737501.940          49.650
        44.350
 115417795.022 8  89935950.44047  21963267.360    21963263.100          50.600
        44.650
 123312311.376 8  96087489.47747  23465551.520    23465546.480          49.050
        42.750
 126028475.665 7  98204004.74946  23982418.400    23982415.180          47.550
        41.400
 117082345.079 8  91232992.29847  22280025.820    22280021.860          49.750
        43.750
 109645860.644 8  85438320.29148  20864902.520    20864895.800          50.800
        48.500
 116244690.203 8  90580269.26647  22120625.180    22120618.120          50.850
        44.200
 110205653.483 8  85874538.37647  20971431.700    20971427.420          50.600
        47.600
 11  9  5  0 26 15.0000000  0 11G12G13G25G29G04G31G05G30G02G23G10
 127214032.774 7  99127804.37046  24208025.540    24208021.500          47.150
        39.750
 115349740.271 8  89882903.96347  21950320.900    21950315.840          50.200
        43.950
 118909541.632 8  92656774.64847  22627728.740    22627726.920          50.350
        44.950
 119445083.027 8  93074092.76547  22729638.260    22729634.360          49.400
        44.350
 115460594.887 8  89969300.98847  21971411.840    21971407.640          50.300
        44.650
 123342520.126 8  96111028.75647  23471300.020    23471295.140          48.750
        43.200
 125972332.051 8  98160256.57346  23971734.600    23971731.280          48.150
        40.850
 117107320.652 8  91252453.78847  22284778.560    22284774.640          49.750
        43.800
 109634425.760 8  85429410.00148  20862726.500    20862719.800          50.650
        48.700
 116252549.153 8  90586393.13147  22122120.800    22122113.580          50.900
        44.250
 110190906.170 8  85863046.95247  20968625.400    20968621.140          50.450
        47.300
 11  9  5  0 26 30.0000000  0 11G12G13G25G29G04G31G05G30G02G23G10
 127267402.399 7  99169391.10946  24218181.500    24218177.520          47.700
        40.000
 115328084.083 8  89866029.00147  21946199.840    21946194.860          50.250
        44.000
 118940766.310 8  92681105.55147  22633670.620    22633668.820          50.450
        44.800
 119403839.783 8  93041955.20347  22721789.880    22721786.060          49.600
        44.300
 115503495.433 8  90002729.98347  21979575.460    21979571.340          50.150
        44.850
 123372854.795 8  96134666.14047  23477072.380    23477067.900          48.400
        43.150
 125916236.679 7  98116545.88546  23961059.960    23961056.420          47.650
        41.950
 117132452.494 8  91272037.03347  22289561.020    22289557.120          49.750
        43.800
 109623131.722 8  85420609.45848  20860577.240    20860570.600          50.700
        48.600
 116260565.568 8  90592639.69947  22123646.360    22123639.080          50.850
        44.650
 110176318.714 8  85851680.11647  20965849.500    20965845.260          50.550
        47.750
 11  9  5  0 26 45.0000000  0 11G12G13G25G29G04G31G05G30G02G23G10
 127320833.960 7  99211026.08046  24228349.240    24228345.380          47.550
        40.100
 115306589.110 8  89849279.66747  21942109.440    21942104.500          50.150
        43.850
 118972127.473 8  92705542.80747  22639638.440    22639636.680          50.400
        44.800
 119362700.945 8  93009898.99647  22713961.400    22713957.680          49.800
        44.550
 115546499.722 8  90036239.81647  21987758.780    21987754.800          50.200
        44.850
 123403318.845 8  96158404.34047  23482869.360    23482864.940          48.600
        42.800
 125860193.790 7  98072876.14346  23950395.340    23950391.680          47.850
        41.050
 117157744.016 8  91291744.70447  22294373.840    22294370.020          49.750
        43.600
 109611982.150 8  85411921.48248  20858455.500    20858448.900          50.700
        48.550
 116268743.041 8  90599011.75247  22125202.500    22125195.260          50.650
        44.500
 110161894.761 8  85840440.70347  20963104.740    20963100.460          50.650
        47.400
 11  9  5  0 27  0.0000000  0 11G12G13G25G29G04G31G05G30G02G23G10
 127374320.594 7  99252703.95046  24238527.380    24238523.640          47.200
        40.400
 115285249.107 8  89832651.10447  21938048.540    21938043.600          50.300
        44.300
 119003618.415 8  92730081.19147  22645630.980    22645629.140          50.600
        44.600
 119321660.474 8  92977919.43147  22706151.740    22706147.860          49.850
        44.200
 115589601.381 8  90069825.56647  21995960.700    21995956.700          50.400
        44.800
 123433905.616 8  96182238.19246  23488689.860    23488685.060          49.050
        41.650
 125804197.412 8  98029242.63446  23939739.620    23939735.860          48.450
        41.500
 117183188.493 8  91311571.54947  22299215.740    22299212.060          49.650
        43.800
 109600970.930 8  85403341.30648  20856360.120    20856353.480          50.850
        48.450
 116277075.147 8  90605504.30847  22126787.980    22126780.840          50.650
        44.300
 110147627.955 8  85829323.71347  20960389.880    20960385.520          50.750
        47.300
 11  9  5  0 27 15.0000000  0 11G12G13G25G29G04G31G05G30G02G23G10
 127427866.815 7  99294428.24146  24248716.820    24248713.220          47.050
        39.150
 115264068.749 8  89816146.91347  21934018.020    21934013.140          50.350
        43.750
 119035243.526 8  92754724.11647  22651649.100    22651647.220          50.600
        44.700
 119280723.256 8  92946020.31547  22698361.700    22698357.700          49.800
        44.200
 115632804.714 8  90103490.55847  22004182.020    22004178.060          50.650
        45.000
 123464619.540 8  96206171.11847  23494534.520    23494529.740          48.950
        42.250
 125748252.515 8  97985649.21646  23929093.720    23929089.880          48.350
        41.200
 117208790.405 8  91331521.10147  22304087.580    22304083.940          49.850
        43.700
 109590102.702 8  85394872.55148  20854291.980    20854285.300          50.850
        48.250
 116285566.517 8  90612120.97047  22128403.740    22128396.720          50.700
        44.400
 110133523.206 8  85818332.98147  20957705.880    20957701.460          50.750
        47.250
 11  9  5  0 27 30.0000000  0 11G12G13G25G29G04G31G05G30G02G23G10
 127481469.619 7  99336196.61646  24258917.060    24258913.520          46.800
        39.700
 115243045.696 8  89799765.32547  21930017.440    21930012.640          50.250
        43.700
 119066999.958 8  92779469.37747  22657692.180    22657690.240          50.650
        44.650
 119239887.069 8  92914199.94847  22690590.780    22690586.720          49.400
        44.750
 115676106.750 8  90137232.42147  22012422.140    22012418.140          50.650
        44.950
 123495457.652 8  96230200.82147  23500402.880    23500398.140          49.000
        42.350
 125692356.810 8  97942094.16446  23918457.160    23918453.220          48.400
        40.650
 117234546.932 8  91351591.12047  22308988.900    22308985.220          49.850
        43.400
 109579375.038 8  85386513.35348  20852250.580    20852243.880          50.850
        48.600
 116294214.448 8  90618859.61847  22130049.320    22130042.400          50.700
        44.550
 110119577.957 8  85807466.55847  20955052.180    20955047.740          50.750
        47.200
 11  9  5  0 27 45.0000000  0 11G12G13G25G29G04G31G05G30G02G23G10
 127535131.957 7  99378011.41146  24269128.580    24269125.200          46.450
        39.650
 115222183.381 8  89783508.98647  21926047.440    21926042.680          50.200
        44.050
 119098890.671 8  92804319.27647  22663760.840    22663758.920          50.650
        44.750
 119199155.408 8  92882461.01347  22682839.780    22682835.680          49.400
        44.350
 115719510.403 8  90171053.43947  22020681.620    22020677.500          50.600
        44.750
 123526423.069 8  96254329.74546  23506295.540    23506290.380          48.800
        41.800
 125636513.521 8  97898579.78446  23907830.460    23907826.620          48.000
        40.750
 117260461.004 8  91371783.90747  22313920.180    22313916.520          49.850
        43.950
 109568791.331 8  85378266.30648  20850236.580    20850229.860          50.850
        48.600
 116303022.008 8  90625722.64747  22131725.300    22131718.500          50.650
        44.400
 110105795.536 8  85796727.00347  20952429.480    20952424.960          50.700
        47.550
 11  9  5  0 28  0.0000000  0 11G12G13G25G29G04G31G05G30G02G23G10
 127588849.624 7  99419869.30046  24279350.580    24279347.320          46.850
        38.950
 115201478.455 8  89767375.30247  21922107.360    21922102.700          50.300
        43.650
 119130911.617 8  92829270.66647  22669854.260    22669852.400          50.750
        44.350
 119158524.798 8  92850800.82247  22675108.080    22675104.040          49.600
        43.800
 115763011.686 8  90204950.58847  22028959.600    22028955.440          50.600
        44.650
 123557511.720 8  96278554.66146  23512211.540    23512206.120          48.900
        41.800
 125580720.205 7  97855104.74946  23897213.280    23897209.560          47.850
        41.200
 117286528.613 8  91392096.33247  22318880.660    22318876.940          49.950
        43.100
 109558347.700 8  85370128.41047  20848249.280    20848242.500          51.000
        47.850
 116311985.309 8  90632707.03447  22133430.940    22133424.100          50.750
        44.150
 110092172.309 8  85786111.51347  20949837.120    20949832.500          50.850
        47.000
 11  9  5  0 28 15.0000000  0 11G12G13G25G29G04G31G05G30G02G23G10
 127642623.379 7  99461770.85946  24289583.360    24289580.340          46.350
        38.900
 115180931.734 8  89751364.88247  21918197.380    21918192.780          50.100
        43.450
 119163063.183 8  92854323.83647  22675972.540    22675970.680          50.550
        44.800
 119117996.298 8  92819220.19447  22667395.720    22667391.740          49.300
        44.200
 115806611.052 8  90238924.14047  22037256.200    22037252.120          50.250
        44.350
 123588723.924 8  96302875.82446  23518151.060    23518145.840          49.050
        41.950
 125524976.744 7  97811668.40346  23886605.520    23886601.900          47.600
        41.300
 117312750.181 8  91412528.72547  22323870.400    22323866.680          49.650
        43.300
 109548045.056 8  85362100.36348  20846288.800    20846281.980          50.950
        48.350
 116321105.095 8  90639813.35447  22135166.420    22135159.480          50.800
        44.250
 110078708.947 8  85775620.59747  20947275.140    20947270.440          50.750
        47.000
 11  9  5  0 28 30.0000000  0 11G12G13G25G29G04G31G05G30G02G23G10
 127696454.717 7  99503717.30146  24299827.060    24299824.180          46.550
        39.950
 115160545.701 8  89735479.67447  21914317.980    21914313.420          50.150
        43.550
 119195347.627 8  92879480.53047  22682116.060    22682114.240          50.600
        44.200
 119077572.587 8  92787721.21947  22659703.240    22659699.340          49.400
        44.050
 115850310.729 8  90272975.88447  22045571.880    22045567.860          50.350
        44.250
 123620062.052 8  96327295.14347  23524114.540    23524109.380          48.800
        42.450
 125469286.138 7  97768273.16046  23876007.860    23876004.240          47.500
        41.350
 117339128.013 8  91433082.87947  22328889.880    22328886.300          49.850
        43.000
 109537886.226 8  85354184.39048  20844355.660    20844348.820          50.950
        48.150
 116330383.838 8  90647043.53947  22136932.180    22136925.100          51.000
        43.700
 110065408.269 8  85765256.46847  20944744.080    20944739.360          50.750
        47.050
 11  9  5  0 28 45.0000000  0 11G12G13G25G29G04G31G05G30G02G23G10
 127750341.506 7  99545706.99046  24310081.420    24310078.420          46.900
        38.950
 115140318.915 8  89719718.54647  21910468.900    21910464.340          50.300
        43.300
 119227762.778 8  92904739.07647  22688284.460    22688282.700          50.650
        44.700
 119037251.995 8  92756302.60047  22652030.420    22652026.620          49.850
        44.000
 115894108.342 8  90307103.87347  22053906.200    22053902.280          50.400
        43.900
 123651523.695 8  96351810.69647  23530101.400    23530096.540          48.650
        42.050
 125413646.978 7  97724918.01446  23865420.000    23865416.380          47.950
        41.100
 117365659.930 8  91453757.10947  22333938.700    22333935.180          49.850
        43.250
 109527869.274 8  85346378.96948  20842449.500    20842442.680          50.950
        48.100
 116339819.543 8  90654396.03747  22138727.760    22138720.500          50.900
        44.150
 110052268.360 8  85755017.58247  20942243.580    20942238.780          50.750
        46.900
 11  9  5  0 29  0.0000000  0 11G12G13G25G29G04G31G05G30G02G23G10
 127804281.978 7  99587738.53046  24320346.000    24320342.960          46.900
        39.600
 115120249.816 8  89704080.27747  21906649.940    21906645.240          50.450
        43.550
 119260306.705 8  92930097.97347  22694477.360    22694475.560          50.400
        44.650
 118997033.280 8  92724963.34847  22644377.040    22644373.240          49.700
        44.150
 115938002.258 8  90341306.95947  22062258.900    22062255.080          50.550
        44.850
 123683107.096 8  96376421.11947  23536111.320    23536106.660          48.700
        42.400
 125358058.067 8  97681602.01846  23854841.720    23854838.060          48.300
        41.250
 117392344.023 8  91474549.90447  22339016.500    22339013.000          49.900
        43.350
 109517992.561 8  85338682.81948  20840570.020    20840563.220          50.900
        48.300
 116349410.466 8  90661869.47347  22140552.840    22140545.520          50.900
        44.300
 110039287.676 8  85744902.78647  20939773.360    20939768.520          50.700
        47.150
 11  9  5  0 29 15.0000000  0 11G12G13G25G29G04G31G05G30G02G23G10
 127858278.542 7  99629813.77746  24330621.280    24330618.120          47.250
        38.850
 115100341.482 8  89688567.28347  21902861.580    21902856.660          50.650
        43.600
 119292982.203 8  92955559.38947  22700695.320    22700693.440          50.550
        44.700
 118956919.708 8  92693706.03947  22636743.680    22636739.880          49.950
        44.100
 115981995.081 8  90375587.11647  22070630.440    22070626.680          50.600
        44.550
 123714815.053 8  96401128.59347  23542145.020    23542140.640          48.600
        42.400
 125302522.503 8  97638327.57946  23844273.620    23844269.900          48.600
        40.350
 117419183.144 8  91495463.50147  22344123.840    22344120.360          49.900
        43.400
 109508259.208 8  85331098.39648  20838717.840    20838711.040          51.000
        48.000
 116359159.479 8  90669466.10147  22142408.040    22142400.780          50.900
        43.950
 110026469.365 8  85734914.51647  20937334.040    20937329.180          50.800
        46.900
 11  9  5  0 29 30.0000000  0 11G12G13G25G29G04G31G05G30G02G23G10
 127912329.275 7  99671931.25846  24340906.900    24340903.440          47.450
        39.100
 115080592.268 8  89673178.28747  21899103.520    21899098.440          50.650
        43.700
 119325786.841 8  92981121.43547  22706937.840    22706936.100          50.350
        44.500
 118916909.613 8  92662529.34247  22629130.000    22629126.260          49.700
        44.200
 116026084.269 8  90409942.36247  22079020.340    22079016.580          50.450
        44.500
 123746645.210 8  96425931.30447  23548202.080    23548197.840          48.750
        42.050
 125247038.488 7  97595093.29246  23833715.300    23833711.620          47.600
        41.900
 117446174.882 8  91516496.01847  22349260.220    22349256.620          49.750
        43.250
 109498667.053 8  85323623.99148  20836892.500    20836885.720          50.950
        48.450
 116369064.401 8  90677184.21147  22144292.860    22144285.740          50.850
        44.550
 110013811.309 8  85725051.09247  20934925.220    20934920.420          50.650
        47.550
 11  9  5  0 29 45.0000000  0 11G12G13G25G29G04G31G05G30G02G23G10
 127966434.508 7  99714091.18446  24351202.860    24351199.420          47.300
        38.500
 115061003.569 8  89657914.36047  21895376.040    21895370.780          50.750
        43.350
 119358721.596 8  93006784.87047  22713205.120    22713203.360          50.600
        44.650
 118877004.578 8  92631434.53547  22621536.340    22621532.580          49.650
        44.800
 116070271.019 8  90444373.60247  22087428.780    22087425.000          50.350
        44.600
 123778598.503 8  96450829.97046  23554282.640    23554278.380          48.850
        41.950
 125191607.657 7  97551900.50646  23823167.100    23823163.500          47.900
        41.150
 117473320.252 8  91537648.26047  22354425.860    22354422.160          49.850
        43.550
 109489217.677 8  85316260.85548  20835094.340    20835087.540          50.900
        48.600
 116379126.528 8  90685024.82547  22146207.660    22146200.660          50.900
        44.650
 110001314.989 8  85715313.74547  20932547.180    20932542.500          50.700
        47.350
 11  9  5  0 30  0.0000000  0 11G12G13G25G29G04G31G05G30G02G23G10
 128020594.026 7  99756293.38946  24361509.140    24361505.720          47.550
        38.800
 115041575.127 8  89642775.27847  21891679.080    21891673.600          50.850
        43.600
 119391786.150 8  93032549.43947  22719497.080    22719495.360          50.400
        44.800
 118837204.811 8  92600421.73347  22613962.680    22613958.780          49.750
        44.400
 116114554.822 8  90478880.45647  22095855.700    22095851.800          50.250
        44.200
 123810674.714 8  96475824.40646  23560386.580    23560382.180          48.450
        41.950
 125136230.174 8  97508749.25846  23812629.040    23812625.340          48.050
        41.050
 117500618.926 8  91558919.95247  22359620.640    22359616.920          49.750
        43.750
 109479911.130 8  85309009.00848  20833323.320    20833316.520          50.950
        48.350
 116389345.682 8  90692987.79947  22148152.340    22148145.420          51.000
        45.000
 109988980.368 8  85705702.33947  20930199.940    20930195.360          50.750
        47.400
 11  9  5  0 30 15.0000000  0 11G12G13G25G29G04G31G05G30G02G23G10
 128074805.860 7  99798536.35646  24371825.360    24371821.820          46.900
        39.100
 115022305.835 8  89627760.22047  21888012.400    21888006.800          50.750
        43.850
 119424978.618 8  93058413.68947  22725813.380    22725811.720          50.250
        44.350
 118797508.827 8  92569489.82447  22606408.720    22606404.760          49.300
        44.400
 116158933.902 8  90513461.56147  22104300.720    22104296.800          50.250
        44.050
 123842871.838 8  96500913.05446  23566513.440    23566508.880          48.000
        41.750
 125080904.793 8  97465638.61446  23802100.960    23802097.120          48.150
        40.850
 117528068.977 8  91580309.60447  22364844.240    22364840.500          49.900
        43.400
 109470745.862 8  85301867.26448  20831579.200    20831572.360          50.850
        48.350
 116399720.139 8  90701071.78747  22150126.600    22150119.680          51.000
        44.800
 109976805.882 8  85696215.71547  20927883.180    20927878.600          50.650
        47.350
 11  9  5  0 30 30.0000000  0 11G12G13G25G29G04G31G05G30G02G23G10
 128129072.047 7  99840821.70546  24382151.860    24382148.360          46.600
        38.400
 115003198.187 8  89612871.14947  21884376.420    21884370.720          50.700
        43.750
 119458300.834 8  93084379.04347  22732154.300    22732152.740          50.200
        44.300
 118757918.990 8  92538640.61347  22598874.960    22598871.080          49.450
        44.300
 116203410.141 8  90548118.40547  22112764.260    22112760.340          50.300
        44.300
 123875191.752 8  96526097.39346  23572663.620    23572658.920          48.000
        41.800
 125025634.033 8  97422570.50746  23791583.280    23791579.380          48.000
        41.200
 117555672.288 8  91601818.67447  22370096.980    22370093.260          49.700
        43.900
 109461724.056 8  85294837.30448  20829862.400    20829855.520          50.850
        48.450
 116410251.911 8  90709278.37547  22152130.800    22152123.840          50.900
        44.900
 109964793.854 8  85686855.69547  20925597.360    20925592.780          50.600
        47.600
 11  9  5  0 30 45.0000000  0 11G12G13G25G29G04G31G05G30G02G23G10
 128183392.281 7  99883149.15646  24392488.640    24392485.140          46.700
        39.100
 114984252.586 8  89598108.32547  21880771.200    21880765.480          50.650
        43.550
 119491752.916 8  93110445.58147  22738519.960    22738518.400          50.300
        44.400
 118718436.103 8  92507874.74147  22591361.540    22591357.760          49.400
        44.900
 116247983.536 8  90582850.94847  22121246.280    22121242.300          50.350
        44.600
 123907634.672 8  96551377.58146  23578837.200    23578832.460          48.250
        41.700
 124970418.539 7  97379545.45446  23781076.060    23781072.220          47.600
        41.600
 117583429.107 8  91623447.35847  22375378.920    22375375.080          49.700
        43.400
 109452846.304 8  85287919.58748  20828173.020    20828166.140          50.850
        48.300
 116420941.284 8  90717607.74647  22154164.960    22154157.900          50.950
        44.400
 109952944.876 8  85677622.74647  20923342.560    20923337.980          50.700
        47.250
 11  9  5  0 31  0.0000000  0 11G12G13G25G29G04G31G05G30G02G23G10
 128237762.825 7  99925515.80246  24402834.960    24402831.500          46.350
        38.750
 114965465.852 8  89583469.30847  21877196.200    21877190.460          50.650
        43.250
 119525331.242 8  93136610.50147  22744909.680    22744908.240          50.250
        44.250
 118679057.101 8  92477189.82147  22583867.940    22583864.200          49.650
        44.250
 116292650.452 8  90617656.35947  22129746.060    22129742.120          50.400
        44.200
 123940196.837 8  96576750.69947  23585033.560    23585029.020          48.350
        42.350
 124915255.265 8  97336561.12846  23770578.780    23770575.100          48.000
        41.800
 117611335.723 8  91645192.76947  22380689.340    22380685.500          49.900
        42.800
 109444109.319 8  85281111.57248  20826510.400    20826503.520          50.800
        48.400
 116431784.836 8  90726057.26447  22156228.400    22156221.320          50.850
        44.650
 109941255.583 8  85668514.22647  20921118.140    20921113.540          50.700
        47.200
 11  9  5  0 31 15.0000000  0 11G12G13G25G29G04G31G05G30G02G23G10
 128292187.953 7  99967925.00946  24413191.660    24413188.180          46.700
        39.650
 114946842.571 8  89568957.66347  21873652.220    21873646.600          50.550
        43.900
 119559039.862 8  93162876.94147  22751324.220    22751322.940          50.550
        44.400
 118639786.754 8  92446589.56747  22576395.020    22576391.300          49.750
        44.550
 116337414.994 8  90652537.84047  22138264.480    22138260.560          50.300
        44.450
 123972882.314 8  96602219.89846  23591253.420    23591248.740          48.700
        41.750
 124860148.672 8  97293620.89546  23760092.320    23760088.660          48.350
        41.700
 117639396.265 8  91667058.11447  22386029.060    22386025.220          49.750
        42.950
 109435517.494 8  85274416.64748  20824875.400    20824868.540          50.850
        48.500
 116442786.834 8  90734630.23647  22158321.960    22158314.840          50.850
        44.650
 109929730.421 8  85659533.61747  20918924.960    20918920.320          50.800
        47.250
 11  9  5  0 31 30.0000000  0 11G12G13G25G29G04G31G05G30G02G23G10
 128346664.137 7 100010373.95246  24423558.140    24423554.660          46.550
        39.300
 114928379.772 8  89554571.05347  21870138.800    21870133.340          50.550
        43.750
 119592875.451 8  93189242.32547  22757762.940    22757761.520          50.400
        44.350
 118600622.220 8  92416071.76347  22568942.220    22568938.620          49.750
        44.600
 116382273.708 8  90687492.67047  22146800.780    22146796.880          50.200
        44.250
 124005687.819 8  96627782.62147  23597496.100    23597491.380          48.400
        42.050
 124805096.072 8  97250722.63846  23749616.180    23749612.440          48.100
        40.650
 117667607.405 8  91689040.81447  22391397.400    22391393.660          49.550
        43.400
 109427067.836 8  85267832.50248  20823267.460    20823260.640          50.850
        48.300
 116453944.133 8  90743324.23047  22160445.120    22160437.980          50.800
        44.550
 109918366.325 8  85650678.47847  20916762.440    20916757.740          50.750
        47.150
 11  9  5  0 31 45.0000000  0 11G12G13G25G29G04G31G05G30G02G23G10
 128401192.158 7 100052863.29546  24433934.460    24433931.180          46.350
        38.200
 114910079.040 8  89540310.74447  21866656.220    21866650.860          50.450
        43.750
 119626839.026 8  93215707.44647  22764226.020    22764224.580          50.350
        44.350
 118561565.063 8  92385637.63247  22561509.820    22561506.300          49.550
        44.850
 116427227.759 8  90722521.79347  22155355.220    22155351.440          50.200
        44.250
 124038614.395 8  96653439.69947  23603761.840    23603757.060          48.250
        42.100
 124750099.359 8  97207867.97246  23739150.720    23739146.940          48.500
        41.800
 117695970.219 8  91711141.71747  22396794.640    22396790.920          49.650
        43.050
 109418761.766 8  85261360.23848  20821686.840    20821680.080          50.850
        48.450
 116465257.980 8  90752140.21647  22162598.100    22162591.000          50.950
        44.650
 109907164.749 8  85641949.95747  20914630.900    20914626.160          50.800
        47.250
 11  9  5  0 32  0.0000000  0 11G12G13G25G29G04G31G05G30G02G23G10
 128455769.935 7 100095391.42846  24444320.220    24444317.080          46.150
        38.800
 114891938.568 8  89526175.28547  21863204.160    21863198.940          50.400
        44.050
 119660928.365 8  93242270.54947  22770713.080    22770711.560          50.600
        44.400
 118522613.731 8  92355285.95947  22554097.600    22554094.100          49.400
        45.250
 116472274.971 8  90757623.49947  22163927.440    22163923.700          50.150
        44.300
 124071659.813 8  96679189.35946  23610050.160    23610045.380          48.400
        41.650
 124695156.944 8  97165055.70747  23728695.620    23728691.900          48.100
        42.100
 117724482.428 8  91733359.01047  22402220.360    22402216.580          49.850
        43.350
 109410597.301 8  85254998.30348  20820133.160    20820126.460          50.750
        48.500
 116476726.389 8  90761076.62847  22164780.500    22164773.360          50.850
        44.650
 109896124.056 8  85633346.82347  20912529.940    20912525.240          50.750
        47.550
 11  9  5  0 32 15.0000000  0 11G12G13G25G29G04G31G05G30G02G23G10
 128510399.736 7 100137960.10646  24454715.960    24454712.720          46.150
        38.050
 114873961.102 8  89512166.86647  21859783.140    21859777.960          50.550
        43.900
 119695145.758 8  93268933.44747  22777224.500    22777222.900          50.550
        44.300
 118483770.976 8  92325018.90047  22546706.060    22546702.580          49.550
        44.850
 116517417.431 8  90792799.45247  22172517.800    22172514.040          50.400
        44.100
 124104826.465 8  96705033.49746  23616361.520    23616356.700          48.700
        41.400
 124640271.598 8  97122287.99146  23718251.360    23718247.720          48.450
        41.550
 117753146.350 8  91755694.52847  22407675.000    22407671.160          49.800
        43.000
 109402577.313 8  85248748.94548  20818606.980    20818600.320          50.800
        48.300
 116488351.638 8  90770135.25447  22166992.720    22166985.600          50.850
        44.150
 109885246.735 8  85624870.98247  20910460.100    20910455.380          50.750
        47.400
 11  9  5  0 32 30.0000000  0 11G12G13G25G29G04G31G05G30G02G23G10
 128565078.903 7 100180567.25446  24465121.040    24465117.640          46.150
        37.900
 114856144.422 8  89498283.72947  21856392.720    21856387.620          50.400
        43.950
 119729488.658 8  93295694.14647  22783759.780    22783758.100          50.350
        44.000
 118445034.872 8  92294834.94747  22539334.840    22539331.280          49.650
        44.950
 116562652.722 8  90828047.74447  22181125.880    22181121.980          50.550
        44.550
 124138111.689 8  96730970.01946  23622695.600    23622690.820          48.800
        41.950
 124585441.197 8  97079563.06646  23707817.540    23707813.800          48.300
        41.800
 117781959.468 8  91778146.31047  22413157.980    22413154.120          49.550
        43.000
 109394699.545 8  85242610.41048  20817107.860    20817101.280          50.850
        48.600
 116500131.552 8  90779314.40847  22169234.340    22169227.300          50.750
        44.500
 109874530.556 8  85616520.71147  20908420.920    20908416.200          50.750
        47.300
 11  9  5  0 32 45.0000000  0 11G12G13G25G29G04G31G05G30G02G23G10
 128619808.547 7 100223213.69746  24475535.760    24475532.420          46.200
        37.200
 114838490.335 8  89484527.27747  21853033.200    21853028.260          50.400
        43.850
 119763958.351 8  93322553.63147  22790319.120    22790317.500          50.300
        44.300
 118406407.316 8  92264735.57447  22531984.200    22531980.620          49.600
        44.850
 116607982.211 8  90863369.43647  22189751.880    22189747.920          50.550
        43.950
 124171516.733 8  96756999.90047  23629052.620    23629047.960          48.950
        42.250
 124530667.581 8  97036882.33946  23697394.520    23697390.560          48.350
        41.550
 117810923.092 8  91800715.35647  22418669.620    22418665.720          49.400
        42.950
 109386965.785 8  85236584.11848  20815636.200    20815629.640          50.850
        48.450
 116512067.543 8  90788615.16747  22171505.600    22171498.680          50.550
        44.550
 109863977.149 8  85608297.28547  20906412.700    20906407.920          50.700
        47.550
 11  9  5  0 33  0.0000000  0 11G12G13G25G29G04G31G05G30G02G23G10
 128674587.136 7 100265898.31246  24485959.820    24485956.300          46.150
        38.650
 114820997.707 8  89470896.64147  21849704.400    21849699.640          50.400
        44.200
 119798553.230 8  93349510.67947  22796902.240    22796900.700          50.150
        44.050
 118367887.299 8  92234719.98847  22524654.060    22524650.360          49.850
        44.950
 116653404.165 8  90898763.18947  22198395.460    22198391.320          50.550
        44.350
 124205039.983 8  96783121.88547  23635432.080    23635427.660          49.250
        42.000
 124475950.039 8  96994245.36146  23686982.140    23686978.060          48.500
        41.350
 117840035.605 8  91823400.42447  22424209.560    22424205.640          49.600
        42.600
 109379374.542 8  85230668.86648  20814191.660    20814185.140          50.950
        48.600
 116524158.197 8  90798036.46047  22173806.300    22173799.480          50.750
        44.150
 109853585.164 8  85600199.61047  20904435.180    20904430.380          50.750
        47.550
 11  9  5  0 33 15.0000000  0 11G12G13G25G29G04G31G05G30G02G23G10
 128729415.904 7 100308621.99846  24496393.360    24496389.880          46.250
        39.100
 114803668.555 8  89457393.41647  21846406.720    21846402.020          50.400
        44.000
 119833274.681 8  93376566.35547  22803509.460    22803508.040          50.100
        44.150
 118329476.849 8  92204789.78047  22517344.840    22517341.100          49.800
        44.650
 116698920.022 8  90934230.09747  22207056.820    22207052.640          50.250
        44.300
 124238683.036 8  96809337.27746  23641834.320    23641829.640          49.200
        41.550
 124421290.297 8  96951653.39546  23676580.720    23676576.540          48.300
        41.500
 117869298.525 8  91846202.69547  22429778.100    22429774.240          49.600
        42.200
 109371927.834 8  85224866.23048  20812774.640    20812768.120          50.900
        48.550
 116536405.107 8  90807579.51947  22176136.720    22176129.900          50.600
        44.100
 109843356.551 8  85592229.26647  20902488.720    20902483.960          50.700
        47.400
 11  9  5  0 33 30.0000000  0 11G12G13G25G29G04G31G05G30G02G23G10
 128784293.971 7 100351384.09846  24506836.360    24506832.960          46.450
        38.350
 114786502.004 8  89444016.86647  21843140.040    21843135.300          50.400
        44.050
 119868121.812 8  93403719.94747  22810140.540    22810139.260          49.950
        44.050
 118291175.508 8  92174944.58947  22510056.360    22510052.600          49.600
        45.400
 116744528.734 8  90969769.29447  22215735.800    22215731.680          50.050
        43.950
 124272444.799 8  96835645.13346  23648259.060    23648254.140          48.750
        41.800
 124366688.096 8  96909106.28446  23666190.220    23666186.180          48.300
        41.750
 117898710.861 8  91869121.38947  22435375.060    22435371.220          49.650
        42.800
 109364625.011 8  85219175.69248  20811385.000    20811378.480          50.900
        48.750
 116548807.590 8  90817243.79447  22178496.660    22178489.960          50.300
        44.050
 109833290.727 8  85584385.78447  20900573.200    20900568.560          50.650
        47.600
 11  9  5  0 33 45.0000000  0 11G12G13G25G29G04G31G05G30G02G23G10
 128839220.923 7 100394184.28246  24517288.620    24517285.360          46.350
        39.100
 114769498.709 8  89430767.53347  21839904.460    21839899.640          50.550
        43.850
 119903094.283 8  93430971.23047  22816795.560    22816794.280          50.100
        44.150
 118252983.497 8  92145184.59347  22502788.640    22502784.960          49.700
        44.850
 116790230.186 8  91005380.82747  22224432.420    22224428.400          50.000
        43.600
 124306325.219 8  96862045.45646  23654706.300    23654701.300          48.950
        41.550
 124312143.586 8  96866604.09846  23655810.720    23655806.680          48.600
        41.650
 117928272.328 8  91892156.29447  22441000.420    22440996.540          49.350
        42.550
 109357466.163 8  85213597.36048  20810022.760    20810016.260          50.950
        48.500
 116561365.359 8  90827029.05447  22180886.180    22180879.520          50.550
        43.900
 109823387.655 8  85576669.07547  20898688.680    20898684.080          50.650
        47.400
 11  9  5  0 34  0.0000000  0 11G12G13G25G29G04G31G05G30G02G23G10
 128894196.167 7 100437022.12346  24527750.200    24527746.760          46.750
        39.000
 114752658.680 8  89417645.43547  21836699.960    21836695.100          50.550
        44.350
 119938191.561 8  93458319.74647  22823474.320    22823473.060          49.950
        44.000
 118214901.006 8  92115509.92547  22495541.860    22495538.120          49.850
        45.300
 116836023.918 8  91041064.26947  22233146.640    22233142.680          50.000
        43.600
 124340323.656 8  96888537.74046  23661175.960    23661170.940          48.650
        41.500
 124257657.056 8  96824147.08046  23645442.240    23645438.240          48.750
        41.950
 117957982.438 8  91915307.01747  22446654.100    22446650.220          49.100
        43.050
 109350451.132 8  85208131.10648  20808687.860    20808681.400          50.900
        48.650
 116574078.230 8  90836935.17947  22183305.340    22183298.680          50.700
        44.100
 109813647.360 8  85569079.23947  20896835.160    20896830.600          50.650
        47.300
 11  9  5  0 34 15.0000000  0 11G12G13G25G29G04G31G05G30G02G23G10
 128949218.785 7 100479896.83346  24538220.740    24538217.340          46.350
        39.650
 114735981.265 8  89404650.04447  21833526.400    21833521.500          50.600
        44.400
 119973412.777 8  93485764.82547  22830176.700    22830175.460          50.100
        44.250
 118176927.637 8  92085920.28447  22488315.880    22488311.840          49.700
        44.950
 116881908.975 8  91076818.84447  22241878.280    22241874.360          50.200
        43.800
 124374439.234 8  96915121.32646  23667667.980    23667662.900          48.650
        41.300
 124203228.228 8  96781735.02347  23635084.740    23635080.720          48.500
        42.250
 117987840.254 8  91938572.83547  22452335.840    22452332.020          49.400
        42.750
 109343579.290 8  85202776.40848  20807380.220    20807373.760          50.950
        48.750
 116586945.502 8  90846961.61547  22185753.940    22185747.340          50.700
        44.300
 109804068.996 8  85561615.53447  20895012.420    20895007.940          50.600
        47.450
 11  9  5  0 34 30.0000000  0 11G12G13G25G29G04G31G05G30G02G23G10
 129004290.834 7 100522810.07346  24548700.560    24548697.300          46.050
        38.800
 114719469.008 8  89391783.33647  21830384.280    21830379.340          50.600
        44.550
 120008760.069 8  93513308.15947  22836903.080    22836901.940          49.950
        44.250
 118139066.194 8  92056417.88647  22481111.100    22481106.960          49.700
        44.950
 116927887.393 8  91112646.17947  22250627.700    22250623.800          50.200
        43.900
 124408674.042 8  96941797.77146  23674182.600    23674177.380          48.800
        41.850
 124148859.842 8  96739370.07347  23624738.780    23624734.740          48.650
        42.300
 118017848.020 8  91961955.51047  22458046.120    22458042.380          49.350
        43.050
 109336853.260 8  85197535.34848  20806100.300    20806093.800          50.900
        48.700
 116599969.398 8  90857110.10147  22188232.360    22188225.840          50.700
        44.750
 109794655.396 8  85554280.23147  20893221.080    20893216.700          50.600
        47.650
 11  9  5  0 34 45.0000000  0 11G12G13G25G29G04G31G05G30G02G23G10
 129059406.053 7 100565756.96246  24559188.680    24559185.180          46.800
        38.500
 114703116.131 8  89379040.82547  21827272.480    21827267.540          50.700
        44.450
 120044227.215 8  93540944.88047  22843652.260    22843651.160          49.900
        44.650
 118101311.092 8  92026998.35347  22473926.520    22473922.400          49.750
        44.700
 116973953.228 8  91148541.74147  22259393.780    22259389.840          50.350
        43.850
 124443021.890 8  96968562.33446  23680718.820    23680713.680          48.450
        41.950
 124094546.107 8  96697047.71146  23614403.240    23614399.120          48.750
        41.950
 118047999.524 8  91985450.17047  22463783.740    22463780.160          49.200
        42.950
 109330267.161 8  85192403.31648  20804847.020    20804840.480          50.950
        48.700
 116613143.862 8  90867375.93547  22190739.420    22190732.940          50.800
        44.750
 109785400.575 8  85547068.67747  20891460.000    20891455.620          50.800
        47.450
 11  9  5  0 35  0.0000000  0 11G12G13G25G29G04G31G05G30G02G23G10
 129114572.488 7 100608743.74646  24569686.620    24569683.000          46.650
        39.700
 114686931.103 8  89366429.10047  21824192.620    21824187.720          50.750
        44.600
 120079822.227 8  93568681.23847  22850425.800    22850424.640          50.050
        44.250
 118063670.855 8  91997668.31447  22466763.760    22466759.760          49.900
        44.900
 117020114.027 8  91184511.17947  22268177.880    22268173.920          50.250
        43.950
 124477490.760 7  96995421.17246  23687277.820    23687272.940          47.850
        41.800
 124040295.725 8  96654774.68647  23604079.740    23604075.560          48.850
        42.350
 118078302.755 8  92009063.07347  22469550.220    22469546.740          49.250
        42.650
 109323829.466 8  85187386.94948  20803621.960    20803615.380          51.000
        48.750
 116626477.221 8  90877765.56047  22193276.680    22193270.200          50.850
        44.650
 109776312.721 8  85539987.17447  20889730.740    20889726.260          50.850
        47.600
 11  9  5  0 35 15.0000000  0 11G12G13G25G29G04G31G05G30G02G23G10
 129169784.232 7 100651765.82046  24580193.200    24580189.940          47.000
        39.400
 114670908.402 8  89353943.86747  21821143.640    21821138.740          50.700
        44.250
 120115539.210 8  93596512.64447  22857222.500    22857221.380          49.850
        44.150
 118026140.096 8  91968423.58747  22459621.860    22459617.880          49.550
        45.300
 117066364.333 8  91220550.42747  22276979.000    22276975.060          50.200
        43.950
 124512074.882 7  97022369.84847  23693858.700    23693853.820          47.750
        42.000
 123986103.692 8  96612547.14247  23593767.400    23593763.080          49.150
        42.100
 118108751.807 8  92032789.59547  22475344.440    22475340.960          49.350
        43.000
 109317534.549 8  85182481.83948  20802424.080    20802417.480          51.000
        48.900
 116639963.721 8  90888274.51947  22195843.140    22195836.700          50.900
        44.450
 109767386.552 8  85533031.69547  20888032.280    20888027.700          50.800
        47.650
 11  9  5  0 35 30.0000000  0 11G12G13G25G29G04G31G05G30G02G23G10
 129225040.286 7 100694822.46546  24590708.240    24590704.980          46.850
        38.200
 114655047.935 8  89341585.04147  21818125.540    21818120.560          50.800
        44.250
 120151377.422 8  93624438.50147  22864042.300    22864041.080          50.250
        43.850
 117988718.691 8  91939264.06347  22452500.780    22452496.680          49.900
        44.400
 117112703.170 8  91256658.61247  22285797.000    22285793.000          50.200
        43.900
 124546773.476 8  97049407.72046  23700461.460    23700456.700          48.150
        41.150
 123931969.491 8  96570364.65147  23583466.080    23583461.640          49.300
        42.000
 118139345.996 8  92056629.21447  22481166.360    22481162.840          49.750
        42.250
 109311382.142 8  85177687.76048  20801253.380    20801246.720          51.050
        48.550
 116653602.698 8  90898902.27047  22198438.660    22198432.160          51.050
        44.650
 109758621.602 8  85526201.80647  20886364.480    20886359.840          50.950
        47.600
 11  9  5  0 35 45.0000000  0 11G12G13G25G29G04G31G05G30G02G23G10
 129280343.969 7 100737916.20646  24601232.200    24601228.720          45.700
        38.750
 114639353.493 8  89329355.60347  21815139.060    21815134.000          50.700
        44.750
 120187340.237 8  93652461.45247  22870885.820    22870884.500          49.850
        44.000
 117951410.488 8  91910192.74847  22445401.200    22445397.140          49.450
        45.250
 117159133.875 8  91292838.38247  22294632.440    22294628.420          49.950
        43.850
 124581589.973 7  97076537.47047  23707086.700    23707081.980          47.650
        42.000
 123877897.112 8  96528230.33347  23573176.560    23573172.120          49.050
        42.100
 118170088.649 8  92080584.52347  22487016.500    22487012.940          49.200
        42.850
 109305376.065 8  85173007.69048  20800110.480    20800103.740          50.850
        48.700
 116667397.833 8  90909651.71847  22201063.920    22201057.320          50.950
        44.850
 109750021.863 8  85519500.72547  20884728.060    20884723.400          50.750
        47.550
 11  9  5  0 36  0.0000000  0 11G12G13G25G29G04G31G05G30G02G23G10
 129335692.993 7 100781045.24146  24611764.720    24611761.380          46.200
        38.950
 114623823.022 8  89317253.92947  21812183.760    21812178.600          50.850
        44.100
 120223425.244 8  93680579.63147  22877752.620    22877751.320          50.450
        43.650
 117914213.894 8  91881208.41847  22438322.860    22438318.960          50.100
        45.000
 117205654.292 8  91329088.06047  22303485.040    22303480.920          50.350
        43.700
 124616521.825 8  97103757.06646  23713733.840    23713729.480          48.550
        41.600
 123823884.812 8  96486142.84447  23562898.380    23562893.980          49.150
        42.400
 118200977.454 8  92104653.70847  22492894.500    22492890.780          49.550
        43.050
 109299514.005 8  85168439.86548  20798994.960    20798988.160          51.150
        48.450
 116681346.812 8  90920521.03447  22203718.480    22203711.740          51.150
        44.750
 109741585.009 8  85512926.56347  20883122.580    20883117.960          50.800
        47.600
 11  9  5  0 36 15.0000000  0 11G12G13G25G29G04G31G05G30G02G23G10
 129391087.286 7 100824209.61146  24622305.900    24622302.640          46.100
        38.400
 114608456.699 8  89305280.14447  21809259.700    21809254.500          50.650
        44.500
 120259632.341 8  93708792.94647  22884642.720    22884641.280          50.100
        44.150
 117877129.361 8  91852311.39247  22431265.900    22431262.120          49.900
        44.950
 117252264.034 8  91365407.36247  22312354.620    22312350.400          50.200
        43.850
 124651569.031 8  97131066.58846  23720403.160    23720398.660          48.000
        41.900
 123769933.120 8  96444102.57547  23552631.680    23552627.320          48.800
        42.400
 118232012.303 8  92128836.69847  22498800.280    22498796.420          49.600
        42.350
 109293796.305 8  85163984.52348  20797906.960    20797900.100          51.050
        48.750
 116695449.685 8  90931510.27247  22206402.300    22206395.280          51.100
        44.700
 109733311.347 8  85506479.54847  20881548.120    20881543.540          50.650
        47.400
 11  9  5  0 36 30.0000000  0 11G12G13G25G29G04G31G05G30G02G23G10
 129446526.956 7 100867409.33446  24632855.620    24632852.120          45.950
        38.250
 114593255.539 8  89293435.06647  21806367.000    21806361.800          50.550
        44.350
 120295961.867 8  93737101.64747  22891556.020    22891554.620          49.900
        44.400
 117840157.790 8  91823502.38247  22424230.480    22424226.660          49.800
        45.250
 117298963.664 8  91401796.69647  22321241.300    22321237.040          50.050
        43.850
 124686731.908 7  97158466.20946  23727094.460    23727090.160          47.700
        41.850
 123716043.079 8  96402110.33947  23542376.680    23542372.360          48.800
        42.400
 118263193.479 8  92153133.71247  22504733.960    22504729.980          49.450
        42.800
 109288223.742 8  85159642.26248  20796846.580    20796839.620          50.900
        48.600
 116709707.093 8  90942619.93247  22209115.500    22209108.220          50.900
        44.850
 109725201.684 8  85500160.36147  20880004.860    20880000.300          50.400
        47.800
 11  9  5  0 36 45.0000000  0 11G12G13G25G29G04G31G05G30G02G23G10
 129502008.578 7 100910641.77046  24643413.480    24643409.700          46.750
        38.950
 114578216.542 8  89281716.34347  21803505.180    21803499.920          50.650
        44.200
 120332410.480 8  93765503.15247  22898492.040    22898490.620          50.150
        44.100
 117803296.399 8  91794779.22647  22417215.940    22417212.020          49.400
        45.300
 117345749.933 8  91438253.54147  22330144.440    22330140.120          50.100
        43.550
 124722007.077 8  97185953.33646  23733807.160    23733802.900          48.100
        41.350
 123662211.735 8  96360163.83446  23532132.880    23532128.520          48.850
        41.950
 118294517.710 8  92177542.18947  22510694.840    22510690.720          49.650
        42.600
 109282793.194 8  85155410.67248  20795813.180    20795806.180          50.950
        48.600
 116724115.720 8  90953847.43847  22211857.440    22211850.040          50.950
        44.650
 109717252.702 8  85493966.33647  20878492.140    20878487.640          50.550
        47.750
 11  9  5  0 37  0.0000000  0 11G12G13G25G29G04G31G05G30G02G23G10
 129557537.345 7 100953910.88246  24653980.240    24653976.880          46.650
        37.950
 114563345.441 8  89270128.46647  21800675.240    21800669.980          50.650
        43.800
 120368983.323 8  93794001.46847  22905451.700    22905450.180          50.400
        43.650
 117766550.871 8  91766146.38647  22410223.420    22410219.560          50.050
        45.300
 117392627.866 8  91474781.84247  22339064.980    22339060.640          50.350
        43.250
 124757399.875 7  97213532.13346  23740542.180    23740538.160          47.950
        41.650
 123608444.964 8  96318267.65647  23521901.360    23521897.060          48.850
        42.100
 118325990.144 8  92202066.16647  22516683.880    22516679.740          49.750
        42.900
 109277510.328 8  85151294.15148  20794807.880    20794800.880          51.000
        48.450
 116738681.083 8  90965197.07347  22214629.160    22214621.760          51.050
        44.400
 109709470.199 8  85487902.06347  20877011.120    20877006.680          50.800
        47.400
 11  9  5  0 37 15.0000000  0 11G12G13G25G29G04G31G05G30G02G23G10
 129613107.942 7 100997212.62546  24664554.940    24664551.440          46.350
        37.850
 114548637.416 8  89258667.63947  21797876.360    21797871.140          50.550
        44.150
 120405675.021 8  93822592.38147  22912433.940    22912432.400          50.100
        43.750
 117729916.521 8  91737600.15347  22403252.160    22403248.340          49.950
        45.650
 117439592.257 8  91511377.53147  22348001.960    22347997.600          50.150
        43.200
 124792904.855 7  97241198.35346  23747298.400    23747294.620          47.200
        41.150
 123554738.020 8  96276418.09847  23511681.200    23511676.920          48.500
        42.850
 118357605.407 8  92226701.42547  22522700.100    22522695.940          49.700
        42.550
 109272370.130 8  85147288.79248  20793829.680    20793822.740          50.850
        48.650
 116753397.884 8  90976664.71447  22217429.640    22217422.340          50.850
        44.400
 109701849.095 8  85481963.52147  20875560.860    20875556.480          50.700
        47.650
 11  9  5  0 37 30.0000000  0 11G12G13G25G29G04G31G05G30G02G23G10
 129668722.631 7 101040548.74746  24675138.140    24675134.460          46.450
        38.350
 114534095.412 8  89247336.21947  21795109.060    21795103.920          50.600
        43.800
 120442488.034 8  93851277.83047  22919439.200    22919437.760          50.000
        43.700
 117693396.329 8  91709142.87347  22396302.620    22396298.860          50.100
        45.050
 117486645.366 8  91548042.32247  22356955.800    22356951.440          50.200
        43.050
 124828524.513 7  97268953.92746  23754076.380    23754072.840          47.650
        41.600
 123501093.840 8  96234617.44947  23501472.960    23501468.800          48.700
        42.050
 118389366.006 8  92251449.94047  22528743.920    22528739.800          49.800
        42.350
 109267375.385 8  85143396.76848  20792879.140    20792872.260          50.900
        48.300
 116768268.772 8  90988252.40947  22220259.420    22220252.320          50.850
        44.400
 109694392.191 8  85476152.99047  20874141.860    20874137.460          50.700
        47.650
 11  9  5  0 37 45.0000000  0 11G12G13G25G29G04G31G05G30G02G23G10
 129724381.087 7 101083918.92746  24685729.600    24685726.260          46.100
        38.550
 114519719.271 8  89236134.03847  21792373.360    21792368.220          50.450
        44.500
 120479422.100 8  93880057.61147  22926467.460    22926466.060          49.800
        44.050
 117656990.623 8  91680774.81347  22389374.820    22389371.080          49.550
        45.700
 117533786.873 8  91584775.96847  22365926.460    22365922.100          49.950
        43.350
 124864258.546 7  97296798.64946  23760876.260    23760872.720          46.900
        41.850
 123447512.902 8  96192866.07347  23491276.780    23491272.680          48.450
        43.200
 118421271.638 8  92276311.48247  22534815.380    22534811.240          49.250
        42.350
 109262526.164 8  85139618.15348  20791956.300    20791949.480          50.650
        48.500
 116783293.647 8  90999960.09947  22223118.480    22223111.440          50.550
        44.600
 109687099.440 8  85470470.29847  20872754.080    20872749.660          50.400
        47.800
 11  9  5  0 38  0.0000000  0 11G12G13G25G29G04G31G05G30G02G23G10
 129780080.703 7 101127321.20546  24696328.980    24696325.760          46.900
        37.850
 114505506.968 8  89225059.50747  21789668.860    21789663.740          50.600
        44.600
 120516474.614 8  93908929.69047  22933518.260    22933516.920          49.850
        43.150
 117620697.280 8  91652494.30947  22382468.460    22382464.600          50.000
        45.250
 117581014.292 8  91621576.54647  22374913.540    22374909.300          50.100
        43.650
 124900104.239 7  97324730.35146  23767697.480    23767694.040          47.650
        41.700
 123393993.319 8  96151162.51047  23481092.280    23481088.320          48.400
        42.450
 118453319.751 8  92301284.04347  22540913.900    22540909.780          49.300
        42.850
 109257820.282 8  85135951.23648  20791060.780    20791053.980          50.850
        48.300
 116798470.021 8  91011785.83547  22226006.380    22225999.460          50.700
        44.350
 109679968.767 8  85464913.92147  20871397.180    20871392.720          50.700
        47.350
 11  9  5  0 38 15.0000000  0 11G12G13G25G29G04G31G05G30G02G23G10
 129835823.562 7 101170757.18546  24706936.600    24706932.800          46.200
        37.100
 114491461.059 8  89214114.63347  21786996.040    21786990.940          50.700
        44.300
 120553647.684 8  93937895.71047  22940592.020    22940590.680          49.850
        43.800
 117584519.143 8  91624303.56147  22375584.080    22375580.120          50.050
        45.350
 117628329.783 8  91658445.71847  22383917.360    22383913.240          50.100
        43.600
 124936063.879 7  97352750.81946  23774540.300    23774536.600          47.300
        41.900
 123340537.811 8  96109508.87747  23470919.940    23470916.120          48.350
        42.900
 118485512.376 8  92326369.20247  22547039.900    22547035.840          49.250
        42.100
 109253260.241 8  85132397.96148  20790193.020    20790186.200          50.850
        48.250
 116813800.228 8  91023731.45247  22228923.600    22228916.700          50.700
        44.650
 109673002.647 8  85459485.77047  20870071.560    20870067.140          50.550
        47.500
 11  9  5  0 38 30.0000000  0 11G12G13G25G29G04G31G05G30G02G23G10
 129891608.838 7 101214226.20746  24717552.200    24717548.320          45.800
        37.600
 114477581.325 8  89203299.26247  21784354.880    21784349.820          50.750
        44.550
 120590940.511 8  93966955.05247  22947688.580    22947687.300          49.900
        43.450
 117548456.021 8  91596202.44147  22368721.580    22368717.560          50.150
        45.450
 117675732.770 8  91695383.12347  22392937.820    22392933.840          50.050
        43.750
 124972136.720 7  97380859.50446  23781404.760    23781401.060          47.350
        41.300
 123287145.931 8  96067904.83547  23460759.740    23460756.000          48.650
        42.750
 118517848.833 8  92351566.43247  22553193.280    22553189.340          49.350
        42.600
 109248845.641 8  85128958.03048  20789352.960    20789346.100          50.900
        48.450
 116829283.746 8  91035796.53747  22231869.960    22231863.120          50.650
        44.300
 109666200.582 8  85454185.44747  20868777.180    20868772.760          50.750
        47.700
 11  9  5  0 38 45.0000000  0 11G12G13G25G29G04G31G05G30G02G23G10
 129947436.554 7 101257728.26946  24728175.920    24728172.360          45.300
        37.250
 114463867.903 8  89192613.46647  21781745.340    21781740.280          50.600
        44.500
 120628353.166 8  93996107.74747  22954807.960    22954806.640          49.650
        43.600
 117512508.504 8  91568191.40147  22361880.980    22361877.000          49.950
        45.850
 117723222.977 8  91732388.46547  22401974.860    22401970.920          49.900
        43.400
 125008322.713 7  97409056.35546  23788290.700    23788287.060          47.600
        41.150
 123233818.383 8  96026350.88347  23450611.840    23450607.960          48.700
        42.750
 118550329.119 8  92376875.72647  22559373.960    22559370.260          49.100
        42.250
 109244576.928 8  85125631.77248  20788540.680    20788533.780          50.850
        48.650
 116844920.622 8  91047981.10347  22234845.500    22234838.660          50.650
        44.650
 109659562.967 8  85449013.28047  20867514.080    20867509.680          50.700
        47.650
 11  9  5  0 39  0.0000000  0 11G12G13G25G29G04G31G05G30G02G23G10
 130003302.791 7 101301260.36546  24738806.740    24738803.340          44.200
        36.650
 114450317.813 8  89182054.94847  21779166.840    21779161.860          50.600
        44.250
 120665881.752 8  94025350.78147  22961949.360    22961948.080          49.750
        43.650
 117476673.188 8  91540267.79247  22355061.760    22355057.780          50.100
        45.300
 117770796.535 8  91769458.68247  22411027.800    22411023.920          50.000
        43.650
 125044618.056 7  97437338.43646  23795197.480    23795193.660          47.050
        41.000
 123180551.948 8  95984844.51947  23440475.540    23440471.660          48.650
        42.200
 118582949.400 8  92402294.12447  22565581.260    22565577.660          48.900
        42.450
 109240450.504 8  85122416.38948  20787755.400    20787748.560          50.750
        48.400
 116860707.264 8  91060282.38247  22237849.560    22237842.680          50.550
        43.900
 109653086.249 8  85443966.48447  20866281.620    20866277.160          50.650
        47.400
 11  9  5  0 39 15.0000000  0 11G12G13G25G29G04G31G05G30G02G23G10
 130059212.572 7 101344826.40646  24749445.860    24749442.160          45.950
        36.100
 114436936.335 8  89171627.83747  21776620.400    21776615.440          50.850
        43.950
 120703531.414 8  94054688.16447  22969113.860    22969112.680          50.250
        43.350
 117440955.883 8  91512436.13147  22348265.040    22348260.980          50.600
        45.250
 117818458.866 8  91806598.12547  22420097.700    22420093.700          50.500
        43.150
 125081027.829 8  97465709.69246  23802126.180    23802121.800          48.300
        40.600
 123127352.457 8  95943390.34846  23430351.980    23430348.120          49.250
        41.650
 118615714.845 8  92427825.64247  22571816.220    22571812.760          49.550
        42.200
 109236471.748 8  85119316.07448  20786998.200    20786991.480          51.050
        48.350
 116876648.929 8  91072704.45947  22240883.080    22240876.280          50.800
        43.950
 109646775.855 8  85439049.29947  20865080.800    20865076.280          51.000
        47.400
 11  9  5  0 39 30.0000000  0 11G12G13G25G29G04G31G05G30G02G23G10
 130115159.734 7 101388421.56846  24760092.360    24760089.100          45.400
        38.750
 114423717.659 8  89161327.56147  21774104.900    21774100.000          50.200
        44.600
 120741295.922 8  94084115.04947  22976300.220    22976298.920          49.750
        43.900
 117405350.958 8  91484692.03547  22341489.720    22341485.500          50.100
        46.100
 117866203.693 8  91843801.84847  22429183.300    22429179.240          50.050
        43.800
 125117545.764 7  97494165.19346  23809075.540    23809070.820          47.900
        40.600
 123074214.392 8  95901984.06247  23420240.160    23420236.340          48.500
        43.350
 118648619.153 8  92453465.35247  22578077.660    22578074.220          48.950
        42.850
 109232634.810 8  85116326.26148  20786267.960    20786261.360          50.600
        49.100
 116892739.619 8  91085242.64647  22243944.920    22243938.300          50.200
        44.700
 109640626.040 8  85434257.25548  20863910.520    20863905.940          50.550
        48.000
 11  9  5  0 39 45.0000000  0 11G12G13G25G29G04G31G05G30G02G23G10
 130171148.655 7 101432049.25446  24770746.780    24770743.540          45.850
        37.350
 114410666.896 8  89151158.12247  21771621.280    21771616.480          50.200
        44.550
 120779179.828 8  94113634.96747  22983509.280    22983507.960          49.700
        44.050
 117369863.659 8  91457039.60047  22334736.740    22334732.460          50.150
        45.900
 117914035.183 8  91881073.03947  22438285.480    22438281.280          50.550
        43.250
 125154176.606 7  97522708.66646  23816046.260    23816041.560          47.750
        41.450
 123021142.767 8  95860629.52447  23410141.040    23410137.220          48.900
        42.700
 118681666.894 8  92479216.82647  22584366.420    22584363.060          49.000
        43.000
 109228944.646 8  85113450.81448  20785565.700    20785559.180          50.800
        48.600
 116908983.984 8  91097900.57347  22247036.040    22247029.520          50.550
        44.250
 109634641.558 8  85429594.01647  20862771.700    20862767.140          50.650
        47.550
 11  9  5  0 40  0.0000000  0 11G12G13G25G29G04G31G05G30G02G23G10
 130227177.226 7 101475707.84846  24781408.820    24781405.080          46.400
        36.650
 114397782.535 8  89141118.35347  21769169.360    21769164.660          50.250
        43.800
 120817181.005 8  94143246.26447  22990740.700    22990739.440          50.050
        43.350
 117334492.375 8  91429477.56747  22328005.800    22328001.580          50.150
        45.650
 117961951.808 8  91918410.60947  22447403.900    22447399.480          50.600
        43.100
 125190918.199 8  97551338.47846  23823038.160    23823033.520          48.050
        41.050
 122968136.126 8  95819325.63947  23400054.300    23400050.460          49.100
        42.550
 118714856.029 8  92505078.49047  22590682.120    22590678.740          49.250
        42.250
 109225399.701 8  85110688.53848  20784891.080    20784884.620          50.800
        48.400
 116925380.131 8  91110676.78547  22250156.100    22250149.620          50.550
        43.750
 109628820.800 8  85425058.41647  20861664.060    20861659.520          50.650
        47.350
 11  9  5  0 40 15.0000000  0 11G12G13G25G29G04G31G05G30G02G23G10
 130283244.424 7 101519396.55546  24792078.100    24792074.540          45.350
        37.200
 114385063.733 8  89131207.59547  21766748.960    21766744.340          50.400
        43.850
 120855298.378 8  94172948.10147  22997994.200    22997992.940          50.050
        43.250
 117299236.550 8  91402005.49847  22321296.820    22321292.680          50.300
        45.600
 118009952.256 8  91955813.45947  22456538.220    22456533.660          50.650
        43.000
 125227769.387 8  97580053.69046  23830050.940    23830046.120          48.700
        41.050
 122915194.000 8  95778072.03347  23389979.820    23389975.820          49.300
        42.750
 118748185.437 8  92531049.45047  22597024.500    22597021.100          49.150
        42.350
 109221999.241 8  85108038.83148  20784244.000    20784237.520          50.950
        48.400
 116941927.119 8  91123570.54647  22253304.940    22253298.400          50.700
        43.900
 109623162.832 8  85420649.58947  20860587.360    20860582.840          50.850
        47.250
 11  9  5  0 40 30.0000000  0 11G12G13G25G29G04G31G05G30G02G23G10
 130339352.112 7 101563116.75646  24802754.920    24802751.800          45.450
        37.400
 114372512.391 8  89121427.31247  21764360.480    21764355.920          50.450
        43.650
 120893533.677 8  94202741.83447  23005270.160    23005268.780          50.100
        42.700
 117264098.582 8  91374625.28347  22314610.300    22314606.160          50.250
        45.450
 118058038.347 8  91993283.10647  22465688.860    22465684.180          50.650
        42.450
 125264731.998 8  97608855.72846  23837084.900    23837080.160          48.700
        40.950
 122862318.719 8  95736870.51946  23379918.040    23379913.880          49.400
        41.700
 118781656.839 8  92557131.06246  22603393.920    22603390.540          49.100
        41.600
 109218745.276 8  85105503.28848  20783624.820    20783618.280          50.950
        48.150
 116958626.917 8  91136583.37447  22256482.820    22256476.240          50.800
        43.350
 109617669.937 8  85416369.46747  20859542.100    20859537.560          50.800
        46.950
 11  9  5  0 40 45.0000000  0 11G12G13G25G29G04G31G05G30G02G23G10
 130395498.269 7 101606867.00446  24813439.220    24813435.480          45.900
        36.400
 114360127.652 8  89111776.85147  21762003.700    21761999.260          50.250
        43.450
 120931885.278 8  94232626.18847  23012568.300    23012567.000          49.950
        43.400
 117229077.470 8  91347336.10947  22307945.980    22307941.800          50.000
        45.350
 118106208.496 8  92030818.25047  22474855.400    22474850.720          50.200
        43.200
 125301804.458 8  97637743.33746  23844139.680    23844134.780          48.750
        41.150
 122809509.293 8  95695720.31747  23369868.820    23369864.660          49.250
        42.350
 118815268.619 8  92583322.04446  22609790.040    22609786.560          49.200
        41.500
 109215636.442 8  85103080.83248  20783033.280    20783026.640          50.850
        48.250
 116975477.953 8  91149714.03547  22259689.540    22259682.960          50.800
        43.750
 109612340.893 8  85412217.06547  20858528.000    20858523.480          50.700
        47.100
 11  9  5  0 41  0.0000000  0 11G12G13G25G29G04G31G05G30G02G23G10
 130451681.803 7 101650646.38946  24824130.600    24824126.780          45.950
        37.250
 114347908.711 8  89102255.59347  21759678.500    21759674.020          50.600
        43.450
 120970351.841 8  94262600.12347  23019888.320    23019886.980          50.200
        42.950
 117194172.392 8  91320137.35947  22301303.640    22301299.520          50.400
        44.950
 118154461.406 8  92068417.88647  22484037.660    22484033.060          50.400
        42.550
 125338985.268 8  97666715.38846  23851215.080    23851210.100          48.650
        41.000
 122756765.165 8  95654621.03347  23359831.980    23359827.820          49.450
        42.800
 118849019.502 8  92609621.41746  22616212.640    22616209.240          49.350
        41.700
 109212671.905 8  85100770.82048  20782469.220    20782462.520          51.150
        48.100
 116992479.091 8  91162961.66947  22262924.860    22262918.240          51.000
        43.950
 109607174.573 8  85408191.50647  20857544.800    20857540.220          50.900
        47.100
 11  9  5  0 41 15.0000000  0 11G12G13G25G29G04G31G05G30G02G23G10
 130507905.543 7 101694457.03746  24834829.680    24834826.460          45.950
        38.850
 114335858.870 8  89092866.10747  21757385.500    21757380.980          49.950
        44.700
 121008936.489 8  94292666.08147  23027230.780    23027229.320          49.600
        43.650
 117159386.953 8  91293031.83047  22294684.160    22294680.060          49.650
        46.050
 118202800.205 8  92106084.46347  22493236.240    22493231.740          49.350
        43.250
 125376277.641 7  97695774.35946  23858311.560    23858306.560          47.350
        41.750
 122704089.806 8  95613575.31547  23349808.160    23349804.080          48.600
        43.800
 118882912.586 8  92636031.61147  22622662.300    22622658.900          48.650
        42.950
 109209855.038 8  85098575.88348  20781933.240    20781926.520          50.500
        48.850
 117009633.776 8  91176328.95647  22266189.360    22266182.600          50.300
        44.750
 109602174.238 8  85404295.21247  20856593.220    20856588.580          50.200
        47.900
 11  9  5  0 41 30.0000000  0 11G12G13G25G29G04G31G05G30G02G23G10
 130564165.827 7 101738296.18846  24845535.860    24845532.740          45.950
        38.100
 114323974.970 8  89083605.92747  21755124.080    21755119.540          50.000
        44.800
 121047635.385 8  94322821.04647  23034595.020    23034593.500          49.700
        43.450
 117124718.078 8  91266017.11747  22288086.860    22288082.820          49.550
        46.050
 118251221.058 8  92143814.97047  22502450.380    22502446.040          49.550
        43.350
 125413677.812 7  97724917.33647  23865428.520    23865423.680          47.650
        42.250
 122651480.053 8  95572580.68547  23339796.840    23339792.700          48.600
        43.800
 118916944.057 8  92662549.64047  22629138.300    22629134.840          48.650
        42.700
 109207182.445 8  85096493.34548  20781424.720    20781417.920          50.650
        48.750
 117026938.374 8  91189813.05847  22269482.360    22269475.480          50.600
        44.600
 109597336.563 8  85400525.61747  20855672.540    20855667.860          50.300
        47.800
 11  9  5  0 41 45.0000000  0 11G12G13G25G29G04G31G05G30G02G23G10
 130620462.814 7 101782163.95846  24856248.880    24856245.240          46.200
        38.400
 114312257.395 8  89074475.34847  21752894.320    21752889.760          50.250
        43.900
 121086448.793 8  94353065.25247  23041981.000    23041979.420          49.900
        43.500
 117090166.517 8  91239093.82847  22281511.840    22281507.800          49.650
        45.800
 118299724.276 8  92181609.71047  22511680.240    22511675.940          49.750
        42.800
 125451186.053 7  97754144.52546  23872565.980    23872561.120          47.650
        41.400
 122598936.869 8  95531637.94447  23329798.180    23329794.140          48.800
        43.350
 118951114.118 8  92689175.65647  22635640.620    22635637.280          48.850
        42.600
 109204654.671 8  85094523.67148  20780943.700    20780936.860          50.750
        48.700
 117044393.079 8  91203414.12347  22272804.020    22272797.020          50.800
        43.850
 109592662.028 8  85396883.11047  20854782.940    20854778.240          50.500
        47.600
 11  9  5  0 42  0.0000000  0 11G12G13G25G29G04G31G05G30G02G23G10
 130676798.055 7 101826061.52246  24866969.240    24866965.560          46.550
        39.350
 114300708.345 8  89065476.08147  21750696.680    21750692.000          50.450
        44.250
 121125378.335 8  94383399.96047  23049389.100    23049387.440          49.900
        43.250
 117055734.526 8  91212263.71847  22274959.500    22274955.560          49.800
        46.100
 118348311.304 8  92219469.70547  22520925.960    22520921.700          49.850
        42.850
 125488803.886 8  97783457.11946  23879724.400    23879719.720          48.250
        41.700
 122546462.531 8  95490748.91347  23319812.540    23319808.660          48.800
        43.150
 118985424.423 8  92715910.94647  22642169.660    22642166.320          48.900
        42.450
 109202273.788 8  85092668.44448  20780490.600    20780483.720          50.850
        48.700
 117061999.658 8  91217133.52547  22276154.480    22276147.400          50.800
        44.200
 109588152.766 8  85393369.38747  20853924.780    20853920.120          50.700
        47.600
 11  9  5  0 42 15.0000000  0 11G12G13G25G29G04G31G05G30G02G23G10
 130733170.108 7 101869987.75046  24877696.560    24877693.120          45.850
        37.600
 114289326.829 8  89056607.39247  21748530.880    21748526.120          50.550
        44.050
 121164422.455 8  94413823.92947  23056818.940    23056817.340          49.850
        43.100
 117021421.196 8  91185526.07747  22268429.800    22268425.880          50.100
        45.600
 118396981.009 8  92257394.18147  22530187.440    22530183.240          49.900
        42.950
 125526529.801 8  97812853.91046  23886903.280    23886898.600          48.100
        40.700
 122494056.072 8  95449912.74247  23309839.860    23309835.980          49.250
        42.250
 119019873.498 8  92742754.37346  22648725.140    22648721.760          49.200
        41.600
 109200038.566 8  85090926.73348  20780065.220    20780058.300          50.900
        48.150
 117079756.896 8  91230970.33747  22279533.620    22279526.460          50.850
        44.150
 109583807.550 8  85389983.51547  20853097.960    20853093.280          50.850
        47.450
 11  9  5  0 42 30.0000000  0 11G12G13G25G29G04G31G05G30G02G23G10
 130789579.236 7 101913942.85746  24888430.740    24888427.120          45.850
        36.750
 114278113.293 8  89047869.55947  21746397.080    21746392.180          50.700
        44.300
 121203581.527 8  94444337.47747  23064270.700    23064269.180          50.000
        43.000
 116987227.471 8  91158881.61647  22261922.900    22261919.040          49.750
        45.700
 118445733.358 8  92295383.01447  22539464.680    22539460.580          49.850
        43.000
 125564364.341 8  97842335.35746  23894102.940    23894098.560          48.100
        41.850
 122441718.576 8  95409130.34247  23299880.360    23299876.440          49.300
        43.050
 119054461.603 8  92769706.13746  22655307.100    22655303.580          49.050
        41.550
 109197949.695 8  85089299.05348  20779667.720    20779660.820          50.950
        48.350
 117097665.184 8  91244924.85647  22282941.540    22282934.360          50.950
        44.200
 109579627.107 8  85386726.05547  20852302.520    20852297.780          50.850
        47.500
 11  9  5  0 42 45.0000000  0 11G12G13G25G29G04G31G05G30G02G23G10
 130846022.883 7 101957924.89746  24899171.660    24899167.860          46.600
        36.850
 114267066.131 8  89039261.37947  21744294.960    21744289.940          51.150
        43.650
 121242853.003 8  94474938.60147  23071743.800    23071742.240          50.250
        42.550
 116953151.344 8  91132328.79947  22255438.360    22255434.660          50.300
        45.000
 118494566.069 8  92333434.46347  22548757.140    22548753.100          50.300
        42.100
 125602304.811 8  97871899.37246  23901322.800    23901318.180          48.850
        40.700
 122389448.062 8  95368400.18647  23289933.560    23289929.700          49.900
        43.150
 119089186.252 8  92796764.29346  22661915.040    22661911.400          49.750
        41.050
 109196005.051 8  85087783.74848  20779297.660    20779290.800          51.500
        48.000
 117115722.261 8  91258995.32047  22286377.740    22286370.520          51.400
        43.600
 109575609.330 8  85383595.39647  20851538.020    20851533.200          51.400
        46.900
 11  9  5  0 43  0.0000000  0 11G12G13G25G29G04G31G05G30G02G23G10
 130902503.989 7 102001936.06246  24909919.660    24909916.300          45.600
        39.000
 114256188.620 8  89030785.38447  21742225.100    21742220.040          50.950
        43.750
 121282239.996 8  94505629.74847  23079238.840    23079237.240          50.150
        42.200
 116919196.534 8  91105870.51247  22248976.860    22248973.260          50.050
        45.000
 118543482.194 8  92371550.91447  22558065.500    22558061.500          50.050
        42.100
 125640354.303 8  97901548.30246  23908563.420    23908558.820          48.900
        40.150
 122337247.879 8  95327724.75247  23280000.100    23279996.400          49.450
        42.950
 119124050.556 8  92823931.27346  22668549.560    22668545.900          49.600
        41.350
 109194208.026 8  85086383.46548  20778955.700    20778948.820          51.150
        48.100
 117133931.316 8  91273184.19047  22289842.820    22289835.700          51.000
        43.650
 109571757.468 8  85380593.98547  20850805.060    20850800.180          51.100
        47.200
 11  9  5  0 43 15.0000000  0 11G12G13G25G29G04G31G05G30G02G23G10
 130959019.667 7 102045974.20046  24920674.300    24920671.060          45.900
        39.700
 114245478.191 8  89022439.58247  21740186.980    21740181.940          50.700
        44.000
 121321739.467 8  94536408.55747  23086755.340    23086753.780          49.850
        42.800
 116885360.687 8  91079504.93047  22242538.100    22242534.500          50.150
        45.650
 118592478.781 8  92409730.08947  22567389.120    22567385.180          49.800
        42.400
 125678509.891 8  97931279.92346  23915824.240    23915819.400          48.150
        41.050
 122285115.915 8  95287102.47547  23270079.700    23270076.060          49.450
        43.400
 119159051.484 8  92851204.72246  22675210.100    22675206.360          49.450
        41.650
 109192555.919 8  85085096.09748  20778641.300    20778634.400          50.950
        48.250
 117152289.541 8  91287489.30647  22293336.200    22293329.160          50.750
        44.050
 109568068.814 8  85377719.72647  20850103.120    20850098.240          50.950
        47.550
 11  9  5  0 43 30.0000000  0 11G12G13G25G29G04G31G05G30G02G23G10
 131015569.600 7 102090039.08145  24931435.440    24931431.980          45.350
        35.350
 114234934.774 8  89014223.92547  21738180.620    21738175.580          50.550
        43.850
 121361351.060 8  94567274.72747  23094293.120    23094291.480          49.400
        42.750
 116851643.791 8  91053232.03447  22236122.020    22236118.340          50.100
        45.700
 118641555.457 8  92447971.65747  22576728.000    22576724.040          49.700
        43.050
 125716771.142 8  97961093.89746  23923105.160    23923100.360          48.250
        40.850
 122233052.515 8  95246533.62347  23260172.380    23260168.620          49.450
        43.350
 119194188.627 8  92878584.31947  22681896.560    22681892.760          49.100
        42.400
 109191048.774 8  85083921.68048  20778354.500    20778347.640          50.900
        48.600
 117170796.709 8  91301910.48247  22296857.900    22296851.020          50.600
        44.200
 109564543.418 8  85374972.70747  20849432.200    20849427.360          50.750
        47.600
 11  9  5  0 43 45.0000000  0 11G12G13G25G29G04G31G05G30G02G23G10
 131072155.210 7 102134131.70246  24942203.280    24942200.260          45.650
        38.200
 114224560.506 8  89006140.07447  21736206.440    21736201.480          50.550
        43.700
 121401076.348 8  94598229.50347  23101852.580    23101850.960          49.750
        42.650
 116818048.213 8  91027053.66147  22229728.980    22229725.240          49.850
        45.500
 118690713.923 8  92486276.94747  22586082.520    22586078.520          49.850
        42.300
 125755139.567 7  97990991.29046  23930406.320    23930401.640          47.900
        40.650
 122181060.038 8  95206020.10047  23250278.500    23250274.680          49.400
        43.100
 119229463.636 8  92906071.33446  22688609.160    22688605.380          49.200
        41.500
 109189688.629 8  85082861.80448  20778095.640    20778088.820          50.850
        48.250
 117189454.521 8  91316449.03347  22300408.240    22300401.640          50.450
        43.650
 109561183.094 8  85372354.27147  20848792.700    20848787.880          50.850
        47.300
 11  9  5  0 44  0.0000000  0 11G12G13G25G29G04G31G05G30G02G23G10
 131128774.310 7 102178250.43546  24952977.640    24952974.640          46.300
        37.650
 114214353.714 8  88998186.74147  21734264.120    21734259.180          50.650
        43.800
 121440913.175 8  94629271.17847  23109433.220    23109431.800          49.600
        42.900
 116784572.318 8  91000968.56747  22223358.680    22223355.080          49.850
        45.700
 118739951.940 8  92524644.22847  22595452.200    22595448.200          49.900
        42.350
 125793613.240 8  98020970.69346  23937727.560    23937723.240          48.050
        40.750
 122129136.564 8  95165560.30647  23240397.740    23240393.960          49.350
        43.400
 119264874.316 8  92933664.07746  22695347.580    22695343.820          49.100
        41.950
 109188473.757 8  85081915.16748  20777864.400    20777857.660          50.850
        48.100
 117208261.000 8  91331103.42447  22303986.900    22303980.300          50.600
        43.250
 109557986.017 8  85369863.01747  20848184.300    20848179.520          50.850
        47.250
 11  9  5  0 44 15.0000000  0 11G12G13G25G29G04G31G05G30G02G23G10
 131185427.431 7 102222395.72246  24963758.400    24963755.200          45.950
        36.450
 114204315.096 8  88990364.44447  21732353.860    21732348.940          50.750
        44.150
 121480861.941 8  94660400.06847  23117035.160    23117033.960          49.750
        42.950
 116751217.131 8  90974977.52047  22217011.440    22217007.780          50.250
        45.350
 118789270.074 8  92563073.94247  22604837.140    22604833.040          50.000
        42.400
 125832192.644 8  98051032.54446  23945069.060    23945064.580          48.100
        40.600
 122077283.258 8  95125155.15147  23230530.360    23230526.580          49.200
        43.550
 119300421.058 8  92961362.83446  22702111.940    22702108.140          49.250
        41.850
 109187404.738 8  85081082.16748  20777660.880    20777654.240          50.850
        48.200
 117227216.730 8  91345874.12547  22307593.980    22307587.280          50.450
        43.900
 109554953.020 8  85367499.61747  20847607.100    20847602.380          50.700
        47.400
 11  9  5  0 44 30.0000000  0 11G12G13G25G29G04G31G05G30G02G23G10
 131242112.745 7 102266566.05546  24974545.300    24974542.000          45.900
        37.400
 114194443.367 8  88982672.18347  21730475.440    21730470.440          50.550
        44.800
 121520920.901 8  94691614.82747  23124658.120    23124656.940          49.200
        43.300
 116717981.625 8  90949079.72947  22210686.980    22210683.160          49.950
        45.900
 118838666.357 8  92601564.54747  22614237.020    22614232.860          49.700
        42.850
 125870875.948 7  98081175.36646  23952430.340    23952425.820          47.800
        41.300
 122025499.049 8  95084803.84747  23220676.080    23220672.320          48.900
        43.700
 119336102.194 8  92989166.31346  22708901.880    22708898.060          49.150
        41.900
 109186480.202 8  85080361.76148  20777484.860    20777478.320          50.600
        48.650
 117246320.043 8  91360759.81547  22311229.120    22311222.540          50.150
        44.000
 109552082.870 8  85365263.13047  20847060.900    20847056.240          50.550
        47.650
 11  9  5  0 44 45.0000000  0 11G12G13G25G29G04G31G05G30G02G23G10
 131298832.271 7 102310763.03146  24985338.800    24985335.660          45.350
        37.850
 114184741.021 8  88975111.91047  21728629.220    21728624.100          50.600
        44.250
 121561092.297 8  94722917.21047  23132302.460    23132301.380          49.250
        43.200
 116684868.464 8  90923277.27747  22204385.800    22204381.760          49.800
        45.850
 118888143.441 8  92640118.13947  22623652.240    22623648.180          49.750
        42.650
 125909665.378 8  98111400.91246  23959811.780    23959807.040          48.000
        39.900
 121973786.725 8  95044508.52647  23210835.460    23210831.780          49.150
        43.550
 119371919.875 8  93017076.18247  22715717.820    22715714.020          49.100
        42.350
 109185702.653 8  85079755.88048  20777336.880    20777330.340          50.700
        48.750
 117265573.476 8  91375762.49047  22314892.880    22314886.360          50.450
        43.450
 109549377.919 8  85363155.41747  20846546.120    20846541.460          50.650
        47.650
 11  9  5  0 45  0.0000000  0 11G12G13G25G29G04G31G05G30G02G23G10
 131355585.911 7 102354986.58945  24996138.620    24996135.300          44.700
        35.050
 114175208.277 8  88967683.79547  21726815.220    21726810.020          50.650
        44.300
 121601375.804 8  94754306.94947  23139968.140    23139967.020          49.800
        43.100
 116651877.753 8  90897570.25047  22198107.860    22198103.740          50.000
        46.100
 118937700.672 8  92678734.15547  22633082.660    22633078.740          49.850
        42.350
 125948560.520 8  98141708.81746  23967213.400    23967208.420          48.300
        41.150
 121922146.695 8  95004269.55647  23201008.720    23201004.980          49.300
        43.950
 119407873.779 8  93045092.21147  22722559.620    22722555.780          48.950
        42.200
 109185072.128 8  85079264.55148  20777216.920    20777210.380          50.800
        48.550
 117284976.740 8  91390881.89647  22318585.200    22318578.560          50.550
        43.650
 109546838.229 8  85361176.47947  20846062.880    20846058.120          50.850
        47.450
 11  9  5  0 45 15.0000000  0 11G12G13G25G29G04G31G05G30G02G23G10
 131412371.198 7 102399234.87445  25006944.560    25006940.740          45.800
        35.500
 114165843.057 8  88960386.19947  21725033.080    21725027.800          50.650
        43.600
 121641768.983 8  94785782.15647  23147654.760    23147653.420          49.700
        42.600
 116619007.914 8  90871957.38847  22191853.020    22191848.880          50.250
        45.700
 118987335.693 8  92717410.78546  22642527.960    22642524.020          49.850
        41.900
 125987559.010 8  98172097.22246  23974634.680    23974629.800          48.100
        40.100
 121870577.195 8  94964085.58347  23191195.360    23191191.660          49.300
        43.350
 119443961.537 8  93073212.53846  22729426.860    22729423.060          49.000
        41.750
 109184586.770 8  85078886.35248  20777124.580    20777118.020          50.750
        48.250
 117304527.700 8  91406116.39647  22322305.600    22322298.880          50.400
        43.200
 109544461.710 8  85359324.68947  20845610.660    20845605.840          50.750
        47.350
 11  9  5  0 45 30.0000000  0 11G12G13G25G29G04G31G05G30G02G23G10
 131469188.256 7 102443507.85046  25017756.560    25017753.080          45.250
        37.250
 114156646.109 8  88953219.73047  21723282.940    21723277.680          50.450
        44.100
 121682272.043 8  94817342.97847  23155362.220    23155360.800          49.550
        42.800
 116586259.789 8  90846439.37747  22185621.300    22185617.240          50.050
        45.900
 119037048.928 8  92756148.35647  22651988.120    22651984.300          49.700
        42.700
 126026661.091 7  98202566.38246  23982075.560    23982070.780          47.900
        40.750
 121819078.956 8  94923957.12347  23181395.540    23181391.800          49.050
        43.900
 119480183.356 8  93101437.31646  22736319.600    22736315.800          48.800
        41.900
 109184247.024 8  85078621.62348  20777059.940    20777053.360          50.750
        48.700
 117324226.545 8  91421466.11947  22326054.120    22326047.480          50.200
        43.900
 109542248.904 8  85357600.45747  20845189.540    20845184.680          50.750
        47.700
 11  9  5  0 45 45.0000000  0 11G12G13G25G29G04G31G05G30G02G23G10
 131526038.903 7 102487806.99045  25028574.680    25028571.620          45.050
        34.900
 114147619.785 8  88946186.22847  21721565.300    21721560.060          50.700
        44.350
 121722886.922 8  94848990.92747  23163090.980    23163089.620          49.750
        42.250
 116553635.827 8  90821018.11647  22179413.200    22179409.180          50.150
        46.150
 119086842.283 8  92794948.38447  22661463.560    22661459.640          49.950
        42.800
 126065868.579 7  98233117.62546  23989536.380    23989531.800          47.650
        41.650
 121767654.551 8  94883886.18647  23171609.740    23171606.000          49.200
        43.650
 119516541.060 8  93129767.98846  22743238.220    22743234.460          48.850
        41.900
 109184055.058 8  85078472.03948  20777023.400    20777016.780          50.900
        48.450
 117344075.458 8  91436932.80047  22329831.240    22329824.720          50.350
        43.950
 109540201.968 8  85356005.48747  20844799.980    20844795.080          50.800
        47.650
 11  9  5  0 46  0.0000000  0 11G12G13G25G29G04G31G05G30G02G23G10
 131582919.520 7 102532129.56545  25039398.800    25039395.080          45.300
        35.850
 114138760.846 8  88939283.15547  21719879.520    21719874.340          50.600
        44.600
 121763609.986 8  94880723.19047  23170840.420    23170839.000          49.700
        43.000
 116521132.883 8  90795691.15747  22173228.160    22173224.000          50.250
        45.700
 119136712.049 8  92833807.96047  22670953.520    22670949.460          49.850
        42.700
 126105178.102 7  98263748.40546  23997016.640    23997012.380          47.450
        40.850
 121716301.020 8  94843870.47047  23161837.420    23161833.680          49.100
        43.800
 119553031.159 8  93158201.81546  22750182.020    22750178.240          48.800
        41.650
 109184007.744 8  85078435.16148  20777014.420    20777007.740          50.800
        48.150
 117364070.965 8  91452513.68247  22333636.180    22333629.680          50.150
        43.450
 109538317.528 8  85354537.08847  20844441.380    20844436.460          50.800
        47.300
 11  9  5  0 46 15.0000000  0 11G12G13G25G29G04G31G05G30G02G23G10
 131639832.878 7 102576477.58346  25050228.900    25050225.920          44.350
        36.950
 114130072.383 8  88932512.92047  21718226.220    21718221.080          50.700
        44.250
 121804443.935 8  94912541.84947  23178610.900    23178609.360          49.750
        42.850
 116488754.208 8  90770461.03147  22167066.760    22167062.580          50.150
        46.100
 119186661.183 8  92872729.34847  22680458.560    22680454.340          49.900
        42.000
 126144592.266 7  98294460.68646  24004516.800    24004512.700          47.400
        41.250
 121665021.703 8  94803912.59847  23152079.240    23152075.460          49.250
        42.900
 119589656.279 8  93186740.87146  22757151.480    22757147.760          48.650
        41.800
 109184108.210 8  85078513.45048  20777033.560    20777026.840          50.750
        48.450
 117384215.868 8  91468211.00147  22337469.560    22337463.120          50.350
        43.400
 109536598.821 8  85353197.87347  20844114.300    20844109.400          50.650
        47.400
 11  9  5  0 46 30.0000000  0 11G12G13G25G29G04G31G05G30G02G23G10
 131696775.295 7 102620848.20746  25061064.640    25061061.960          45.600
        37.250
 114121551.185 8  88925873.02547  21716604.780    21716599.540          50.950
        44.400
 121845385.107 8  94944444.05247  23186401.800    23186400.320          49.850
        42.600
 116456496.940 8  90745325.50647  22160928.440    22160924.320          50.250
        45.650
 119236685.762 8  92911709.54947  22689978.000    22689973.680          49.850
        42.050
 126184107.477 7  98325251.73446  24012036.200    24012032.120          47.150
        41.350
 121613813.605 8  94764010.22547  23142334.680    23142330.700          49.450
        42.950
 119626412.845 8  93215382.34546  22764145.960    22764142.320          48.600
        41.200
 109184352.984 8  85078704.18148  20777080.140    20777073.440          50.800
        48.350
 117404506.768 8  91484022.08447  22341330.820    22341324.380          50.350
        43.650
 109535042.495 8  85351985.16647  20843818.100    20843813.240          50.700
        47.000
 11  9  5  0 46 45.0000000  0 11G12G13G25G29G04G31G05G30G02G23G10
 131753749.399 7 102665243.64845  25071906.620    25071903.400          44.550
        35.850
 114113200.282 8  88919365.83947  21715015.740    21715010.480          50.550
        45.150
 121886436.135 8  94976431.86947  23194213.600    23194212.200          49.200
        43.100
 116424364.027 8  90720286.88047  22154813.720    22154809.680          49.800
        46.300
 119286788.695 8  92950750.79247  22699512.280    22699507.860          49.200
        42.450
 126223726.235 7  98356123.46347  24019575.380    24019571.580          46.850
        42.450
 121562679.901 8  94724165.80847  23132604.280    23132600.120          48.700
        44.250
 119663303.305 8  93244128.15847  22771166.040    22771162.460          48.250
        42.300
 109184745.007 8  85079009.64148  20777154.740    20777148.080          50.300
        48.700
 117424946.415 8  91499949.08547  22345220.380    22345213.940          49.800
        44.400
 109533651.287 8  85350901.11047  20843553.280    20843548.480          50.150
        47.800
 11  9  5  0 47  0.0000000  0 11G12G13G25G29G04G31G05G30G02G23G10
 131810752.718 7 102709661.82346  25082753.900    25082750.500          44.950
        37.750
 114105017.667 8  88912989.76847  21713458.720    21713453.420          50.700
        44.900
 121927594.543 8  95008503.34147  23202045.800    23202044.380          49.450
        42.850
 116392353.786 8  90695343.84947  22148722.360    22148718.300          49.950
        46.150
 119336967.467 8  92989851.13946  22709060.960    22709056.440          49.600
        41.950
 126263446.299 7  98387074.16746  24027133.960    24027129.960          47.800
        40.550
 121511618.839 8  94684377.99447  23122887.700    23122883.500          49.000
        43.950
 119700325.360 8  93272976.50946  22778211.060    22778207.520          48.250
        41.750
 109185282.269 8  85079428.29948  20777256.980    20777250.400          50.600
        48.600
 117445532.502 8  91515990.18247  22349137.780    22349131.360          50.150
        44.050
 109532423.309 8  85349944.23747  20843319.560    20843314.780          50.550
        47.600
 11  9  5  0 47 15.0000000  0 11G12G13G25G29G04G31G05G30G02G23G10
 131867785.113 7 102754102.53646  25093606.980    25093603.940          46.700
        37.900
 114097003.735 8  88906745.14847  21711933.760    21711928.460          50.850
        44.450
 121968860.292 8  95040658.44447  23209898.400    23209896.940          49.450
        42.450
 116360466.756 8  90670496.80747  22142654.400    22142650.280          50.000
        45.850
 119387221.989 8  93029010.49246  22718624.040    22718619.460          49.550
        41.850
 126303267.442 7  98418103.61446  24034711.740    24034707.600          47.400
        40.100
 121460630.990 8  94644647.23847  23113184.960    23113180.840          49.350
        43.300
 119737478.847 8  93301927.25346  22785281.060    22785277.640          48.350
        41.700
 109185965.053 8  85079960.32948  20777386.860    20777380.380          50.600
        48.350
 117466265.085 8  91532145.42547  22353083.080    22353076.640          50.400
        44.000
 109531358.694 8  85349114.64947  20843116.940    20843112.160          50.550
        47.250
 11  9  5  0 47 30.0000000  0 11G12G13G25G29G04G31G05G30G02G23G10
 131924847.152 7 102798566.41345  25104465.740    25104462.340          46.050
        35.550
 114089159.007 8  88900632.39847  21710440.980    21710435.640          50.900
        44.950
 122010233.704 8  95072897.46247  23217771.500    23217770.080          49.700
        42.600
 116328703.695 8  90645746.36847  22136610.060    22136605.940          50.100
        46.200
 119437552.719 8  93068229.22146  22728201.620    22728197.220          49.600
        41.750
 126343190.044 7  98449212.12146  24042308.840    24042304.500          47.250
        40.000
 121409717.148 8  94604974.12747  23103496.420    23103492.260          49.600
        43.600
 119774764.136 8  93330980.71346  22792376.120    22792372.780          48.450
        41.900
 109186794.027 8  85080606.28448  20777544.540    20777538.120          50.700
        48.450
 117487144.679 8  91548415.21047  22357056.400    22357050.040          50.400
        44.000
 109530457.976 8  85348412.75647  20842945.520    20842940.820          50.550
        47.450
 11  9  5  0 47 45.0000000  0 11G12G13G25G29G04G31G05G30G02G23G10
 131981939.348 7 102843053.83845  25115330.040    25115326.140          46.100
        34.950
 114081484.601 8  88894652.31847  21708980.560    21708975.200          50.850
        44.900
 122051715.398 8  95105220.85247  23225665.260    23225663.820          49.650
        42.500
 116297065.967 8  90621093.60547  22130589.560    22130585.540          50.250
        46.250
 119487960.260 8  93107507.81346  22737793.840    22737789.440          49.800
        41.700
 126383214.801 7  98480400.25346  24049925.200    24049920.800          47.550
        40.350
 121358878.579 8  94565359.67047  23093822.200    23093817.920          49.550
        43.650
 119812181.820 8  93360137.33146  22799496.400    22799493.220          48.500
        41.800
 109187770.153 8  85081366.91048  20777730.260    20777723.860          50.800
        48.650
 117508172.088 8  91564800.20447  22361057.900    22361051.500          50.550
        44.100
 109529722.242 8  85347839.44247  20842805.520    20842800.880          50.700
        47.350
 11  9  5  0 48  0.0000000  0 11G12G13G25G29G04G31G05G30G02G23G10
 132039058.856 7 102887562.54446  25126199.740    25126196.180          46.900
        38.300
 114073978.353 8  88888803.29247  21707552.140    21707546.840          50.750
        44.700
 122093302.722 8  95137626.54447  23233579.080    23233577.660          49.550
        42.550
 116265551.535 8  90596536.89847  22124592.580    22124588.600          50.300
        46.150
 119538442.156 8  93146844.36847  22747400.220    22747395.900          49.800
        42.800
 126423339.057 7  98511665.91346  24057560.560    24057555.920          47.050
        40.500
 121308113.386 8  94525802.39147  23084161.920    23084157.600          49.650
        44.200
 119849729.251 8  93389395.03346  22806641.380    22806638.180          48.400
        41.850
 109188890.941 8  85082240.24848  20777943.560    20777937.080          50.850
        48.700
 117529344.760 8  91581298.39247  22365087.040    22365080.540          50.550
        44.000
 109529149.172 8  85347392.89947  20842696.500    20842691.880          50.700
        47.550
 11  9  5  0 48 15.0000000  0 11G12G13G25G29G04G31G05G30G02G23G10
 132096205.829 7 102932092.57946  25137074.560    25137071.440          45.700
        37.350
 114066640.881 8  88883085.79447  21706155.860    21706150.580          50.900
        44.600
 122134995.908 8  95170114.72947  23241513.000    23241511.640          49.650
        42.800
 116234161.256 8  90572076.93747  22118619.240    22118615.240          50.100
        46.650
 119588998.538 8  93186238.93947  22757020.800    22757016.640          49.850
        42.600
 126463563.063 7  98543009.32246  24065214.840    24065210.220          47.250
        40.550
 121257422.429 8  94486302.97447  23074515.800    23074511.400          49.650
        43.800
 119887406.707 8  93418754.08146  22813811.180    22813808.000          48.650
        41.850
 109190157.342 8  85083227.06348  20778184.620    20778178.080          50.800
        48.650
 117550663.154 8  91597910.12347  22369143.880    22369137.320          50.600
        44.050
 109528739.377 8  85347073.59047  20842618.560    20842613.900          50.700
        47.650
 11  9  5  0 48 30.0000000  0 11G12G13G25G29G04G31G05G30G02G23G10
 132153384.383 7 102976647.28845  25147955.260    25147951.400          45.850
        32.000
 114059476.455 8  88877503.12847  21704792.520    21704787.160          51.000
        44.850
 122176798.911 8  95202688.50547  23249467.860    23249466.480          49.550
        42.850
 116202899.444 8  90547717.08547  22112670.340    22112666.280          50.100
        46.550
 119639633.311 8  93225694.59247  22766656.360    22766652.180          49.900
        42.550
 126503890.752 7  98574433.49946  24072888.880    24072884.520          47.550
        41.000
 121206810.265 8  94446864.94147  23064884.640    23064880.160          49.650
        44.250
 119925218.101 8  93448217.50547  22821006.460    22821003.200          48.650
        42.000
 109191573.482 8  85084330.53748  20778454.120    20778447.600          50.800
        48.600
 117572131.264 8  91614638.53147  22373229.240    22373222.600          50.650
        43.900
 109528497.044 8  85346884.79547  20842572.500    20842567.780          50.700
        47.700
 11  9  5  0 48 45.0000000  0 11G12G13G25G29G04G31G05G30G02G23G10
 132210589.811 7 103021222.96746  25158841.260    25158836.920          46.050
        37.050
 114052480.938 8  88872052.07847  21703461.360    21703455.940          51.050
        44.750
 122218707.141 8  95235344.25147  23257442.700    23257441.360          49.550
        42.250
 116171762.334 8  90523454.41247  22106745.160    22106741.100          50.400
        46.300
 119690342.052 8  93265207.88246  22776305.920    22776301.800          49.850
        41.850
 126544317.603 7  98605934.93146  24080581.820    24080577.460          47.300
        40.400
 121156272.965 8  94407485.24547  23055267.700    23055263.100          49.700
        43.650
 119963158.844 8  93477781.72546  22828226.420    22828223.100          48.650
        41.650
 109193135.189 8  85085547.43948  20778751.300    20778744.860          50.750
        48.600
 117593744.602 8  91631480.08947  22377342.220    22377335.360          50.800
        43.900
 109528417.934 8  85346823.16447  20842557.500    20842552.700          50.850
        47.700
 11  9  5  0 49  0.0000000  0 11G12G13G25G29G04G31G05G30G02G23G10
 132267821.383 7 103065818.91946  25169732.020    25169728.660          44.350
        39.150
 114045653.657 8  88866732.13547  21702162.180    21702156.740          51.000
        44.250
 122260719.505 8  95268081.14347  23265437.400    23265435.960          49.700
        42.000
 116140749.345 8  90499288.46447  22100843.600    22100839.520          50.350
        45.950
 119741123.669 8  93304777.96447  22785969.300    22785965.280          49.750
        42.150
 126584842.527 7  98637512.79446  24088293.460    24088289.300          47.400
        39.950
 121105810.073 8  94368163.54447  23045664.900    23045660.240          49.850
        43.450
 120001227.774 8  93507445.82446  22835470.780    22835467.380          48.850
        41.650
 109194841.554 8  85086877.06848  20779076.020    20779069.600          50.850
        48.450
 117615502.265 8  91648434.11247  22381482.660    22381475.580          50.650
        43.400
 109528501.216 8  85346888.06547  20842573.440    20842568.640          50.950
        47.500
 11  9  5  0 49 15.0000000  0 11G12G13G25G29G04G31G05G30G02G23G10
 132325081.287 7 103110436.99845  25180628.200    25180625.060          45.850
        35.400
 114038997.400 8  88861545.43747  21700895.540    21700890.100          51.000
        44.950
 122302838.498 8  95300901.13847  23273452.380    23273450.920          49.650
        42.450
 116109863.487 8  90475221.59847  22094966.160    22094962.180          50.050
        46.650
 119791980.715 8  93344406.78547  22795647.040    22795643.100          49.400
        42.350
 126625467.953 7  98669168.94946  24096024.200    24096020.040          47.350
        40.600
 121055424.693 8  94328902.23347  23036076.880    23036072.280          49.800
        44.400
 120039427.444 8  93537211.78247  22842740.040    22842736.540          48.800
        42.000
 109196695.515 8  85088321.70748  20779428.920    20779422.400          50.900
        48.750
 117637406.929 8  91665502.68647  22385651.060    22385643.780          50.750
        43.800
 109528749.784 8  85347081.78847  20842620.800    20842616.020          50.900
        47.750
 11  9  5  0 49 30.0000000  0 11G12G13G25G29G04G31G05G30G02G23G10
 132382366.321 7 103155074.79145  25191529.240    25191525.180          44.000
        34.350
 114032509.552 8  88856489.97547  21699660.940    21699655.540          50.950
        45.150
 122345060.890 8  95333801.68347  23281487.120    23281485.580          49.750
        42.050
 116079102.104 8  90451251.71447  22089112.380    22089108.360          50.150
        46.150
 119842910.012 8  93384091.90546  22805338.420    22805334.620          49.100
        41.900
 126666190.636 7  98700900.87846  24103773.460    24103769.280          47.300
        39.800
 121005114.481 8  94289699.48547  23026503.160    23026498.680          49.800
        44.350
 120077754.651 8  93567077.10646  22850033.540    22850029.920          49.100
        41.600
 109198694.339 8  85089879.23448  20779809.380    20779802.720          51.000
        48.650
 117659455.492 8  91682683.35147  22389846.820    22389839.380          50.650
        43.700
 109529160.481 8  85347401.78447  20842698.960    20842694.160          50.850
        47.750
 11  9  5  0 49 45.0000000  0 11G12G13G25G29G04G31G05G30G02G23G10
 132439681.966 7 103199736.21746  25202435.860    25202432.500          44.500
        38.000
 114026195.627 8  88851570.02147  21698459.380    21698454.060          50.850
        44.900
 122387391.964 8  95366786.92147  23289542.480    23289540.860          49.500
        42.050
 116048471.238 8  90427383.53147  22083283.480    22083279.360          50.300
        45.750
 119893917.057 8  93423837.63446  22815044.600    22815040.880          49.100
        40.850
 126707016.034 7  98732712.87246  24111542.340    24111538.480          47.800
        41.400
 120954884.889 8  94250559.55247  23016944.780    23016940.240          49.800
        44.300
 120116214.601 8  93597045.89146  22857352.340    22857348.740          48.800
        41.300
 109200843.375 8  85091553.80848  20780218.360    20780211.620          50.900
        48.450
 117681653.487 8  91699980.46547  22394070.980    22394063.520          50.750
        43.450
 109529738.979 8  85347852.49247  20842809.040    20842804.240          50.950
        47.600
 11  9  5  0 50  0.0000000  0 11G12G13G25G29G04G31G05G30G02G23G10
 132497019.313 7 103244414.63346  25213346.820    25213344.060          44.800
        39.400
 114020047.161 8  88846779.02447  21697289.280    21697284.060          50.850
        45.050
 122429822.915 8  95399849.98347  23297616.780    23297615.100          49.050
        42.400
 116017962.554 8  90403610.54147  22077477.860    22077473.600          49.950
        46.300
 119944992.870 8  93463636.96246  22824763.940    22824760.220          48.950
        41.100
 126747935.217 7  98764597.94946  24119329.120    24119325.020          47.550
        40.950
 120904728.038 8  94211476.31547  23007400.220    23007395.620          49.600
        44.600
 120154798.556 8  93627111.31947  22864694.640    22864691.080          48.500
        42.200
 109203134.208 8  85093338.85048  20780654.260    20780647.500          50.700
        48.600
 117703992.078 8  91717387.13947  22398321.920    22398314.520          50.550
        43.350
 109530476.957 8  85348427.50347  20842949.520    20842944.740          50.750
        47.900
 11  9  5  0 50 15.0000000  0 11G12G13G25G29G04G31G05G30G02G23G10
 132554384.897 7 103289115.07145  25224262.920    25224260.180          42.350
        35.900
 114014071.445 8  88842122.62247  21696152.140    21696146.980          50.850
        44.900
 122472360.509 8  95432996.13846  23305711.380    23305709.860          49.150
        41.850
 115987583.318 8  90379938.41747  22071696.840    22071692.620          49.950
        45.950
 119996144.163 8  93503495.09546  22834497.660    22834493.840          49.000
        41.200
 126788954.933 7  98796561.34446  24127135.020    24127130.800          47.550
        40.400
 120854651.163 8  94172455.38647  22997870.800    22997866.340          49.350
        44.200
 120193513.195 8  93657278.55046  22872061.780    22872058.200          48.350
        41.100
 109205573.966 8  85095239.90748  20781118.480    20781111.780          50.650
        48.350
 117726478.264 8  91734908.83747  22402600.900    22402593.460          50.400
        43.300
 109531381.501 8  85349132.32047  20843121.680    20843116.900          50.750
        47.550
 11  9  5  0 50 30.0000000  0 11G12G13G25G29G04G31G05G30G02G23G10
 132611774.448 7 103333834.21046  25235183.720    25235180.820          45.700
        38.850
 114008264.373 8  88837597.62447  21695047.040    21695041.980          50.900
        45.000
 122515000.271 8  95466221.92446  23313825.440    23313823.940          49.300
        41.300
 115957329.687 8  90356364.18147  22065939.740    22065935.580          50.100
        46.150
 120047366.623 8  93543408.68146  22844244.980    22844241.100          49.200
        41.050
 126830070.924 7  98828599.74846  24134959.120    24134954.840          47.150
        40.700
 120804650.522 8  94133493.86647  22988355.900    22988351.600          49.250
        43.950
 120232354.127 8  93687544.19746  22879452.860    22879449.400          48.000
        41.150
 109208158.736 8  85097254.00748  20781610.360    20781603.680          50.800
        48.450
 117749107.753 8  91752542.20247  22406907.080    22406899.600          50.450
        43.050
 109532448.420 8  85349963.67647  20843324.720    20843319.900          50.850
        47.650
 11  9  5  0 50 45.0000000  0 11G12G13G25G29G04G31G05G30G02G23G10
 132669187.282 7 103378571.49446  25246109.200    25246106.500          44.100
        41.050
 114002625.752 8  88833203.89347  21693974.000    21693969.000          50.700
        44.750
 122557741.682 8  95499526.91647  23321958.880    23321957.380          49.300
        42.450
 115927201.812 8  90332887.93447  22060206.580    22060202.380          50.050
        46.600
 120098659.881 8  93583377.44846  22854005.860    22854001.840          49.400
        41.750
 126871282.513 7  98860712.66846  24142801.320    24142797.020          47.100
        40.150
 120754726.311 8  94094591.90447  22978855.560    22978851.340          49.300
        44.550
 120271320.748 7  93717907.78546  22886867.880    22886864.500          47.950
        40.600
 109210888.165 8  85099380.82948  20782129.800    20782123.060          50.850
        48.600
 117771880.063 8  91770286.85547  22411240.460    22411233.040          50.450
        43.300
 109533677.221 8  85350921.05647  20843558.560    20843553.700          50.800
        47.750
 11  9  5  0 51  0.0000000  0 11G12G13G25G29G04G31G05G30G02G23G10
 132726628.519 7 103423330.75246  25257039.580    25257037.300          44.600
        37.100
 113997160.975 8  88828945.64047  21692934.040    21692929.040          50.800
        45.050
 122600589.806 8  95532915.05047  23330112.680    23330111.240          49.350
        42.000
 115897205.360 8  90309514.08747  22054498.420    22054494.200          50.100
        46.300
 120150028.954 8  93623405.27646  22863781.180    22863777.060          49.650
        41.900
 126912594.856 7  98892904.08246  24150662.740    24150658.480          47.350
        40.200
 120704884.205 8  94055753.91147  22969370.860    22969366.660          49.600
        43.950
 120310418.152 8  93748373.28046  22894307.780    22894304.420          48.100
        40.650
 109213767.614 8  85101624.55248  20782677.780    20782670.980          50.850
        48.300
 117794800.420 8  91788146.85847  22415602.040    22415594.760          50.450
        43.250
 109535073.739 8  85352009.24147  20843824.360    20843819.460          50.950
        47.550
 11  9  5  0 51 15.0000000  0 11G12G13G25G29G04G31G05G30G02G23G10
 132784092.001 7 103468107.51346  25267974.740    25267971.760          47.400
        36.850
 113991864.427 8  88824818.46247  21691926.100    21691921.120          50.850
        44.650
 122643538.568 8  95566381.60946  23338285.540    23338284.040          49.150
        41.700
 115867334.727 8  90286238.28147  22048814.220    22048810.000          50.250
        46.200
 120201467.974 8  93663487.67046  22873569.840    22873565.740          49.750
        41.800
 126954001.995 7  98925169.37046  24158542.060    24158538.440          47.100
        40.000
 120655118.630 8  94016975.56047  22959900.720    22959896.640          49.450
        44.150
 120349640.226 8  93778935.92346  22901771.460    22901768.280          48.150
        40.900
 109216791.322 8  85103980.69248  20783253.080    20783246.360          50.700
        48.300
 117817862.924 8  91806117.63247  22419990.560    22419983.440          50.300
        43.050
 109536632.093 8  85353223.55847  20844120.960    20844115.960          51.000
        47.350
 11  9  5  0 51 30.0000000  0 11G12G13G25G29G04G31G05G30G02G23G10
 132841578.923 7 103512902.53646  25278914.300    25278911.180          45.600
        37.300
 113986737.901 8  88820823.77447  21690950.520    21690945.720          50.650
        44.700
 122686589.132 8  95599927.49946  23346477.840    23346476.380          49.600
        41.750
 115837591.683 8  90263061.89247  22043154.300    22043150.160          50.200
        46.100
 120252977.818 8  93703625.19947  22883372.020    22883367.840          49.850
        42.200
 126995504.859 7  98957509.24846  24166439.580    24166436.140          46.250
        40.000
 120605431.542 8  93978258.35247  22950445.540    22950441.560          49.350
        44.100
 120388988.179 7  93809596.66046  22909259.160    22909255.940          47.950
        41.300
 109219960.837 8  85106450.39448  20783856.080    20783849.520          50.700
        48.350
 117841068.887 8  91824200.18847  22424406.360    22424399.380          50.250
        42.900
 109538353.464 8  85354564.86547  20844448.540    20844443.520          50.850
        47.350
 11  9  5  0 51 45.0000000  0 11G12G13G25G29G04G31G05G30G02G23G10
 132899090.099 7 103557716.29246  25289858.060    25289855.200          45.750
        36.250
 113981782.150 8  88816962.18347  21690007.400    21690002.720          50.650
        45.250
 122729741.949 8  95633553.05747  23354689.600    23354688.080          49.550
        42.150
 115807977.377 8  90239985.81647  22037518.920    22037514.820          50.300
        46.550
 120304559.066 8  93743818.37747  22893187.700    22893183.380          49.750
        42.400
 127037104.043 7  98989924.15846  24174355.460    24174352.420          46.400
        40.300
 120555824.023 8  93939603.16747  22941005.420    22941001.660          49.450
        44.250
 120428462.402 8  93840355.78546  22916770.920    22916767.580          48.700
        40.800
 109223277.053 8  85109034.44648  20784487.080    20784480.660          50.850
        48.650
 117864419.070 8  91842395.12547  22428849.700    22428842.820          50.400
        43.150
 109540238.748 8  85356033.89747  20844807.300    20844802.320          50.900
        47.750
 11  9  5  0 52  0.0000000  0 11G12G13G25G29G04G31G05G30G02G23G10
 132956623.736 7 103602547.71045  25300806.660    25300803.200          47.850
        34.600
 113976996.090 8  88813232.81647  21689096.520    21689091.980          50.600
        45.100
 122772995.625 8  95667257.19847  23362920.500    23362919.020          49.300
        42.850
 115778490.924 8  90217009.37347  22031907.860    22031903.740          50.300
        46.450
 120356210.589 8  93784066.32747  22903016.740    22903012.460          49.850
        42.600
 127078798.201 7  99022413.09246  24182289.580    24182286.380          47.150
        40.500
 120506295.319 8  93901009.38647  22931580.300    22931576.600          49.400
        44.750
 120468061.557 8  93871212.25446  22924306.480    22924303.080          48.750
        41.350
 109226738.894 8  85111732.00848  20785145.840    20785139.480          50.850
        48.750
 117887912.039 8  91860701.33247  22433320.200    22433313.440          50.200
        43.350
 109542286.706 8  85357629.63347  20845196.980    20845192.080          50.900
        47.700
 11  9  5  0 52 15.0000000  0 11G12G13G25G29G04G31G05G30G02G23G10
 133014180.431 7 103647397.10345  25311759.520    25311755.460          42.450
        35.900
 113972380.427 8  88809636.19247  21688218.080    21688213.560          50.600
        44.800
 122816350.548 8  95701040.24647  23371170.720    23371169.280          49.650
        42.200
 115749133.364 8  90194133.36447  22026321.340    22026317.160          50.450
        46.700
 120407932.702 8  93824369.25447  22912859.200    22912855.020          49.900
        42.100
 127120587.736 7  99054976.35146  24190241.840    24190238.820          46.950
        40.800
 120456846.349 8  93862477.73247  22922170.440    22922166.760          49.700
        44.650
 120507785.930 8  93902166.30346  22931865.860    22931862.520          48.650
        41.250
 109230346.973 8  85114543.50148  20785832.440    20785826.160          50.800
        48.450
 117911548.301 8  91879119.17547  22437817.920    22437811.300          50.200
        43.400
 109544498.269 8  85359352.90447  20845617.800    20845613.040          50.850
        47.650
 11  9  5  0 52 30.0000000  0 11G12G13G25G29G04G31G05G30G02G23G10
 133071762.522 7 103692266.25746  25322716.620    25322713.340          44.300
        37.050
 113967937.116 8  88806173.86547  21687372.520    21687367.940          50.700
        45.050
 122859808.296 8  95734903.41446  23379440.520    23379439.040          49.600
        41.950
 115719906.848 8  90171359.46647  22020759.740    22020755.560          50.350
        46.650
 120459727.020 8  93864728.49046  22922715.380    22922711.100          49.750
        41.700
 127162474.168 7  99087615.11746  24198212.720    24198209.500          47.250
        40.550
 120407479.435 8  93824010.02147  22912776.240    22912772.580          49.700
        44.250
 120547637.177 8  93933219.21046  22939449.360    22939445.920          48.800
        41.350
 109234103.312 8  85117470.51248  20786547.160    20786540.980          50.700
        48.700
 117935329.701 8  91897650.11847  22442343.320    22442336.760          50.300
        43.450
 109546875.295 8  85361205.11247  20846070.140    20846065.500          50.800
        47.700
 11  9  5  0 52 45.0000000  0 11G12G13G25G29G04G31G05G30G02G23G10
 133129363.927 7 103737150.55144  25333678.060    25333674.240          46.350
        28.800
 113963661.847 8  88802842.48547  21686559.000    21686554.340          50.800
        44.600
 122903364.187 8  95768843.06047  23387728.940    23387727.400          49.500
        42.350
 115690807.239 8  90148684.46647  22015222.280    22015218.180          50.400
        46.700
 120511589.002 8  93905140.46246  22932584.400    22932580.000          49.900
        41.900
 127204452.855 7  99120325.76246  24206201.180    24206197.740          47.400
        39.950
 120358190.481 8  93785603.07347  22903396.880    22903393.260          49.850
        44.150
 120587610.518 8  93964367.25246  22947056.080    22947052.680          48.650
        41.050
 109238003.560 8  85120509.69548  20787289.320    20787283.120          50.800
        48.700
 117959251.616 8  91916290.56147  22446895.520    22446889.060          50.350
        43.200
 109549413.325 8  85363182.77347  20846553.100    20846548.540          50.950
        47.500
 11  9  5  0 53  0.0000000  0 11G12G13G25G29G04G31G05G30G02G23G10
 133186987.354 6 103782051.98145  25344643.300    25344639.060          40.800
        32.400
 113959556.871 8  88799643.78647  21685777.880    21685773.140          50.700
        44.550
 122947019.914 8  95802860.47847  23396036.360    23396034.980          49.600
        42.200
 115661836.712 8  90126110.04447  22009709.420    22009705.280          50.600
        46.300
 120563520.259 8  93945606.42246  22942466.620    22942462.200          49.750
        41.200
 127246525.528 7  99153109.62446  24214207.480    24214204.000          47.000
        41.050
 120308981.780 8  93747258.64247  22894032.780    22894029.080          49.700
        44.350
 120627707.700 8  93995611.79546  22954686.340    22954682.900          48.350
        41.100
 109242049.643 8  85123662.49848  20788059.260    20788053.040          50.850
        48.400
 117983315.742 8  91935041.82647  22451474.820    22451468.480          50.350
        43.650
 109552114.316 8  85365287.41447  20847067.120    20847062.560          50.900
        47.550
 11  9  5  0 53 15.0000000  0 11G12G13G25G29G04G31G05G30G02G23G10
 133244635.138 7 103826972.20345  25355612.920    25355609.720          45.100
        35.600
 113955625.469 8  88796580.33947  21685029.800    21685024.980          50.700
        44.450
 122990778.442 8  95836958.02447  23404363.400    23404362.020          49.850
        42.100
 115632998.898 8  90103639.02947  22004221.800    22004217.600          50.800
        46.650
 120615523.769 8  93986128.66046  22952362.520    22952358.040          49.450
        41.100
 127288695.183 7  99185969.06346  24222232.280    24222228.760          46.750
        41.000
 120259857.051 8  93708979.64747  22884684.640    22884680.940          49.700
        44.350
 120667931.712 8  94026955.15946  22962340.700    22962337.320          48.700
        40.850
 109246244.927 8  85126931.59148  20788857.680    20788851.420          50.950
        48.750
 118007525.402 8  91953906.51647  22456081.780    22456075.480          50.400
        43.800
 109554981.629 8  85367521.68247  20847612.820    20847608.220          51.000
        47.850
 11  9  5  0 53 30.0000000  0 11G12G13G25G29G04G31G05G30G02G23G10
 133302301.290 7 103871906.86444  25366586.580    25366583.340          44.800
        29.500
 113951861.931 8  88793647.69647  21684313.600    21684308.800          50.650
        44.600
 123034633.862 8  95871131.06247  23412708.780    23412707.360          49.400
        42.350
 115604288.590 8  90081267.36847  21998758.440    21998754.160          50.550
        46.750
 120667593.816 8  94026702.75546  22962271.040    22962266.480          49.400
        40.500
 127330955.873 7  99218899.42646  24230274.320    24230270.720          46.950
        40.800
 120210810.936 8  93670761.90947  22875351.400    22875347.740          49.600
        44.800
 120708276.561 8  94058392.68146  22970018.040    22970014.700          48.150
        41.250
 109250583.791 8  85130312.53148  20789683.420    20789677.060          50.900
        48.750
 118031874.745 8  91972880.02047  22460715.340    22460708.980          50.250
        43.800
 109558009.625 8  85369881.18047  20848189.060    20848184.420          51.000
        47.750
 11  9  5  0 53 45.0000000  0 11G12G13G25G29G04G31G05G30G02G23G10
 133359990.878 7 103916859.82645  25377564.380    25377560.440          44.350
        31.100
 113948271.291 8  88790849.80347  21683630.300    21683625.580          50.650
        44.550
 123078590.807 8  95905383.20947  23421073.500    23421072.160          49.600
        42.200
 115575710.966 8  90058999.10247  21993320.300    21993316.020          50.600
        46.700
 120719734.948 8  94067332.20546  22972193.140    22972188.560          49.400
        41.400
 127373312.331 7  99251904.43646  24238334.680    24238330.820          47.200
        40.200
 120161848.777 8  93632609.59447  22866034.220    22866030.520          49.750
        44.250
 120748746.911 8  94089927.99446  22977719.220    22977716.040          48.050
        41.750
 109255071.295 8  85133809.29948  20790537.400    20790530.980          50.900
        48.800
 118056368.568 8  91991966.12247  22465376.340    22465369.960          50.300
        43.700
 109561203.278 8  85372369.75547  20848796.840    20848792.200          50.900
        47.800
 11  9  5  0 54  0.0000000  0 11G12G13G25G29G04G31G05G30G02G23G10
 133417699.389 7 103961827.46046  25388546.100    25388543.000          46.700
        37.650
 113944849.561 8  88788183.52247  21682979.160    21682974.500          50.650
        44.900
 123122644.689 8  95939710.90147  23429456.680    23429455.380          49.350
        42.850
 115547261.846 8  90036830.96547  21987906.600    21987902.320          50.500
        46.700
 120771942.690 8  94108013.50546  22982127.920    22982123.400          49.300
        41.000
 127415759.956 7  99284980.45446  24246412.300    24246408.260          47.050
        40.250
 120112966.603 8  93594519.60347  22856732.320    22856728.480          49.700
        44.400
 120789338.156 8  94121557.52346  22985443.460    22985440.260          48.100
        41.000
 109259703.083 8  85137418.48648  20791418.820    20791412.340          50.900
        48.650
 118081002.285 8  92011161.21247  22470063.980    22470057.580          50.400
        43.300
 109564558.282 8  85374984.03647  20849435.260    20849430.640          50.750
        47.750
 11  9  5  0 54 15.0000000  0 11G12G13G25G29G04G31G05G30G02G23G10
 133475427.693 7 104006810.44345  25399531.580    25399528.960          44.600
        35.200
 113941598.042 8  88785649.83047  21682360.440    21682355.880          50.450
        44.300
 123166796.653 8  95974115.00347  23437858.520    23437857.340          49.450
        42.300
 115518943.167 8  90014764.46447  21982517.720    21982513.440          50.500
        46.450
 120824218.191 8  94148747.57146  22992075.580    22992071.220          49.400
        40.900
 127458299.905 7  99318128.44946  24254507.540    24254503.380          47.200
        40.050
 120064166.231 8  93556493.34747  22847445.880    22847442.000          49.650
        44.400
 120830051.453 8  94153282.14446  22993190.880    22993187.760          48.200
        41.150
 109264480.480 8  85141141.04848  20792328.020    20792321.400          50.950
        48.500
 118105777.331 8  92030466.43047  22474778.600    22474772.060          50.450
        43.550
 109568076.097 8  85377725.18747  20850104.680    20850100.080          50.850
        47.800
 11  9  5  0 54 30.0000000  0 11G12G13G25G29G04G31G05G30G02G23G10
 133533176.788 7 104051809.73144  25410520.840    25410517.400          44.900
        27.050
 113938517.979 8  88783249.75447  21681774.340    21681769.800          50.650
        45.000
 123211047.386 8  96008596.06947  23446279.140    23446278.040          49.550
        42.050
 115490756.113 8  89992800.54047  21977153.860    21977149.620          50.400
        46.600
 120876562.298 8  94189535.13846  23002036.360    23002031.920          49.350
        41.000
 127500932.770 7  99351348.82546  24262620.360    24262616.160          47.000
        39.950
 120015448.922 8  93518531.83147  22838175.300    22838171.460          49.650
        44.650
 120870887.441 8  94185102.36746  23000961.720    23000958.540          48.300
        41.400
 109269404.964 8  85144978.31248  20793265.200    20793258.560          50.900
        48.650
 118130694.376 8  92049882.28947  22479520.240    22479513.560          50.400
        43.300
 109571757.628 8  85380593.90447  20850805.240    20850800.680          50.900
        47.650
 11  9  5  0 54 45.0000000  0 11G12G13G25G29G04G31G05G30G02G23G10
 133590945.787 7 104096824.65846  25421514.140    25421510.580          46.100
        36.600
 113935609.154 8  88780983.13147  21681220.880    21681216.240          50.750
        44.900
 123255396.360 8  96043153.69647  23454718.540    23454717.340          49.550
        42.600
 115462700.637 8  89970939.14047  21971815.000    21971810.780          50.450
        46.400
 120928974.569 8  94230375.87346  23012010.100    23012005.660          49.400
        40.750
 127543658.218 7  99384641.35146  24270750.740    24270746.600          47.050
        40.200
 119966814.849 8  93480635.17647  22828920.600    22828916.780          49.750
        44.800
 120911845.634 7  94217017.83646  23008755.800    23008752.500          47.950
        40.600
 109274476.175 8  85148929.97148  20794230.260    20794223.620          50.900
        48.500
 118155753.039 8  92069408.51047  22484288.840    22484282.040          50.350
        43.700
 109575602.690 8  85383590.04647  20851536.920    20851532.420          50.750
        47.600
 11  9  5  0 55  0.0000000  0 11G12G13G25G29G04G31G05G30G02G23G10
 133648732.238 6 104141852.94046  25432510.540    25432507.800          40.550
        39.700
 113932869.245 8  88778848.12047  21680699.620    21680694.900          50.000
        45.850
 123299840.785 8  96077785.69947  23463176.040    23463174.740          48.300
        43.250
 115434774.593 8  89949178.59347  21966500.800    21966496.600          49.400
        47.750
 120981452.184 8  94271267.52547  23021996.220    23021991.880          48.450
        42.950
 127586473.276 7  99418003.70146  24278898.260    24278893.980          46.300
        41.300
 119918261.958 8  93442801.78147  22819681.340    22819677.460          48.650
        45.650
 120952923.111 7  94249026.23947  23016572.560    23016569.320          47.000
        42.100
 109279691.546 8  85152993.90848  20795222.700    20795216.100          50.050
        49.600
 118180950.779 8  92089043.09647  22489083.800    22489077.060          49.350
        44.350
 109579608.706 8  85386711.60648  20852299.200    20852294.780          49.900
        48.650
 11  9  5  0 55 15.0000000  0 11G12G13G25G29G04G31G05G30G02G23G10
 133706540.188 7 104186897.99346  25443511.080    25443508.640          45.300
        36.650
 113930302.551 8  88776848.09347  21680211.340    21680206.480          50.750
        45.100
 123344384.615 8  96112495.15547  23471652.420    23471651.240          49.050
        42.600
 115406982.521 8  89927522.44747  21961212.140    21961207.960          50.200
        46.900
 121033999.094 8  94312213.17346  23031995.560    23031991.300          49.150
        40.600
 127629382.012 7  99451439.04346  24287063.600    24287059.200          47.250
        39.450
 119869794.666 8  93405035.08147  22810458.360    22810454.420          49.600
        44.700
 120994123.945 7  94281130.77946  23024412.860    23024409.700          47.750
        41.400
 109285055.211 8  85157173.36948  20796243.320    20796236.760          50.650
        48.850
 118206291.637 8  92108789.21347  22493906.000    22493899.260          50.050
        42.850
 109583779.922 8  85389961.88047  20853092.960    20853088.580          50.650
        47.800
 11  9  5  0 55 30.0000000  0 11G12G13G25G29G04G31G05G30G02G23G10
 133764363.713 7 104231955.46845  25454514.720    25454510.900          43.800
        30.800
 113927904.006 8  88774979.08947  21679755.040    21679750.040          50.800
        44.900
 123389022.397 8  96147277.79946  23480146.660    23480145.580          48.950
        41.850
 115379319.573 8  89905966.90547  21955948.000    21955943.860          50.150
        46.900
 121086609.931 8  94353208.57546  23042007.040    23042002.780          48.950
        41.000
 127672378.972 7  99484943.13546  24295245.720    24295241.220          47.000
        40.700
 119821408.288 8  93367331.43747  22801250.820    22801246.680          49.850
        44.700
 121035442.615 8  94313327.11546  23032275.600    23032272.280          48.250
        41.000
 109290562.296 8  85161464.61648  20797291.300    20797284.720          50.750
        49.050
 118231770.314 8  92128642.71147  22498754.480    22498747.580          50.250
        43.100
 109588111.080 8  85393336.79047  20853917.180    20853912.820          50.700
        47.850
 11  9  5  0 55 45.0000000  0 11G12G13G25G29G04G31G05G30G02G23G10
 133822208.048 6 104277028.82745  25465521.620    25465518.740          37.600
        35.800
 113925678.525 8  88773244.95847  21679331.640    21679326.540          50.550
        45.350
 123433758.856 8  96182137.36546  23488659.740    23488658.520          48.600
        41.700
 115351791.056 8  89884516.11547  21950709.480    21950705.280          49.800
        47.000
 121139289.476 8  94394257.55546  23052031.520    23052027.380          48.400
        41.600
 127715468.939 7  99518519.71046  24303445.540    24303441.040          46.750
        40.650
 119773108.088 8  93329694.93147  22792059.620    22792055.280          49.300
        44.900
 121076883.838 7  94345618.98346  23040161.700    23040158.280          47.800
        41.600
 109296217.747 8  85165871.51648  20798367.520    20798360.820          50.550
        49.050
 118257391.584 8  92148607.33747  22503630.100    22503623.060          49.750
        43.250
 109592607.212 8  85396840.26147  20854772.780    20854768.380          50.300
        47.950
 11  9  5  0 56  0.0000000  0 11G12G13G25G29G04G31G05G30G02G23G10
 133880071.131 7 104322116.85746  25476532.620    25476530.300          45.800
        38.000
 113923624.620 8  88771644.52347  21678940.820    21678935.640          50.800
        44.650
 123478592.112 8  96217072.34946  23497191.140    23497189.700          48.750
        40.850
 115324395.674 8  89863169.05747  21945496.280    21945492.080          50.350
        46.600
 121192035.951 8  94435358.65746  23062068.800    23062064.840          49.000
        40.900
 127758650.169 7  99552167.38946  24311662.620    24311658.240          46.750
        39.600
 119724892.796 8  93292124.58247  22782884.540    22782880.020          49.950
        44.100
 121118445.685 8  94378004.80346  23048070.760    23048067.440          48.400
        40.700
 109302020.023 8  85170392.83048  20799471.640    20799464.880          51.000
        48.600
 118283153.743 8  92168681.72247  22508532.440    22508525.500          50.200
        42.550
 109597266.850 8  85400471.14347  20855659.440    20855655.100          50.800
        47.550
 11  9  5  0 56 15.0000000  0 11G12G13G25G29G04G31G05G30G02G23G10
 133937950.407 7 104367217.60845  25487546.940    25487544.260          44.050
        32.850
 113921740.059 8  88770176.02847  21678582.160    21678576.940          50.950
        44.700
 123523519.801 8  96252080.91646  23505740.560    23505739.160          49.250
        41.200
 115297131.583 8  89841924.31347  21940308.080    21940303.940          50.600
        46.400
 121244847.042 8  94476510.15546  23072118.360    23072114.580          49.150
        40.750
 127801920.139 7  99585884.20846  24319896.640    24319892.460          47.000
        40.100
 119676760.657 8  93254619.01747  22773725.320    22773720.740          50.200
        44.250
 121160125.809 8  94410482.82846  23056002.360    23055998.840          48.750
        40.650
 109307967.008 8  85175026.86448  20800603.300    20800596.460          51.050
        48.400
 118309054.455 8  92188864.08747  22513461.080    22513454.300          50.200
        42.450
 109602087.848 8  85404227.75947  20856576.820    20856572.500          51.000
        47.600
 11  9  5  0 56 30.0000000  0 11G12G13G25G29G04G31G05G30G02G23G10
                                  25498563.560    25498562.020          41.150
        31.950
 113920026.705 8  88768840.92647  21678256.140    21678250.880          51.000
        44.750
 123568542.922 8  96287163.84446  23514308.240    23514306.820          49.100
        41.100
 115270000.439 8  89820783.16247  21935145.180    21935141.080          50.650
        46.400
 121297723.737 8  94517712.71946  23082180.440    23082176.700          49.150
        40.650
 127845279.815 7  99619670.93046  24328147.780    24328143.440          47.350
        39.000
 119628713.505 8  93217179.68447  22764582.280    22764577.780          50.250
        44.600
 121201925.247 8  94443053.79246  23063956.560    23063952.920          48.800
        40.400
 109314060.179 8  85179774.85248  20801762.780    20801755.940          51.250
        48.450
 118335095.047 8  92209155.45147  22518416.400    22518409.740          50.550
        43.050
 109607071.653 8  85408111.25047  20857525.180    20857520.860          50.950
        47.500
 11  9  5  0 56 45.0000000  0 11G12G13G25G29G04G31G05G30G02G23G10
 134053773.286 7 104457474.93646  25509585.420    25509582.260          45.500
        38.800
 113918483.548 8  88767638.46047  21677962.520    21677957.180          50.600
        45.050
 123613660.234 8  96322320.16746  23522893.800    23522892.340          48.250
        41.750
 115243001.572 8  89799745.09247  21930007.480    21930003.420          50.000
        47.550
 121350664.951 8  94558965.62146  23092254.820    23092250.940          48.750
        41.800
 127888728.165 7  99653526.76846  24336415.760    24336411.320          46.600
        40.400
 119580750.646 8  93179806.05147  22755455.220    22755450.800          49.400
        45.450
 121243842.650 8  94475716.68746  23071933.240    23071929.500          48.100
        41.000
 109320298.413 8  85184635.81648  20802949.880    20802943.020          50.700
        49.200
 118361274.354 8  92229554.90547  22523398.180    22523391.540          49.850
        43.650
 109612217.223 8  85412120.80248  20858504.320    20858499.920          50.400
        48.150
 11  9  5  0 57  0.0000000  0 11G12G13G25G29G04G31G05G30G02G23G10
 134111703.817 6 104502615.51246  25520609.160    25520607.040          40.600
        36.350
 113917112.270 8  88766569.91547  21677701.640    21677696.200          50.850
        44.650
 123658873.093 8  96357550.93346  23531497.440    23531496.140          48.700
        41.300
 115216136.911 8  89778811.60347  21924895.340    21924891.260          50.500
        46.900
 121403672.078 8  94600269.83946  23102341.800    23102337.860          49.200
        41.700
 127932266.504 7  99687452.71446  24344700.820    24344696.600          46.850
        40.700
 119532874.052 8  93142499.62847  22746344.560    22746340.180          49.700
        45.200
 121285879.418 8  94508472.59846  23079932.600    23079928.880          48.100
        41.550
 109326683.686 8  85189611.40848  20804164.960    20804158.060          50.900
        48.800
 118387593.803 8  92250063.55047  22528406.620    22528400.020          50.250
        43.500
 109617526.173 8  85416257.65447  20859514.560    20859510.060          50.700
        47.650
 11  9  5  0 57 15.0000000  0 11G12G13G25G29G04G31G05G30G02G23G10
 134169659.622 6 104547775.35745  25531636.200    25531633.700          40.250
        31.000
 113915921.151 8  88765641.77447  21677474.980    21677469.500          50.650
        45.250
 123704189.387 8  96392862.31346  23540120.920    23540119.680          48.650
        41.750
 115189414.872 8  89757989.23947  21919810.380    21919806.260          50.200
        47.250
 121456753.060 8  94641631.63146  23112442.800    23112439.000          49.050
        41.900
 127975902.600 7  99721454.85846  24353004.380    24353000.260          46.250
        41.200
 119485092.180 8  93105267.03347  22737251.940    22737247.620          49.600
        45.650
 121328043.476 7  94541327.68546  23087956.100    23087952.460          47.900
        41.300
 109333223.917 8  85194707.71248  20805409.480    20805402.540          50.600
        48.900
 118414061.417 8  92270687.64547  22533443.260    22533436.780          50.000
        44.100
 109623006.618 8  85420528.12048  20860557.420    20860552.920          50.450
        48.150
 11  9  5  0 57 30.0000000  0 11G12G13G25G29G04G31G05G30G02G23G10
 134227617.618 7 104592937.88346  25542666.000    25542663.180          47.350
        37.650
 113914886.088 8  88764835.22147  21677278.020    21677272.460          50.950
        44.300
 123749584.719 8  96428235.26046  23548759.380    23548758.040          49.000
        40.950
 115162811.696 8  89737259.50847  21914748.000    21914743.880          50.550
        46.950
 121509883.521 8  94683031.97246  23122553.260    23122549.340          49.550
        40.700
 128019612.199 7  99755514.29046  24361321.980    24361317.960          46.850
        40.250
 119437381.405 8  93068089.82047  22728172.860    22728168.520          50.000
        44.900
 121370310.273 8  94574262.83146  23095999.280    23095995.600          48.300
        40.650
 109339895.184 8  85199906.08848  20806678.880    20806671.940          50.950
        48.400
 118440652.871 8  92291408.24047  22538503.460    22538496.980          50.500
        43.150
 109628634.582 8  85424913.54547  20861628.400    20861623.840          50.950
        47.750
 11  9  5  0 57 45.0000000  0 11G12G13G25G29G04G31G05G30G02G23G10
 134285595.224 7 104638115.19546  25553698.920    25553696.280          42.650
        37.750
 113914026.353 8  88764165.30147  21677114.420    21677108.840          50.950
        44.700
 123795078.058 8  96463684.60046  23557416.500    23557415.180          49.250
        41.700
 115136346.860 8  89716637.56747  21909711.880    21909707.820          50.400
        47.150
 121563082.460 8  94724485.69546  23132676.800    23132672.660          49.600
        41.250
 128063414.212 7  99789645.68846  24369657.200    24369653.440          47.100
        40.400
 119389761.669 8  93030983.53647  22719111.120    22719106.720          50.150
        44.850
 121412698.845 8  94607292.87146  23104065.500    23104061.620          48.300
        41.000
 109346716.759 8  85205221.59948  20807976.900    20807969.980          50.900
        48.700
 118467387.265 8  92312240.20847  22543590.920    22543584.260          50.350
        43.700
 109634429.262 8  85429428.87647  20862731.120    20862726.480          50.950
        47.750
 11  9  5  0 58  0.0000000  0 11G12G13G25G29G04G31G05G30G02G23G10
 134343588.258 7 104683304.47845  25564734.720    25564732.280          46.000
        33.500
 113913337.492 8  88763628.53847  21676983.320    21676977.740          50.750
        44.350
 123840664.516 8  96499206.51046  23566091.440    23566090.100          49.300
        41.650
 115110016.094 8  89696120.10247  21904701.280    21904697.200          50.400
        47.050
 121616345.030 8  94765988.98146  23142812.380    23142808.160          49.350
        40.950
 128107303.808 7  99823845.35746  24378009.100    24378005.200          46.850
        39.000
 119342228.170 8  92993944.46947  22710065.720    22710061.280          50.050
        44.950
 121455204.309 8  94640413.98646  23112154.080    23112150.340          48.750
        40.200
 109353683.940 8  85210650.65148  20809302.680    20809295.780          51.050
        48.350
 118494259.974 8  92333179.96947  22548704.660    22548697.980          50.450
        43.300
 109640386.024 8  85434070.50047  20863864.660    20863860.000          50.850
        47.700
 11  9  5  0 58 15.0000000  0 11G12G13G25G29G04G31G05G30G02G23G10
 134401596.130 7 104728505.54245  25575773.420    25575770.640          45.400
        35.800
 113912819.579 8  88763224.97147  21676884.640    21676879.200          50.650
        44.600
 123886343.893 8  96534800.81146  23574783.980    23574782.620          49.050
        41.650
 115083819.774 8  89675707.41447  21899716.240    21899712.140          50.550
        46.650
 121669671.164 8  94807541.77746  23152960.040    23152955.860          49.100
        41.000
 128151280.857 7  99858113.16046  24386377.540    24386373.760          46.800
        39.850
 119294781.427 8  92956973.00447  22701036.900    22701032.480          50.200
        45.050
 121497826.460 8  94673626.04046  23120264.880    23120261.080          48.600
        40.950
 109360797.285 8  85216193.64048  20810656.260    20810649.400          51.000
        48.450
 118521270.772 8  92354227.33047  22553844.740    22553837.980          50.650
        43.050
 109646504.916 8  85438838.47247  20865029.100    20865024.340          50.950
        47.500
 11  9  5  0 58 30.0000000  0 11G12G13G25G29G04G31G05G30G02G23G10
 134459620.442 7 104773719.19746  25586815.060    25586812.340          43.450
        37.550
 113912474.066 8  88762955.76547  21676818.780    21676813.440          50.800
        44.100
 123932117.178 8  96570468.28746  23583494.340    23583493.020          49.200
        41.900
 115057759.389 8  89655400.65047  21894757.040    21894752.940          50.650
        46.550
 121723061.873 8  94849144.94046  23163119.980    23163115.780          49.200
        40.200
 128195346.352 7  99892449.89646  24394762.980    24394759.120          47.050
        39.550
 119247423.211 8  92920070.52247  22692024.940    22692020.560          50.300
        45.000
 121540566.144 8  94706929.66846  23128398.040    23128394.040          49.000
        40.200
 109368057.758 8  85221851.25748  20812037.800    20812031.000          51.100
        48.600
 118548420.782 8  92375383.16547  22559011.300    22559004.440          50.650
        42.900
 109652787.130 8  85443733.69147  20866224.620    20866219.760          51.000
        47.400
 11  9  5  0 58 45.0000000  0 12G12G13G25G29G04G16G31G05G30G02G23G10
 134517658.759 7 104818943.78845  25597859.560    25597856.680          47.250
        34.750
 113912299.183 8  88762819.49547  21676785.400    21676780.100          50.750
        44.250
 123977982.434 8  96606207.43246  23592222.260    23592221.180          49.250
        41.650
 115031833.642 8  89635198.78047  21889823.460    21889819.360          50.300
        47.000
 121776515.337 8  94890797.01546  23173291.880    23173287.500          48.900
        39.550
                                  25528629.660                          38.700

 128239498.243 7  99926853.93846  24403164.780    24403160.680          46.950
        38.650
 119200152.304 8  92883236.06547  22683029.580    22683025.200          50.200
        45.100
 121583421.576 8  94740323.49746  23136553.240    23136549.080          48.550
        40.650
 109375463.558 8  85227622.00148  20813446.980    20813440.260          51.000
        48.400
 118575708.234 8  92396646.09147  22564204.000    22564197.040          50.650
        42.750
 109659231.112 8  85448754.97647  20867450.920    20867445.980          50.900
        47.450
 11  9  5  0 59  0.0000000  0 12G12G13G25G29G04G16G31G05G30G02G23G10
 134575708.621 7 104864177.71145  25608906.180    25608902.200          44.000
        32.100
 113912292.919 8  88762814.59547  21676784.160    21676778.880          51.100
        43.750
 124023937.081 8  96642016.21846  23600967.180    23600966.060          49.550
        40.250
 115006040.614 8  89615100.32147  21884915.180    21884911.080          50.900
        46.700
 121830029.037 8  94932496.01846  23183475.160    23183470.820          49.350
        39.750
 134099542.143 7 104493133.26745  25518293.120    25518289.480          43.150
        32.950
 128283734.036 7  99961323.37746  24411582.560    24411578.500          47.300
        38.600
 119152966.778 8  92846468.15247  22674050.480    22674046.040          50.600
        44.850
 121626390.067 8  94773805.41146  23144729.860    23144725.800          49.300
        39.750
 109383012.656 8  85233504.43148  20814883.480    20814876.760          51.400
        48.050
 118603130.659 8  92418014.16947  22569422.380    22569415.320          51.000
        42.350
 109665834.505 8  85453900.48547  20868707.540    20868702.500          51.300
        46.950
 11  9  5  0 59 15.0000000  0 12G12G13G25G29G04G16G31G05G30G02G23G10
 134633775.242 7 104909424.25146  25619955.580    25619952.500          44.650
        38.200
 113912460.634 8  88762945.28247  21676816.040    21676810.840          50.900
        44.150
 124069986.181 8  96677898.61646  23609729.960    23609728.900          49.150
        40.900
 114980385.812 8  89595109.58147  21880033.240    21880029.120          50.700
        46.550
 121883607.962 8  94974245.79946  23193670.940    23193666.620          49.250
        39.900
 134045275.943 6 104450847.90045  25507966.760    25507963.460          40.550
        31.350
 128328058.791 7  99995862.12946  24420017.240    24420013.200          46.800
        39.850
 119105872.230 8  92809771.12447  22665088.680    22665084.240          50.350
        45.150
 121669476.702 8  94807379.39846  23152929.060    23152924.980          48.800
        40.000
 109390710.565 8  85239502.89047  20816348.320    20816341.560          51.100
        47.900
 118630693.228 8  92439491.45547  22574667.400    22574660.320          50.650
        42.850
 109672602.681 8  85459174.39947  20869995.480    20869990.420          50.950
        46.950
 11  9  5  0 59 30.0000000  0 12G12G13G25G29G04G16G31G05G30G02G23G10
 134691863.114 7 104954687.47846  25631009.600    25631006.760          47.800
        39.000
 113912807.146 8  88763215.28947  21676881.960    21676876.800          50.600
        44.200
 124116134.316 8  96713858.18946  23618511.720    23618510.620          48.800
        41.350
 114954874.462 8  89575230.61147  21875178.580    21875174.480          50.550
        46.900
 121937256.858 8  95016050.12846  23203880.060    23203875.720          49.100
        40.250
 133991065.620 6 104408605.92245  25497651.240    25497647.720          41.250
        33.800
 128372477.168 7 100030473.84646  24428469.800    24428465.840          46.800
        39.350
 119058873.875 8  92773149.05247  22656145.160    22656140.700          50.200
        45.100
 121712685.984 7  94841048.94246  23161151.440    23161147.440          47.750
        40.100
 109398562.030 8  85245621.00248  20817842.400    20817835.500          50.950
        48.300
 118658400.526 8  92461081.51447  22579940.020    22579932.880          50.550
        43.000
 109679540.571 8  85464580.54647  20871315.680    20871310.660          50.650
        47.100
 11  9  5  0 59 45.0000000  0 12G12G13G25G29G04G16G31G05G30G02G23G10
 134749952.334 6 104999951.79945  25642063.660    25642060.720          39.700
        30.600
 113913312.777 8  88763609.26147  21676978.100    21676973.080          50.450
        44.250
 124162361.389 8  96749879.25846  23627308.400    23627307.220          48.450
        41.400
 114929486.994 8  89555448.16247  21870347.540    21870343.400          50.450
        47.450
 121990955.730 8  95057893.40046  23214098.660    23214094.200          49.300
        40.450
 133936892.174 7 104366392.83945  25487342.620    25487338.540          42.950
        33.450
 128416969.188 7 100065142.94146  24436936.460    24436932.580          47.000
        39.250
 119011952.413 8  92736586.89147  22647216.320    22647211.760          50.350
        45.100
 121755997.852 8  94874798.41346  23169393.340    23169389.520          48.100
        40.200
 109406547.124 8  85251843.15248  20819361.900    20819354.940          50.900
        48.700
 118686232.944 8  92482769.11447  22585236.440    22585229.260          50.450
        43.150
 109686628.355 8  85470103.53847  20872664.380    20872659.380          50.750
        47.550
 11  9  5  1  0  0.0000000  0 12G12G13G25G29G04G16G31G05G30G02G23G10
 134808045.852 7 105045212.36546  25653119.440    25653117.380          44.850
        36.200
 113913981.478 8  88764130.32947  21677105.220    21677100.400          50.250
        44.100
 124208670.958 8  96785964.62946  23636120.780    23636119.680          48.600
        40.950
 114904227.550 8  89535765.49047  21865540.900    21865536.720          50.400
        47.050
 122044708.119 8  95099778.38546  23224327.460    23224322.960          49.350
        40.450
 133882759.294 7 104324211.21445  25477041.500    25477037.980          42.000
        32.050
 128461538.153 7 100099871.99846  24445417.740    24445413.820          47.250
        39.550
 118965111.791 8  92700087.72047  22638302.880    22638298.340          50.250
        45.450
 121799415.843 7  94908630.61046  23177655.520    23177651.580          47.850
        39.850
 109414669.764 8  85258172.47248  20820907.460    20820900.660          50.600
        48.600
 118714193.855 8  92504556.82147  22590557.260    22590549.980          50.200
        42.600
 109693869.723 8  85475746.17747  20874042.300    20874037.400          50.650
        47.350
 11  9  5  1  0 15.0000000  0 12G12G13G25G29G04G16G31G05G30G02G23G10
 134866169.860 7 105090503.80946  25664179.920    25664177.140          47.500
        41.200
 113914838.385 8  88764798.04047  21677268.160    21677263.500          50.200
        44.550
 124255087.861 8  96822133.62846  23644953.680    23644952.680          48.500
        41.450
 114879121.597 8  89516202.43347  21860763.420    21860759.240          50.550
        47.050
 122098538.794 8  95141724.33346  23234571.200    23234566.620          49.650
        41.150
 133828693.143 7 104282081.72945  25466753.180    25466749.880          42.100
        33.850
 128506209.102 7 100134680.50846  24453918.460    24453914.560          46.900
        39.050
 118918377.654 8  92663671.53647  22629409.680    22629405.260          50.100
        45.300
 121842964.813 8  94942564.83546  23185942.580    23185938.800          48.450
        40.050
 109422955.248 8  85264628.69048  20822484.020    20822477.380          50.650
        48.550
 118742308.303 8  92526464.18147  22595907.240    22595900.060          50.150
        43.000
 109701289.893 8  85481528.11447  20875454.260    20875449.460          50.750
        47.250
 11  9  5  1  0 30.0000000  0 12G12G13G25G29G04G16G31G05G30G02G23G10
 134924298.632 6 105135798.96446  25675241.440    25675238.520          39.100
        37.400
 113915858.745 8  88765593.13247  21677462.200    21677457.820          50.250
        44.900
 124301587.029 8  96858366.70946  23653802.180    23653801.400          48.750
        41.850
 114854144.610 8  89496739.86447  21856010.500    21856006.360          50.750
        47.050
 122152422.801 8  95183711.82646  23244825.060    23244820.480          49.600
        40.450
 133774669.523 7 104239985.70745  25456472.880    25456469.280          43.450
        35.300
 128550956.914 7 100169548.91246  24462433.620    24462429.820          46.700
        38.800
 118871725.643 8  92627319.33647  22620532.060    22620527.640          50.100
        45.450
 121886619.610 8  94976581.54146  23194249.860    23194246.180          48.650
        40.800
 109431378.914 8  85271192.53748  20824086.920    20824080.360          50.900
        48.450
 118770551.325 8  92548471.73347  22601281.640    22601274.660          50.250
        42.300
 109708863.939 8  85487429.95547  20876895.540    20876890.780          50.850
        47.750
 11  9  5  1  0 45.0000000  0 12G12G13G25G29G04G16G31G05G30G02G23G10
 134982424.222 7 105181095.30844  25686302.980    25686297.600          43.950
        29.250
 113917039.680 8  88766513.34147  21677686.840    21677682.680          50.350
        44.300
 124348165.212 8  96894661.36646  23662665.640    23662664.880          48.100
        41.600
 114829293.834 8  89477375.64547  21851281.620    21851277.440          50.700
        47.200
 122206357.332 8  95225738.73946  23255088.460    23255083.880          49.450
        40.650
 133720684.954 7 104197919.82645  25446199.860    25446196.260          43.400
        32.950
 128595778.368 7 100204474.73446  24470962.880    24470958.840          46.150
        38.700
 118825153.159 8  92591029.10747  22611669.520    22611665.080          50.000
        45.350
 121930376.992 8  95010678.17646  23202576.660    23202572.800          48.400
        39.950
 109439937.494 8  85277861.58348  20825715.580    20825709.000          51.000
        48.300
 118798919.686 8  92570576.93247  22606679.900    22606673.060          50.150
        42.600
 109716588.888 8  85493449.39647  20878365.560    20878360.820          50.850
        47.350
 11  9  5  1  1  0.0000000  0 12G12G13G25G29G04G16G31G05G30G02G23G10
 135040580.029 7 105226411.86145  25697369.700    25697365.400          46.450
        33.300
 113918405.432 8  88767577.56047  21677946.680    21677942.600          50.200
        44.250
 124394846.331 8  96931036.22146  23671548.660    23671547.820          48.650
        40.750
 114804593.790 8  89458128.87447  21846581.380    21846577.220          50.700
        47.100
 122260365.941 8  95267823.33946  23265365.960    23265361.340          49.350
        40.200
 133666764.714 7 104155904.09745  25435939.140    25435935.180          43.850
        34.100
 128640697.528 7 100239476.64346  24479510.540    24479506.740          45.900
        39.300
 118778684.596 8  92554819.86447  22602826.760    22602822.360          49.850
        45.400
 121974260.908 8  95044873.41946  23210927.600    23210923.720          48.250
        39.750
 109448655.348 8  85284654.74748  20827374.580    20827367.860          50.950
        48.450
 118827437.602 8  92592798.66947  22612106.640    22612099.840          50.050
        42.900
 109724488.920 8  85499605.25747  20879868.880    20879864.160          50.750
        47.550
 11  9  5  1  1 15.0000000  0 12G12G13G25G29G04G16G31G05G30G02G23G10
 135098748.786 6 105271738.12946  25708439.100    25708436.000          41.200
        38.100
 113919943.644 8  88768776.17947  21678239.380    21678235.220          50.400
        44.550
 124441617.810 8  96967481.51346  23680449.000    23680448.060          48.750
        41.100
 114780032.461 8  89438990.19147  21841907.500    21841903.340          50.750
        47.100
 122314436.264 8  95309956.05846  23275655.200    23275650.600          49.150
        40.200
 133612896.830 7 104113929.23945  25425688.340    25425684.500          43.600
        35.650
 128685701.691 7 100274544.79146  24488074.500    24488070.940          46.650
        40.200
 118732308.057 8  92518682.30947  22594001.580    22593997.100          50.100
        45.600
 122018258.703 8  95079157.39846  23219300.100    23219296.380          48.300
        40.150
 109457520.228 8  85291562.41248  20829061.520    20829054.700          50.900
        48.600
 118856092.483 8  92615127.14347  22617559.440    22617552.720          50.050
        43.300
 109732551.650 8  85505887.88347  20881403.140    20881398.520          50.800
        47.250
 11  9  5  1  1 30.0000000  0 12G12G13G25G29G04G16G31G05G30G02G23G10
 135156928.112 7 105317072.38345  25719509.620    25719507.680          45.100
        34.600
 113921652.174 8  88770107.49947  21678564.540    21678560.300          51.350
        43.650
 124488476.998 8  97003995.13746  23689366.040    23689365.180          49.950
        40.300
 114755607.774 8  89419957.98947  21837259.620    21837255.460          51.450
        46.550
 122368565.673 8  95352134.80446  23285955.660    23285951.120          50.150
        39.550
 133559078.974 7 104071993.29745  25415447.040    25415442.940          45.800
        32.750
 128730788.298 7 100309677.20246  24496654.260    24496650.320          47.950
        38.550
 118686021.634 8  92482614.97047  22585193.580    22585188.940          51.000
        44.600
 122062367.705 8  95113528.03146  23227693.820    23227689.860          49.600
        38.950
 109466529.891 8  85298582.94647  20830776.000    20830769.180          51.650
        47.900
 118884881.835 8  92637560.38247  22623037.820    22623031.160          50.900
        42.250
 109740774.919 8  85512295.59247  20882967.920    20882963.400          51.450
        46.850
 11  9  5  1  1 45.0000000  0 12G12G13G25G29G04G16G31G05G30G02G23G10
 135215113.228 7 105362411.50743  25730581.960    25730579.460          45.750
        23.700
 113923526.942 8  88771568.36547  21678921.420    21678917.040          51.050
        44.200
 124535419.520 8  97040573.72046  23698299.000    23698298.120          49.200
        41.050
 114731315.942 8  89401029.30747  21832637.040    21832632.800          51.000
        46.700
 122422750.073 8  95394356.39846  23296266.560    23296262.080          49.600
        39.650
 133505307.788 7 104030093.68745  25405214.640    25405210.840          44.850
        35.800
 128775952.861 7 100344870.34746  24505248.880    24505244.920          47.600
        39.150
 118639821.477 8  92446614.85747  22576401.940    22576397.320          50.500
        44.750
 122106583.507 8  95147981.89746  23236107.880    23236103.840          48.750
        39.250
 109475680.161 8  85305713.04348  20832517.200    20832510.500          51.150
        48.300
 118913801.375 8  92660095.06847  22628541.020    22628534.400          50.450
        42.800
 109749154.569 8  85518825.19047  20884562.500    20884558.060          51.050
        47.400
 11  9  5  1  2  0.0000000  0 12G12G13G25G29G04G16G31G05G30G02G23G10
 135273308.678 5 105407758.81645  25741656.000    25741652.980          35.550
        32.250
 113925572.428 8  88773162.25047  21679310.800    21679306.240          50.850
        44.850
 124582449.437 8  97077220.38846  23707248.580    23707247.600          48.950
        41.150
 114707161.765 8  89382207.88547  21828040.620    21828036.280          50.800
        47.400
 122476993.419 8  95436623.96346  23306588.700    23306584.280          49.300
        39.850
 133451587.956 7 103988234.06645  25394991.980    25394988.100          44.700
        33.800
 128821199.581 7 100380127.52946  24513859.220    24513855.020          47.300
        39.050
 118593712.393 8  92410685.70647  22567627.600    22567623.200          50.300
        45.300
 122150910.278 8  95182522.20346  23244542.900    23244539.040          48.350
        39.700
 109484975.486 8  85312956.15748  20834286.040    20834279.420          51.150
        48.400
 118942855.410 8  92682734.54747  22634069.820    22634063.280          50.400
        42.900
 109757694.903 8  85525480.01047  20886187.700    20886183.360          51.000
        47.600
 11  9  5  1  2 15.0000000  0 12G12G13G25G29G04G16G31G05G30G02G23G10
 135331516.546 7 105453115.36346  25752732.480    25752730.100          46.250
        36.950
 113927791.188 8  88774891.13847  21679733.100    21679728.500          50.750
        44.700
 124629569.022 8  97113936.90746  23716215.100    23716214.180          48.750
        40.800
 114683147.753 8  89363495.68047  21823470.820    21823466.500          50.750
        47.100
 122531297.905 8  95478939.09946  23316922.460    23316918.040          49.150
        40.300
 133397922.467 7 103946416.79245  25384779.660    25384775.940          44.300
        35.550
 128866530.720 7 100415450.47246  24522485.580    24522481.300          47.350
        38.950
 118547697.161 8  92374829.69847  22558871.100    22558866.840          50.200
        45.300
 122195350.079 8  95217150.62046  23252999.560    23252995.560          48.150
        39.600
 109494418.530 8  85320314.38948  20836083.060    20836076.360          51.150
        48.400
 118972046.107 8  92705480.51247  22639624.580    22639618.200          50.150
        42.850
 109766398.456 8  85532262.00547  20887843.920    20887839.660          50.900
        47.350
 11  9  5  1  2 30.0000000  0 12G12G13G25G29G04G16G31G05G30G02G23G10
 135389732.510 7 105498478.39644  25763810.720    25763808.220          45.400
        29.700
 113930179.202 8  88776751.92047  21680187.600    21680182.960          50.400
        44.250
 124676773.918 8  97150719.92046  23725197.920    23725196.960          48.800
        40.700
 114659270.149 8  89344889.76747  21818926.980    21818922.720          50.500
        47.150
 122585659.334 8  95521298.60746  23327267.020    23327262.920          48.650
        40.750
 133344307.732 7 103904639.09245  25374577.040    25374573.360          43.950
        35.700
 128911941.957 7 100450835.83146  24531127.020    24531122.600          46.200
        39.600
 118501772.302 8  92339044.10847  22550131.860    22550127.520          50.050
        45.150
 122239898.639 7  95251863.75246  23261476.820    23261472.900          47.300
        39.850
 109504005.021 8  85327784.37848  20837907.340    20837900.560          50.850
        48.400
 119001369.307 8  92728329.71447  22645204.580    22645198.260          49.900
        43.000
 109775261.010 8  85539167.88147  20889530.360    20889526.140          50.450
        47.700
 11  9  5  1  2 45.0000000  0 12G12G13G25G29G04G16G31G05G30G02G23G10
 135447933.757 5 105543828.23154  25774885.940    25774880.860          34.700
        29.850
 113932713.727 8  88778726.89347  21680669.900    21680665.260          50.500
        45.050
 124724041.091 8  97187551.47546  23734192.600    23734191.620          48.550
        40.900
 114635506.603 8  89326372.73147  21814404.880    21814400.680          50.400
        47.550
 122640054.771 8  95563684.59946  23337618.100    23337614.260          48.700
        40.600
 133290721.546 7 103862883.65046  25364379.880    25364376.160          44.250
        36.450
 128957410.153 7 100486265.60946  24539779.420    24539774.940          46.250
        38.600
 118455915.249 8  92303311.35447  22541405.620    22541401.180          50.200
        45.800
 122284532.892 7  95286643.66346  23269970.360    23269966.480          47.650
        39.650
 109513712.451 8  85335348.65448  20839754.640    20839747.760          50.800
        48.600
 119030802.206 8  92751264.44547  22650805.560    22650799.140          50.050
        42.750
 109784259.940 8  85546180.04748  20891242.760    20891238.560          50.550
        48.000
 11  9  5  1  3  0.0000000  0 12G12G13G25G29G04G16G31G05G30G02G23G10
 135506170.207 7 105589207.14846  25785967.920    25785965.740          44.950
        36.250
 113935444.848 8  88780855.05747  21681189.560    21681184.900          50.150
        44.800
 124771420.465 8  97224470.45546  23743208.600    23743207.560          48.400
        41.000
 114611907.544 8  89307983.86647  21809914.060    21809909.860          50.200
        47.550
 122694534.278 8  95606136.13446  23347985.160    23347981.420          48.300
        41.650
 133237214.360 7 103821189.75745  25354197.720    25354193.960          43.750
        35.500
 129002985.375 7 100521778.76746  24548452.120    24548447.700          46.150
        37.950
 118410176.621 8  92267670.87547  22532701.880    22532697.440          49.900
        45.900
 122329302.697 7  95321529.19646  23278489.700    23278485.940          47.200
        40.150
 109523590.843 8  85343046.13148  20841634.420    20841627.480          50.600
        48.700
 119060394.751 8  92774323.56747  22656436.840    22656430.280          49.750
        43.350
 109793445.269 8  85553337.46347  20892990.660    20892986.460          50.350
        47.850
 11  9  5  1  3 15.0000000  0 12G12G13G25G29G04G16G31G05G30G02G23G10
 135564423.965 7 105634599.63345  25797053.400    25797050.800          46.000
        33.750
 113938355.257 8  88783122.92347  21681743.360    21681738.640          50.450
        44.800
 124818894.216 8  97261462.97546  23752242.600    23752241.420          48.300
        40.750
 114588455.761 8  89289709.76447  21805451.260    21805447.120          50.350
        47.350
 122749080.143 7  95648639.37546  23358364.840    23358361.240          47.750
        41.400
 133183769.139 7 103779544.09746  25344027.340    25344023.440          42.650
        36.350
 129048649.841 7 100557361.46246  24557141.900    24557137.420          46.700
        39.950
 118364539.229 8  92232109.26847  22524017.340    22524012.760          50.100
        45.750
 122374190.348 7  95356506.55446  23287031.480    23287027.900          47.700
        40.200
 109533622.826 8  85350863.31248  20843543.380    20843536.540          50.800
        48.600
 119090129.142 8  92797493.21047  22662095.080    22662088.460          49.750
        42.650
 109802799.537 8  85560626.52347  20894770.680    20894766.480          50.600
        47.400
 11  9  5  1  3 30.0000000  0 12G12G13G25G29G04G16G31G05G30G02G23G10
 135622671.642 6 105679987.38745  25808137.600    25808133.820          40.250
        30.050
 113941421.754 8  88785512.39347  21682326.920    21682322.240          50.400
        44.550
 124866438.724 8  97298510.65146  23761290.060    23761288.740          48.750
        40.450
 114565128.201 8  89271532.46747  21801012.160    21801008.060          50.450
        47.350
 122803668.634 8  95691175.83346  23368752.600    23368749.080          48.200
        41.550
 133130363.035 7 103737928.95245  25333864.520    25333860.800          42.850
        35.550
 129094379.835 7 100592995.18446  24565844.020    24565839.900          46.550
        40.200
 118318980.076 8  92196608.63847  22515347.720    22515343.160          50.300
        45.700
 122419172.072 8  95391557.24446  23295591.360    23295587.680          48.100
        40.350
 109543784.932 8  85358781.87448  20845477.180    20845470.360          51.050
        48.450
 119119981.958 8  92820755.11647  22667775.780    22667769.260          49.750
        42.950
 109812299.330 8  85568028.96447  20896578.420    20896574.180          50.650
        47.550
 11  9  5  1  3 45.0000000  0 12G12G13G25G29G04G16G31G05G30G02G23G10
 135680922.712 6 105725377.80645  25819222.280    25819218.400          39.600
        31.600
 113944654.179 8  88788031.16647  21682942.040    21682937.380          50.600
        44.800
 124914063.589 8  97335620.92146  23770352.840    23770351.640          48.650
        40.200
 114541935.105 8  89253459.93747  21796598.640    21796594.620          50.600
        47.350
 122858309.345 8  95733752.98346  23379150.420    23379146.860          48.600
        40.850
 133077006.275 7 103696352.25545  25323710.980    25323707.420          43.150
        34.850
 129140184.934 7 100628687.41446  24574560.540    24574556.520          46.900
        40.200
 118273509.442 8  92161176.98547  22506695.000    22506690.560          50.550
        45.800
 122464257.530 8  95426688.74646  23304170.820    23304167.300          48.150
        40.000
 109554087.030 8  85366809.46848  20847437.620    20847430.800          51.050
        48.350
 119149962.837 8  92844116.81947  22673480.900    22673474.600          49.950
        42.900
 109821954.625 8  85575552.59047  20898415.740    20898411.440          50.700
        47.300
 11  9  5  1  4  0.0000000  0 12G12G13G25G29G04G16G31G05G30G02G23G10
 135739186.893 5                  25830309.680
        32.650
 113948062.193 8  88790686.74947  21683590.600    21683585.940          50.600
        44.400
 124961778.118 8  97372801.05146  23779432.520    23779431.360          48.400
        40.350
 114518886.191 8  89235499.75847  21792212.560    21792208.540          50.350
        47.150
 122913011.960 8  95776378.37146  23389560.000    23389556.520          48.350
        40.650
 133023708.822 7 103654821.79946  25313568.740    25313565.380          43.250
        36.700
 129186074.510 7 100664445.50946  24583293.240    24583288.740          47.550
        39.850
 118228137.237 8  92125822.03147  22498061.060    22498056.660          50.450
        45.800
 122509455.983 7  95461908.30146  23312771.860    23312768.480          47.950
        40.850
 109564538.773 8  85374953.65648  20849426.540    20849419.660          50.850
        48.400
 119180081.211 8  92867585.66747  22679212.220    22679205.840          49.750
        42.450
 109831774.820 8  85583204.67647  20900284.440    20900280.100          50.550
        47.100
 11  9  5  1  4 15.0000000  0 11G13G25G29G04G16G31G05G30G02G23G10
 113951643.384 8  88793477.29347  21684272.180    21684267.460          50.850
        44.600
 125009579.657 8  97410049.00046  23788528.840    23788527.580          48.750
        40.200
 114495979.496 8  89217650.38647  21787853.540    21787849.500          50.450
        47.250
 122967773.709 8  95819049.81146  23399980.800    23399977.280          48.750
        40.050
 132970468.802 7 103613336.02445  25303437.440    25303434.260          43.350
        34.200
 129232046.084 7 100700267.50646  24592041.480    24592036.940          47.750
        40.050
 118182861.720 8  92090542.40547  22489445.560    22489440.860          50.650
        45.800
 122554764.730 8  95497213.80846  23321393.860    23321390.520          48.000
        39.650
 109575137.940 8  85383212.74448  20851443.460    20851436.540          50.900
        48.350
 119210334.545 8  92891159.69147  22684969.240    22684962.660          50.050
        42.050
 109841757.525 8  85590983.37047  20902184.080    20902179.700          50.650
        47.150
 11  9  5  1  4 30.0000000  0 11G13G25G29G04G16G31G05G30G02G23G10
 113955392.731 8  88796398.85847  21684985.740    21684981.020          50.850
        44.600
 125057462.771 8  97447360.49646  23797640.740    23797639.660          48.650
        40.000
 114473210.074 8  89199907.98547  21783520.680    21783516.540          50.650
        46.850
 123022589.250 8  95861763.20346  23410411.940    23410408.240          49.050
        40.100
 132917281.574 7 103571891.40645  25293316.240    25293313.080          42.550
        34.850
 129278094.228 7 100736149.14046  24600804.200    24600799.460          47.450
        40.100
 118137677.808 8  92055334.16847  22480847.400    22480842.620          50.700
        45.550
 122600178.340 8  95532601.02046  23330035.840    23330032.500          48.450
        39.750
 109585879.403 8  85391582.71348  20853487.420    20853480.520          50.950
        48.300
 119240717.536 8  92914834.73747  22690750.960    22690744.360          50.200
        42.050
 109851897.612 8  85598884.72747  20904113.640    20904109.340          50.800
        47.100
 11  9  5  1  4 45.0000000  0 11G13G25G29G04G16G31G05G30G02G23G10
 113959314.075 8  88799454.45347  21685732.020    21685727.280          50.550
        45.250
 125105431.134 8  97484738.40946  23806768.840    23806767.780          48.250
        40.650
 114450582.172 8  89182275.87047  21779214.740    21779210.560          50.300
        47.150
 123077462.349 8  95904521.43146  23420854.060    23420850.240          48.700
        40.600
 132864151.641 6 103530491.45245  25283205.900    25283202.640          41.200
        34.900
 129324222.561 7 100772093.25946  24609582.080    24609577.300          46.950
        39.600
 118092589.877 8  92020200.72147  22472267.440    22472262.780          50.200
        46.000
 122645700.505 7  95568072.81446  23338698.500    23338695.080          47.850
        39.650
 109596766.975 8  85400066.50648  20855559.260    20855552.420          50.700
        48.750
 119271233.979 8  92938613.78247  22696558.100    22696551.520          50.000
        42.800
 109862199.066 8  85606911.81547  20906073.920    20906069.780          50.300
        47.600
 11  9  5  1  5  0.0000000  0 11G13G25G29G04G16G31G05G30G02G23G10
 113963405.793 8  88802642.80147  21686510.660    21686505.960          51.350
        44.200
 125153482.716 8  97522181.16546  23815912.760    23815911.580          49.300
        39.800
 114428094.328 8  89164752.88747  21774935.460    21774931.240          51.150
        46.200
 123132391.064 8  95947322.98046  23431306.720    23431302.840          49.950
        39.550
 132811077.477 7 103489134.95745  25273106.280    25273102.780          42.550
        31.600
 129370428.982 7 100808098.24646  24618374.920    24618370.020          47.950
        38.500
 118047596.555 8  91985140.99447  22463705.460    22463700.860          51.000
        45.200
 122691329.129 8  95603627.56846  23347381.280    23347377.720          48.650
        39.400
 109607798.963 8  85408662.83047  20857658.620    20857651.860          51.600
        47.900
 119301881.968 8  92962495.32847  22702390.300    22702383.680          50.950
        42.100
 109872660.055 8  85615063.21147  20908064.540    20908060.600          51.100
        46.750
 11  9  5  1  5 15.0000000  0 11G13G25G29G04G16G31G05G30G02G23G10
 113967666.550 8  88805962.87147  21687321.480    21687316.760          51.050
        45.000
 125201615.874 8  97559687.49846  23825072.180    23825071.120          48.650
        40.000
 114405745.314 8  89147338.08747  21770682.600    21770678.340          50.650
        46.850
 123187373.785 8  95990166.62846  23441769.660    23441765.680          49.450
        38.650
 132758058.318 6 103447821.35345  25263017.120    25263014.000          40.950
        34.350
 129416711.937 7 100844162.87046  24627182.180    24627177.580          47.200
        38.250
 118002696.731 8  91950154.12447  22455161.300    22455156.600          50.800
        45.500
 122737062.536 8  95639263.96846  23356084.060    23356080.440          48.400
        39.250
 109618974.130 8  85417370.70748  20859785.220    20859778.560          51.250
        48.300
 119332659.962 8  92986478.18047  22708247.260    22708240.620          50.550
        42.400
 109883279.221 8  85623337.88347  20910085.240    20910081.480          50.850
        47.200
